<?xml version="1.0" encoding="UTF-8" standalone="no" ?>
<gpx xmlns="http://www.topografix.com/GPX/1/1" xmlns:xsi="http://www.w3.org/2001/XMLSchema-instance" xsi:schemaLocation="http://www.topografix.com/GPX/1/1 http://www.topografix.com/GPX/1/1/gpx.xsd" version="1.1" creator="VisuGPX - https://www.visugpx.com">
  <metadata>
    <name>Jarjayes Cyclisme</name>
    <desc><![CDATA[faite par vincent]]></desc>
  </metadata>
  <trk>
    <name><![CDATA[Jarjayes Cyclisme]]></name>
    <trkseg>
      <trkpt lat="44.50617" lon="6.11061">
        <ele>953.79998779297</ele>
        <time>2020-12-04T12:18:46.000Z</time>
      </trkpt>
      <trkpt lat="44.50615" lon="6.11063">
        <ele>954.79998779297</ele>
        <time>2020-12-04T12:18:46.001Z</time>
      </trkpt>
      <trkpt lat="44.50597" lon="6.11065">
        <ele>954.59997558594</ele>
        <time>2020-12-04T12:18:46.007Z</time>
      </trkpt>
      <trkpt lat="44.50586" lon="6.11058">
        <ele>954</ele>
        <time>2020-12-04T12:18:46.017Z</time>
      </trkpt>
      <trkpt lat="44.5057" lon="6.11049">
        <ele>953.40002441406</ele>
        <time>2020-12-04T12:18:46.032Z</time>
      </trkpt>
      <trkpt lat="44.5056" lon="6.11044">
        <ele>952.20001220703</ele>
        <time>2020-12-04T12:18:46.050Z</time>
      </trkpt>
      <trkpt lat="44.50555" lon="6.1104">
        <ele>952</ele>
        <time>2020-12-04T12:18:46.070Z</time>
      </trkpt>
      <trkpt lat="44.50538" lon="6.11029">
        <ele>951.20001220703</ele>
        <time>2020-12-04T12:18:46.096Z</time>
      </trkpt>
      <trkpt lat="44.50528" lon="6.11023">
        <ele>949.79998779297</ele>
        <time>2020-12-04T12:18:46.125Z</time>
      </trkpt>
      <trkpt lat="44.50521" lon="6.11018">
        <ele>948.79998779297</ele>
        <time>2020-12-04T12:18:46.157Z</time>
      </trkpt>
      <trkpt lat="44.50513" lon="6.11012">
        <ele>947.59997558594</ele>
        <time>2020-12-04T12:18:46.191Z</time>
      </trkpt>
      <trkpt lat="44.50508" lon="6.11004">
        <ele>946.59997558594</ele>
        <time>2020-12-04T12:18:46.228Z</time>
      </trkpt>
      <trkpt lat="44.5051" lon="6.10997">
        <ele>946.20001220703</ele>
        <time>2020-12-04T12:18:46.266Z</time>
      </trkpt>
      <trkpt lat="44.50512" lon="6.10994">
        <ele>945.40002441406</ele>
        <time>2020-12-04T12:18:46.305Z</time>
      </trkpt>
      <trkpt lat="44.50514" lon="6.10993">
        <ele>945</ele>
        <time>2020-12-04T12:18:46.345Z</time>
      </trkpt>
      <trkpt lat="44.50519" lon="6.10991">
        <ele>944.59997558594</ele>
        <time>2020-12-04T12:18:46.386Z</time>
      </trkpt>
      <trkpt lat="44.50538" lon="6.10986">
        <ele>944.40002441406</ele>
        <time>2020-12-04T12:18:46.433Z</time>
      </trkpt>
      <trkpt lat="44.50557" lon="6.10981">
        <ele>944.79998779297</ele>
        <time>2020-12-04T12:18:46.486Z</time>
      </trkpt>
      <trkpt lat="44.50581" lon="6.10973">
        <ele>945</ele>
        <time>2020-12-04T12:18:46.547Z</time>
      </trkpt>
      <trkpt lat="44.50606" lon="6.10965">
        <ele>945.79998779297</ele>
        <time>2020-12-04T12:18:46.615Z</time>
      </trkpt>
      <trkpt lat="44.50619" lon="6.10962">
        <ele>946</ele>
        <time>2020-12-04T12:18:46.687Z</time>
      </trkpt>
      <trkpt lat="44.50622" lon="6.10961">
        <ele>946.40002441406</ele>
        <time>2020-12-04T12:18:46.760Z</time>
      </trkpt>
      <trkpt lat="44.50638" lon="6.10957">
        <ele>947.20001220703</ele>
        <time>2020-12-04T12:18:46.838Z</time>
      </trkpt>
      <trkpt lat="44.50643" lon="6.10955">
        <ele>947.59997558594</ele>
        <time>2020-12-04T12:18:46.918Z</time>
      </trkpt>
      <trkpt lat="44.50652" lon="6.10952">
        <ele>948.40002441406</ele>
        <time>2020-12-04T12:18:47.001Z</time>
      </trkpt>
      <trkpt lat="44.50654" lon="6.10951">
        <ele>948.59997558594</ele>
        <time>2020-12-04T12:18:47.084Z</time>
      </trkpt>
      <trkpt lat="44.50656" lon="6.1095">
        <ele>949</ele>
        <time>2020-12-04T12:18:47.168Z</time>
      </trkpt>
      <trkpt lat="44.50656" lon="6.10946">
        <ele>949</ele>
        <time>2020-12-04T12:18:47.253Z</time>
      </trkpt>
      <trkpt lat="44.50653" lon="6.10933">
        <ele>949</ele>
        <time>2020-12-04T12:18:47.341Z</time>
      </trkpt>
      <trkpt lat="44.50652" lon="6.10928">
        <ele>948.79998779297</ele>
        <time>2020-12-04T12:18:47.430Z</time>
      </trkpt>
      <trkpt lat="44.50644" lon="6.10896">
        <ele>947</ele>
        <time>2020-12-04T12:18:47.526Z</time>
      </trkpt>
      <trkpt lat="44.50643" lon="6.1089">
        <ele>945.59997558594</ele>
        <time>2020-12-04T12:18:47.624Z</time>
      </trkpt>
      <trkpt lat="44.5064" lon="6.10873">
        <ele>944.20001220703</ele>
        <time>2020-12-04T12:18:47.725Z</time>
      </trkpt>
      <trkpt lat="44.50641" lon="6.10864">
        <ele>943</ele>
        <time>2020-12-04T12:18:47.828Z</time>
      </trkpt>
      <trkpt lat="44.50644" lon="6.1086">
        <ele>941.59997558594</ele>
        <time>2020-12-04T12:18:47.933Z</time>
      </trkpt>
      <trkpt lat="44.50662" lon="6.10854">
        <ele>941</ele>
        <time>2020-12-04T12:18:48.043Z</time>
      </trkpt>
      <trkpt lat="44.50687" lon="6.10845">
        <ele>941.59997558594</ele>
        <time>2020-12-04T12:18:48.161Z</time>
      </trkpt>
      <trkpt lat="44.50701" lon="6.10832">
        <ele>942</ele>
        <time>2020-12-04T12:18:48.284Z</time>
      </trkpt>
      <trkpt lat="44.50719" lon="6.10817">
        <ele>942.59997558594</ele>
        <time>2020-12-04T12:18:48.413Z</time>
      </trkpt>
      <trkpt lat="44.50739" lon="6.10811">
        <ele>942.79998779297</ele>
        <time>2020-12-04T12:18:48.549Z</time>
      </trkpt>
      <trkpt lat="44.5075" lon="6.10802">
        <ele>943</ele>
        <time>2020-12-04T12:18:48.689Z</time>
      </trkpt>
      <trkpt lat="44.50755" lon="6.10796">
        <ele>943.20001220703</ele>
        <time>2020-12-04T12:18:48.831Z</time>
      </trkpt>
      <trkpt lat="44.50766" lon="6.10769">
        <ele>943.59997558594</ele>
        <time>2020-12-04T12:18:48.979Z</time>
      </trkpt>
      <trkpt lat="44.50767" lon="6.1075">
        <ele>944.59997558594</ele>
        <time>2020-12-04T12:18:49.131Z</time>
      </trkpt>
      <trkpt lat="44.50765" lon="6.10741">
        <ele>944.79998779297</ele>
        <time>2020-12-04T12:18:49.285Z</time>
      </trkpt>
      <trkpt lat="44.50759" lon="6.10723">
        <ele>945</ele>
        <time>2020-12-04T12:18:49.444Z</time>
      </trkpt>
      <trkpt lat="44.50748" lon="6.10701">
        <ele>945.40002441406</ele>
        <time>2020-12-04T12:18:49.609Z</time>
      </trkpt>
      <trkpt lat="44.50733" lon="6.1069">
        <ele>945.20001220703</ele>
        <time>2020-12-04T12:18:49.779Z</time>
      </trkpt>
      <trkpt lat="44.50727" lon="6.10694">
        <ele>945.20001220703</ele>
        <time>2020-12-04T12:18:49.951Z</time>
      </trkpt>
      <trkpt lat="44.50723" lon="6.10697">
        <ele>945.20001220703</ele>
        <time>2020-12-04T12:18:50.124Z</time>
      </trkpt>
      <trkpt lat="44.5071" lon="6.10717">
        <ele>944.40002441406</ele>
        <time>2020-12-04T12:18:50.303Z</time>
      </trkpt>
      <trkpt lat="44.50697" lon="6.10735">
        <ele>944</ele>
        <time>2020-12-04T12:18:50.487Z</time>
      </trkpt>
      <trkpt lat="44.50691" lon="6.10741">
        <ele>943.79998779297</ele>
        <time>2020-12-04T12:18:50.674Z</time>
      </trkpt>
      <trkpt lat="44.5067" lon="6.10757">
        <ele>943</ele>
        <time>2020-12-04T12:18:50.868Z</time>
      </trkpt>
      <trkpt lat="44.50661" lon="6.1076">
        <ele>943</ele>
        <time>2020-12-04T12:18:51.065Z</time>
      </trkpt>
      <trkpt lat="44.50652" lon="6.10762">
        <ele>942.79998779297</ele>
        <time>2020-12-04T12:18:51.265Z</time>
      </trkpt>
      <trkpt lat="44.50642" lon="6.10764">
        <ele>942.59997558594</ele>
        <time>2020-12-04T12:18:51.468Z</time>
      </trkpt>
      <trkpt lat="44.50623" lon="6.10773">
        <ele>942.40002441406</ele>
        <time>2020-12-04T12:18:51.677Z</time>
      </trkpt>
      <trkpt lat="44.50613" lon="6.10782">
        <ele>942</ele>
        <time>2020-12-04T12:18:51.889Z</time>
      </trkpt>
      <trkpt lat="44.50609" lon="6.10785">
        <ele>940.79998779297</ele>
        <time>2020-12-04T12:18:52.103Z</time>
      </trkpt>
      <trkpt lat="44.50605" lon="6.10786">
        <ele>940.40002441406</ele>
        <time>2020-12-04T12:18:52.318Z</time>
      </trkpt>
      <trkpt lat="44.50595" lon="6.10786">
        <ele>940</ele>
        <time>2020-12-04T12:18:52.536Z</time>
      </trkpt>
      <trkpt lat="44.50585" lon="6.10781">
        <ele>939.40002441406</ele>
        <time>2020-12-04T12:18:52.757Z</time>
      </trkpt>
      <trkpt lat="44.50574" lon="6.10775">
        <ele>938.20001220703</ele>
        <time>2020-12-04T12:18:52.982Z</time>
      </trkpt>
      <trkpt lat="44.50564" lon="6.10768">
        <ele>937.59997558594</ele>
        <time>2020-12-04T12:18:53.210Z</time>
      </trkpt>
      <trkpt lat="44.50544" lon="6.10755">
        <ele>937.40002441406</ele>
        <time>2020-12-04T12:18:53.445Z</time>
      </trkpt>
      <trkpt lat="44.50524" lon="6.10742">
        <ele>937</ele>
        <time>2020-12-04T12:18:53.687Z</time>
      </trkpt>
      <trkpt lat="44.5052" lon="6.1074">
        <ele>936.40002441406</ele>
        <time>2020-12-04T12:18:53.930Z</time>
      </trkpt>
      <trkpt lat="44.50513" lon="6.10735">
        <ele>936</ele>
        <time>2020-12-04T12:18:54.175Z</time>
      </trkpt>
      <trkpt lat="44.505" lon="6.10727">
        <ele>935.40002441406</ele>
        <time>2020-12-04T12:18:54.424Z</time>
      </trkpt>
      <trkpt lat="44.50494" lon="6.10722">
        <ele>934.20001220703</ele>
        <time>2020-12-04T12:18:54.676Z</time>
      </trkpt>
      <trkpt lat="44.50492" lon="6.10718">
        <ele>933.59997558594</ele>
        <time>2020-12-04T12:18:54.929Z</time>
      </trkpt>
      <trkpt lat="44.50491" lon="6.10714">
        <ele>933.20001220703</ele>
        <time>2020-12-04T12:18:55.183Z</time>
      </trkpt>
      <trkpt lat="44.50489" lon="6.10704">
        <ele>933</ele>
        <time>2020-12-04T12:18:55.439Z</time>
      </trkpt>
      <trkpt lat="44.50487" lon="6.10694">
        <ele>932.59997558594</ele>
        <time>2020-12-04T12:18:55.697Z</time>
      </trkpt>
      <trkpt lat="44.50485" lon="6.10664">
        <ele>931.79998779297</ele>
        <time>2020-12-04T12:18:55.962Z</time>
      </trkpt>
      <trkpt lat="44.50486" lon="6.10658">
        <ele>931.79998779297</ele>
        <time>2020-12-04T12:18:56.228Z</time>
      </trkpt>
      <trkpt lat="44.50489" lon="6.10634">
        <ele>930.59997558594</ele>
        <time>2020-12-04T12:18:56.499Z</time>
      </trkpt>
      <trkpt lat="44.50491" lon="6.10623">
        <ele>930.40002441406</ele>
        <time>2020-12-04T12:18:56.773Z</time>
      </trkpt>
      <trkpt lat="44.50497" lon="6.10601">
        <ele>929.59997558594</ele>
        <time>2020-12-04T12:18:57.052Z</time>
      </trkpt>
      <trkpt lat="44.50499" lon="6.1059">
        <ele>929</ele>
        <time>2020-12-04T12:18:57.333Z</time>
      </trkpt>
      <trkpt lat="44.50501" lon="6.10578">
        <ele>928.59997558594</ele>
        <time>2020-12-04T12:18:57.617Z</time>
      </trkpt>
      <trkpt lat="44.50501" lon="6.10563">
        <ele>928.40002441406</ele>
        <time>2020-12-04T12:18:57.904Z</time>
      </trkpt>
      <trkpt lat="44.50491" lon="6.10544">
        <ele>928.40002441406</ele>
        <time>2020-12-04T12:18:58.196Z</time>
      </trkpt>
      <trkpt lat="44.50477" lon="6.10527">
        <ele>929</ele>
        <time>2020-12-04T12:18:58.494Z</time>
      </trkpt>
      <trkpt lat="44.50469" lon="6.10517">
        <ele>930</ele>
        <time>2020-12-04T12:18:58.795Z</time>
      </trkpt>
      <trkpt lat="44.50461" lon="6.10506">
        <ele>930.59997558594</ele>
        <time>2020-12-04T12:18:59.100Z</time>
      </trkpt>
      <trkpt lat="44.50456" lon="6.10501">
        <ele>931</ele>
        <time>2020-12-04T12:18:59.406Z</time>
      </trkpt>
      <trkpt lat="44.50445" lon="6.10492">
        <ele>932.20001220703</ele>
        <time>2020-12-04T12:18:59.716Z</time>
      </trkpt>
      <trkpt lat="44.50437" lon="6.10483">
        <ele>933.40002441406</ele>
        <time>2020-12-04T12:19:00.030Z</time>
      </trkpt>
      <trkpt lat="44.50426" lon="6.10475">
        <ele>934.20001220703</ele>
        <time>2020-12-04T12:19:00.347Z</time>
      </trkpt>
      <trkpt lat="44.50424" lon="6.10474">
        <ele>934.59997558594</ele>
        <time>2020-12-04T12:19:00.665Z</time>
      </trkpt>
      <trkpt lat="44.50413" lon="6.10466">
        <ele>935.59997558594</ele>
        <time>2020-12-04T12:19:00.987Z</time>
      </trkpt>
      <trkpt lat="44.50398" lon="6.10458">
        <ele>936.79998779297</ele>
        <time>2020-12-04T12:19:01.314Z</time>
      </trkpt>
      <trkpt lat="44.50392" lon="6.10457">
        <ele>937.79998779297</ele>
        <time>2020-12-04T12:19:01.642Z</time>
      </trkpt>
      <trkpt lat="44.50387" lon="6.10455">
        <ele>938.20001220703</ele>
        <time>2020-12-04T12:19:01.972Z</time>
      </trkpt>
      <trkpt lat="44.50376" lon="6.10449">
        <ele>939</ele>
        <time>2020-12-04T12:19:02.306Z</time>
      </trkpt>
      <trkpt lat="44.50374" lon="6.10447">
        <ele>939.40002441406</ele>
        <time>2020-12-04T12:19:02.640Z</time>
      </trkpt>
      <trkpt lat="44.5037" lon="6.10445">
        <ele>940</ele>
        <time>2020-12-04T12:19:02.976Z</time>
      </trkpt>
      <trkpt lat="44.50368" lon="6.10443">
        <ele>940.79998779297</ele>
        <time>2020-12-04T12:19:03.312Z</time>
      </trkpt>
      <trkpt lat="44.50366" lon="6.10442">
        <ele>941.20001220703</ele>
        <time>2020-12-04T12:19:03.649Z</time>
      </trkpt>
      <trkpt lat="44.5036" lon="6.10438">
        <ele>942</ele>
        <time>2020-12-04T12:19:03.988Z</time>
      </trkpt>
      <trkpt lat="44.50357" lon="6.10436">
        <ele>942.40002441406</ele>
        <time>2020-12-04T12:19:04.328Z</time>
      </trkpt>
      <trkpt lat="44.5035" lon="6.10429">
        <ele>943.59997558594</ele>
        <time>2020-12-04T12:19:04.671Z</time>
      </trkpt>
      <trkpt lat="44.50344" lon="6.10425">
        <ele>945</ele>
        <time>2020-12-04T12:19:05.016Z</time>
      </trkpt>
      <trkpt lat="44.50339" lon="6.10421">
        <ele>946.20001220703</ele>
        <time>2020-12-04T12:19:05.362Z</time>
      </trkpt>
      <trkpt lat="44.50324" lon="6.10408">
        <ele>947.40002441406</ele>
        <time>2020-12-04T12:19:05.714Z</time>
      </trkpt>
      <trkpt lat="44.5031" lon="6.10395">
        <ele>948.40002441406</ele>
        <time>2020-12-04T12:19:06.071Z</time>
      </trkpt>
      <trkpt lat="44.50307" lon="6.1039">
        <ele>949.20001220703</ele>
        <time>2020-12-04T12:19:06.429Z</time>
      </trkpt>
      <trkpt lat="44.50303" lon="6.10386">
        <ele>949.40002441406</ele>
        <time>2020-12-04T12:19:06.789Z</time>
      </trkpt>
      <trkpt lat="44.50291" lon="6.10371">
        <ele>950.40002441406</ele>
        <time>2020-12-04T12:19:07.154Z</time>
      </trkpt>
      <trkpt lat="44.50279" lon="6.10356">
        <ele>952</ele>
        <time>2020-12-04T12:19:07.524Z</time>
      </trkpt>
      <trkpt lat="44.50275" lon="6.10351">
        <ele>952.40002441406</ele>
        <time>2020-12-04T12:19:07.895Z</time>
      </trkpt>
      <trkpt lat="44.5027" lon="6.10344">
        <ele>953</ele>
        <time>2020-12-04T12:19:08.268Z</time>
      </trkpt>
      <trkpt lat="44.50268" lon="6.10342">
        <ele>953.59997558594</ele>
        <time>2020-12-04T12:19:08.642Z</time>
      </trkpt>
      <trkpt lat="44.50262" lon="6.10331">
        <ele>954.20001220703</ele>
        <time>2020-12-04T12:19:09.019Z</time>
      </trkpt>
      <trkpt lat="44.50255" lon="6.10322">
        <ele>954.79998779297</ele>
        <time>2020-12-04T12:19:09.399Z</time>
      </trkpt>
      <trkpt lat="44.50249" lon="6.10314">
        <ele>955.59997558594</ele>
        <time>2020-12-04T12:19:09.781Z</time>
      </trkpt>
      <trkpt lat="44.50243" lon="6.10307">
        <ele>956.20001220703</ele>
        <time>2020-12-04T12:19:10.166Z</time>
      </trkpt>
      <trkpt lat="44.50241" lon="6.10305">
        <ele>956.59997558594</ele>
        <time>2020-12-04T12:19:10.552Z</time>
      </trkpt>
      <trkpt lat="44.50225" lon="6.1029">
        <ele>957</ele>
        <time>2020-12-04T12:19:10.943Z</time>
      </trkpt>
      <trkpt lat="44.50212" lon="6.10279">
        <ele>957.59997558594</ele>
        <time>2020-12-04T12:19:11.339Z</time>
      </trkpt>
      <trkpt lat="44.50197" lon="6.10261">
        <ele>957.79998779297</ele>
        <time>2020-12-04T12:19:11.741Z</time>
      </trkpt>
      <trkpt lat="44.50193" lon="6.10256">
        <ele>957.79998779297</ele>
        <time>2020-12-04T12:19:12.145Z</time>
      </trkpt>
      <trkpt lat="44.50193" lon="6.10253">
        <ele>957.79998779297</ele>
        <time>2020-12-04T12:19:12.549Z</time>
      </trkpt>
      <trkpt lat="44.50196" lon="6.10249">
        <ele>957.79998779297</ele>
        <time>2020-12-04T12:19:12.955Z</time>
      </trkpt>
      <trkpt lat="44.502" lon="6.10246">
        <ele>958</ele>
        <time>2020-12-04T12:19:13.362Z</time>
      </trkpt>
      <trkpt lat="44.50212" lon="6.10236">
        <ele>958.40002441406</ele>
        <time>2020-12-04T12:19:13.773Z</time>
      </trkpt>
      <trkpt lat="44.5022" lon="6.10232">
        <ele>958.59997558594</ele>
        <time>2020-12-04T12:19:14.187Z</time>
      </trkpt>
      <trkpt lat="44.50231" lon="6.10225">
        <ele>959.20001220703</ele>
        <time>2020-12-04T12:19:14.604Z</time>
      </trkpt>
      <trkpt lat="44.50239" lon="6.1022">
        <ele>959.79998779297</ele>
        <time>2020-12-04T12:19:15.024Z</time>
      </trkpt>
      <trkpt lat="44.50247" lon="6.10217">
        <ele>960.20001220703</ele>
        <time>2020-12-04T12:19:15.447Z</time>
      </trkpt>
      <trkpt lat="44.50257" lon="6.10215">
        <ele>961</ele>
        <time>2020-12-04T12:19:15.873Z</time>
      </trkpt>
      <trkpt lat="44.50263" lon="6.10216">
        <ele>961.20001220703</ele>
        <time>2020-12-04T12:19:16.301Z</time>
      </trkpt>
      <trkpt lat="44.50275" lon="6.10226">
        <ele>962</ele>
        <time>2020-12-04T12:19:16.733Z</time>
      </trkpt>
      <trkpt lat="44.50279" lon="6.10232">
        <ele>962.40002441406</ele>
        <time>2020-12-04T12:19:17.167Z</time>
      </trkpt>
      <trkpt lat="44.50291" lon="6.10254">
        <ele>962.59997558594</ele>
        <time>2020-12-04T12:19:17.607Z</time>
      </trkpt>
      <trkpt lat="44.50301" lon="6.10268">
        <ele>962.59997558594</ele>
        <time>2020-12-04T12:19:18.051Z</time>
      </trkpt>
      <trkpt lat="44.50303" lon="6.10271">
        <ele>962.59997558594</ele>
        <time>2020-12-04T12:19:18.496Z</time>
      </trkpt>
      <trkpt lat="44.50326" lon="6.10294">
        <ele>962.40002441406</ele>
        <time>2020-12-04T12:19:18.949Z</time>
      </trkpt>
      <trkpt lat="44.50329" lon="6.10296">
        <ele>962.20001220703</ele>
        <time>2020-12-04T12:19:19.404Z</time>
      </trkpt>
      <trkpt lat="44.50342" lon="6.10298">
        <ele>962.40002441406</ele>
        <time>2020-12-04T12:19:19.862Z</time>
      </trkpt>
      <trkpt lat="44.5037" lon="6.10298">
        <ele>961.79998779297</ele>
        <time>2020-12-04T12:19:20.329Z</time>
      </trkpt>
      <trkpt lat="44.5039" lon="6.10298">
        <ele>961.20001220703</ele>
        <time>2020-12-04T12:19:20.802Z</time>
      </trkpt>
      <trkpt lat="44.504" lon="6.10298">
        <ele>960.59997558594</ele>
        <time>2020-12-04T12:19:21.278Z</time>
      </trkpt>
      <trkpt lat="44.50416" lon="6.10297">
        <ele>960.20001220703</ele>
        <time>2020-12-04T12:19:21.759Z</time>
      </trkpt>
      <trkpt lat="44.50422" lon="6.10297">
        <ele>960</ele>
        <time>2020-12-04T12:19:22.242Z</time>
      </trkpt>
      <trkpt lat="44.50427" lon="6.10298">
        <ele>960</ele>
        <time>2020-12-04T12:19:22.726Z</time>
      </trkpt>
      <trkpt lat="44.5046" lon="6.10301">
        <ele>959.20001220703</ele>
        <time>2020-12-04T12:19:23.220Z</time>
      </trkpt>
      <trkpt lat="44.5047" lon="6.10301">
        <ele>959</ele>
        <time>2020-12-04T12:19:23.717Z</time>
      </trkpt>
      <trkpt lat="44.50486" lon="6.103">
        <ele>959</ele>
        <time>2020-12-04T12:19:24.219Z</time>
      </trkpt>
      <trkpt lat="44.50514" lon="6.10295">
        <ele>958.59997558594</ele>
        <time>2020-12-04T12:19:24.730Z</time>
      </trkpt>
      <trkpt lat="44.50519" lon="6.10295">
        <ele>958.59997558594</ele>
        <time>2020-12-04T12:19:25.242Z</time>
      </trkpt>
      <trkpt lat="44.50531" lon="6.10296">
        <ele>958.40002441406</ele>
        <time>2020-12-04T12:19:25.758Z</time>
      </trkpt>
      <trkpt lat="44.50542" lon="6.10298">
        <ele>958.20001220703</ele>
        <time>2020-12-04T12:19:26.277Z</time>
      </trkpt>
      <trkpt lat="44.50554" lon="6.10297">
        <ele>958</ele>
        <time>2020-12-04T12:19:26.800Z</time>
      </trkpt>
      <trkpt lat="44.50566" lon="6.10296">
        <ele>958</ele>
        <time>2020-12-04T12:19:27.326Z</time>
      </trkpt>
      <trkpt lat="44.50576" lon="6.10296">
        <ele>958</ele>
        <time>2020-12-04T12:19:27.855Z</time>
      </trkpt>
      <trkpt lat="44.50581" lon="6.10295">
        <ele>958</ele>
        <time>2020-12-04T12:19:28.386Z</time>
      </trkpt>
      <trkpt lat="44.5059" lon="6.10295">
        <ele>958.40002441406</ele>
        <time>2020-12-04T12:19:28.920Z</time>
      </trkpt>
      <trkpt lat="44.50603" lon="6.10296">
        <ele>959</ele>
        <time>2020-12-04T12:19:29.458Z</time>
      </trkpt>
      <trkpt lat="44.50607" lon="6.10297">
        <ele>959.20001220703</ele>
        <time>2020-12-04T12:19:29.997Z</time>
      </trkpt>
      <trkpt lat="44.50611" lon="6.10297">
        <ele>959.59997558594</ele>
        <time>2020-12-04T12:19:30.537Z</time>
      </trkpt>
      <trkpt lat="44.50619" lon="6.10298">
        <ele>960.20001220703</ele>
        <time>2020-12-04T12:19:31.080Z</time>
      </trkpt>
      <trkpt lat="44.50624" lon="6.10299">
        <ele>960.59997558594</ele>
        <time>2020-12-04T12:19:31.624Z</time>
      </trkpt>
      <trkpt lat="44.50627" lon="6.10299">
        <ele>960.79998779297</ele>
        <time>2020-12-04T12:19:32.169Z</time>
      </trkpt>
      <trkpt lat="44.50631" lon="6.10301">
        <ele>961.20001220703</ele>
        <time>2020-12-04T12:19:32.715Z</time>
      </trkpt>
      <trkpt lat="44.50639" lon="6.10302">
        <ele>961.79998779297</ele>
        <time>2020-12-04T12:19:33.264Z</time>
      </trkpt>
      <trkpt lat="44.50654" lon="6.10302">
        <ele>962.59997558594</ele>
        <time>2020-12-04T12:19:33.817Z</time>
      </trkpt>
      <trkpt lat="44.50658" lon="6.10302">
        <ele>962.79998779297</ele>
        <time>2020-12-04T12:19:34.371Z</time>
      </trkpt>
      <trkpt lat="44.50662" lon="6.10302">
        <ele>963</ele>
        <time>2020-12-04T12:19:34.927Z</time>
      </trkpt>
      <trkpt lat="44.50674" lon="6.10301">
        <ele>963.59997558594</ele>
        <time>2020-12-04T12:19:35.486Z</time>
      </trkpt>
      <trkpt lat="44.50678" lon="6.103">
        <ele>963.59997558594</ele>
        <time>2020-12-04T12:19:36.047Z</time>
      </trkpt>
      <trkpt lat="44.50686" lon="6.10298">
        <ele>964</ele>
        <time>2020-12-04T12:19:36.610Z</time>
      </trkpt>
      <trkpt lat="44.50709" lon="6.10295">
        <ele>965.20001220703</ele>
        <time>2020-12-04T12:19:37.180Z</time>
      </trkpt>
      <trkpt lat="44.50729" lon="6.10291">
        <ele>966.20001220703</ele>
        <time>2020-12-04T12:19:37.756Z</time>
      </trkpt>
      <trkpt lat="44.50736" lon="6.10289">
        <ele>966.79998779297</ele>
        <time>2020-12-04T12:19:38.334Z</time>
      </trkpt>
      <trkpt lat="44.50755" lon="6.10287">
        <ele>967.59997558594</ele>
        <time>2020-12-04T12:19:38.918Z</time>
      </trkpt>
      <trkpt lat="44.50766" lon="6.10286">
        <ele>968.20001220703</ele>
        <time>2020-12-04T12:19:39.505Z</time>
      </trkpt>
      <trkpt lat="44.50773" lon="6.10284">
        <ele>968.59997558594</ele>
        <time>2020-12-04T12:19:40.095Z</time>
      </trkpt>
      <trkpt lat="44.50781" lon="6.10282">
        <ele>969.40002441406</ele>
        <time>2020-12-04T12:19:40.687Z</time>
      </trkpt>
      <trkpt lat="44.50788" lon="6.1028">
        <ele>969.40002441406</ele>
        <time>2020-12-04T12:19:41.281Z</time>
      </trkpt>
      <trkpt lat="44.50802" lon="6.10275">
        <ele>969.79998779297</ele>
        <time>2020-12-04T12:19:41.880Z</time>
      </trkpt>
      <trkpt lat="44.50812" lon="6.10269">
        <ele>970.59997558594</ele>
        <time>2020-12-04T12:19:42.482Z</time>
      </trkpt>
      <trkpt lat="44.50823" lon="6.10261">
        <ele>971</ele>
        <time>2020-12-04T12:19:43.088Z</time>
      </trkpt>
      <trkpt lat="44.5084" lon="6.10252">
        <ele>971.79998779297</ele>
        <time>2020-12-04T12:19:43.699Z</time>
      </trkpt>
      <trkpt lat="44.50846" lon="6.10248">
        <ele>972.20001220703</ele>
        <time>2020-12-04T12:19:44.312Z</time>
      </trkpt>
      <trkpt lat="44.50859" lon="6.10243">
        <ele>973</ele>
        <time>2020-12-04T12:19:44.929Z</time>
      </trkpt>
      <trkpt lat="44.50865" lon="6.10241">
        <ele>973.40002441406</ele>
        <time>2020-12-04T12:19:45.548Z</time>
      </trkpt>
      <trkpt lat="44.50876" lon="6.10236">
        <ele>974</ele>
        <time>2020-12-04T12:19:46.171Z</time>
      </trkpt>
      <trkpt lat="44.5088" lon="6.10235">
        <ele>974.20001220703</ele>
        <time>2020-12-04T12:19:46.795Z</time>
      </trkpt>
      <trkpt lat="44.50898" lon="6.10229">
        <ele>975</ele>
        <time>2020-12-04T12:19:47.424Z</time>
      </trkpt>
      <trkpt lat="44.50901" lon="6.10228">
        <ele>975.20001220703</ele>
        <time>2020-12-04T12:19:48.054Z</time>
      </trkpt>
      <trkpt lat="44.50916" lon="6.10223">
        <ele>976.20001220703</ele>
        <time>2020-12-04T12:19:48.689Z</time>
      </trkpt>
      <trkpt lat="44.50919" lon="6.10222">
        <ele>976.40002441406</ele>
        <time>2020-12-04T12:19:49.325Z</time>
      </trkpt>
      <trkpt lat="44.50933" lon="6.10218">
        <ele>977.40002441406</ele>
        <time>2020-12-04T12:19:49.965Z</time>
      </trkpt>
      <trkpt lat="44.50936" lon="6.10217">
        <ele>977.79998779297</ele>
        <time>2020-12-04T12:19:50.606Z</time>
      </trkpt>
      <trkpt lat="44.50955" lon="6.10211">
        <ele>978.79998779297</ele>
        <time>2020-12-04T12:19:51.253Z</time>
      </trkpt>
      <trkpt lat="44.50967" lon="6.1021">
        <ele>979.20001220703</ele>
        <time>2020-12-04T12:19:51.904Z</time>
      </trkpt>
      <trkpt lat="44.50976" lon="6.10212">
        <ele>979.79998779297</ele>
        <time>2020-12-04T12:19:52.558Z</time>
      </trkpt>
      <trkpt lat="44.50983" lon="6.10212">
        <ele>980</ele>
        <time>2020-12-04T12:19:53.214Z</time>
      </trkpt>
      <trkpt lat="44.50998" lon="6.10216">
        <ele>980.79998779297</ele>
        <time>2020-12-04T12:19:53.874Z</time>
      </trkpt>
      <trkpt lat="44.51001" lon="6.10217">
        <ele>981</ele>
        <time>2020-12-04T12:19:54.535Z</time>
      </trkpt>
      <trkpt lat="44.51019" lon="6.10223">
        <ele>982</ele>
        <time>2020-12-04T12:19:55.202Z</time>
      </trkpt>
      <trkpt lat="44.51038" lon="6.10226">
        <ele>983</ele>
        <time>2020-12-04T12:19:55.875Z</time>
      </trkpt>
      <trkpt lat="44.51045" lon="6.10228">
        <ele>983.40002441406</ele>
        <time>2020-12-04T12:19:56.550Z</time>
      </trkpt>
      <trkpt lat="44.51058" lon="6.10232">
        <ele>983.79998779297</ele>
        <time>2020-12-04T12:19:57.229Z</time>
      </trkpt>
      <trkpt lat="44.5108" lon="6.10239">
        <ele>984.20001220703</ele>
        <time>2020-12-04T12:19:57.915Z</time>
      </trkpt>
      <trkpt lat="44.51083" lon="6.1024">
        <ele>984.40002441406</ele>
        <time>2020-12-04T12:19:58.602Z</time>
      </trkpt>
      <trkpt lat="44.51097" lon="6.10249">
        <ele>985.20001220703</ele>
        <time>2020-12-04T12:19:59.293Z</time>
      </trkpt>
      <trkpt lat="44.51106" lon="6.10255">
        <ele>985.59997558594</ele>
        <time>2020-12-04T12:19:59.987Z</time>
      </trkpt>
      <trkpt lat="44.51111" lon="6.1026">
        <ele>986</ele>
        <time>2020-12-04T12:20:00.683Z</time>
      </trkpt>
      <trkpt lat="44.51126" lon="6.10273">
        <ele>986.79998779297</ele>
        <time>2020-12-04T12:20:01.385Z</time>
      </trkpt>
      <trkpt lat="44.51128" lon="6.10276">
        <ele>986.79998779297</ele>
        <time>2020-12-04T12:20:02.088Z</time>
      </trkpt>
      <trkpt lat="44.5114" lon="6.10285">
        <ele>987.20001220703</ele>
        <time>2020-12-04T12:20:02.795Z</time>
      </trkpt>
      <trkpt lat="44.51142" lon="6.10285">
        <ele>987.20001220703</ele>
        <time>2020-12-04T12:20:03.502Z</time>
      </trkpt>
      <trkpt lat="44.51153" lon="6.10278">
        <ele>987.79998779297</ele>
        <time>2020-12-04T12:20:04.213Z</time>
      </trkpt>
      <trkpt lat="44.51159" lon="6.10269">
        <ele>988</ele>
        <time>2020-12-04T12:20:04.927Z</time>
      </trkpt>
      <trkpt lat="44.51161" lon="6.10266">
        <ele>988.20001220703</ele>
        <time>2020-12-04T12:20:05.642Z</time>
      </trkpt>
      <trkpt lat="44.51166" lon="6.10261">
        <ele>988.59997558594</ele>
        <time>2020-12-04T12:20:06.358Z</time>
      </trkpt>
      <trkpt lat="44.51178" lon="6.10248">
        <ele>989.20001220703</ele>
        <time>2020-12-04T12:20:07.079Z</time>
      </trkpt>
      <trkpt lat="44.51192" lon="6.10236">
        <ele>989.59997558594</ele>
        <time>2020-12-04T12:20:07.805Z</time>
      </trkpt>
      <trkpt lat="44.51206" lon="6.10225">
        <ele>989.79998779297</ele>
        <time>2020-12-04T12:20:08.536Z</time>
      </trkpt>
      <trkpt lat="44.51222" lon="6.10221">
        <ele>990</ele>
        <time>2020-12-04T12:20:09.272Z</time>
      </trkpt>
      <trkpt lat="44.51232" lon="6.10223">
        <ele>990.40002441406</ele>
        <time>2020-12-04T12:20:10.011Z</time>
      </trkpt>
      <trkpt lat="44.51242" lon="6.10224">
        <ele>990.79998779297</ele>
        <time>2020-12-04T12:20:10.753Z</time>
      </trkpt>
      <trkpt lat="44.51255" lon="6.10224">
        <ele>991.40002441406</ele>
        <time>2020-12-04T12:20:11.499Z</time>
      </trkpt>
      <trkpt lat="44.51267" lon="6.10222">
        <ele>992.59997558594</ele>
        <time>2020-12-04T12:20:12.249Z</time>
      </trkpt>
      <trkpt lat="44.51273" lon="6.10221">
        <ele>993.20001220703</ele>
        <time>2020-12-04T12:20:13.000Z</time>
      </trkpt>
      <trkpt lat="44.51282" lon="6.10219">
        <ele>994</ele>
        <time>2020-12-04T12:20:13.754Z</time>
      </trkpt>
      <trkpt lat="44.51291" lon="6.10216">
        <ele>994.40002441406</ele>
        <time>2020-12-04T12:20:14.511Z</time>
      </trkpt>
      <trkpt lat="44.513" lon="6.10214">
        <ele>995</ele>
        <time>2020-12-04T12:20:15.270Z</time>
      </trkpt>
      <trkpt lat="44.51309" lon="6.10213">
        <ele>995.79998779297</ele>
        <time>2020-12-04T12:20:16.032Z</time>
      </trkpt>
      <trkpt lat="44.51315" lon="6.10214">
        <ele>996.20001220703</ele>
        <time>2020-12-04T12:20:16.796Z</time>
      </trkpt>
      <trkpt lat="44.51325" lon="6.10214">
        <ele>997.20001220703</ele>
        <time>2020-12-04T12:20:17.563Z</time>
      </trkpt>
      <trkpt lat="44.5133" lon="6.10214">
        <ele>998</ele>
        <time>2020-12-04T12:20:18.332Z</time>
      </trkpt>
      <trkpt lat="44.51333" lon="6.10214">
        <ele>998.20001220703</ele>
        <time>2020-12-04T12:20:19.102Z</time>
      </trkpt>
      <trkpt lat="44.51345" lon="6.10215">
        <ele>999.40002441406</ele>
        <time>2020-12-04T12:20:19.875Z</time>
      </trkpt>
      <trkpt lat="44.51348" lon="6.10216">
        <ele>999.79998779297</ele>
        <time>2020-12-04T12:20:20.649Z</time>
      </trkpt>
      <trkpt lat="44.51354" lon="6.10216">
        <ele>1000.5999755859</ele>
        <time>2020-12-04T12:20:21.425Z</time>
      </trkpt>
      <trkpt lat="44.51365" lon="6.10215">
        <ele>1001.5999755859</ele>
        <time>2020-12-04T12:20:22.204Z</time>
      </trkpt>
      <trkpt lat="44.51373" lon="6.10216">
        <ele>1002.5999755859</ele>
        <time>2020-12-04T12:20:22.986Z</time>
      </trkpt>
      <trkpt lat="44.51384" lon="6.10218">
        <ele>1004</ele>
        <time>2020-12-04T12:20:23.771Z</time>
      </trkpt>
      <trkpt lat="44.51394" lon="6.10222">
        <ele>1005.200012207</ele>
        <time>2020-12-04T12:20:24.559Z</time>
      </trkpt>
      <trkpt lat="44.51397" lon="6.10223">
        <ele>1005.5999755859</ele>
        <time>2020-12-04T12:20:25.348Z</time>
      </trkpt>
      <trkpt lat="44.51405" lon="6.10228">
        <ele>1006.200012207</ele>
        <time>2020-12-04T12:20:26.140Z</time>
      </trkpt>
      <trkpt lat="44.51414" lon="6.10234">
        <ele>1007.200012207</ele>
        <time>2020-12-04T12:20:26.935Z</time>
      </trkpt>
      <trkpt lat="44.51426" lon="6.10243">
        <ele>1008.5999755859</ele>
        <time>2020-12-04T12:20:27.734Z</time>
      </trkpt>
      <trkpt lat="44.51428" lon="6.10244">
        <ele>1008.799987793</ele>
        <time>2020-12-04T12:20:28.534Z</time>
      </trkpt>
      <trkpt lat="44.51435" lon="6.1025">
        <ele>1009.5999755859</ele>
        <time>2020-12-04T12:20:29.336Z</time>
      </trkpt>
      <trkpt lat="44.5144" lon="6.10254">
        <ele>1010</ele>
        <time>2020-12-04T12:20:30.140Z</time>
      </trkpt>
      <trkpt lat="44.51454" lon="6.10263">
        <ele>1010.799987793</ele>
        <time>2020-12-04T12:20:30.949Z</time>
      </trkpt>
      <trkpt lat="44.51464" lon="6.10268">
        <ele>1012</ele>
        <time>2020-12-04T12:20:31.761Z</time>
      </trkpt>
      <trkpt lat="44.51469" lon="6.10272">
        <ele>1012.4000244141</ele>
        <time>2020-12-04T12:20:32.575Z</time>
      </trkpt>
      <trkpt lat="44.51475" lon="6.10275">
        <ele>1013.200012207</ele>
        <time>2020-12-04T12:20:33.390Z</time>
      </trkpt>
      <trkpt lat="44.51485" lon="6.10283">
        <ele>1014.200012207</ele>
        <time>2020-12-04T12:20:34.209Z</time>
      </trkpt>
      <trkpt lat="44.51487" lon="6.10285">
        <ele>1014.4000244141</ele>
        <time>2020-12-04T12:20:35.029Z</time>
      </trkpt>
      <trkpt lat="44.51498" lon="6.10294">
        <ele>1015.4000244141</ele>
        <time>2020-12-04T12:20:35.853Z</time>
      </trkpt>
      <trkpt lat="44.515" lon="6.10297">
        <ele>1015.5999755859</ele>
        <time>2020-12-04T12:20:36.678Z</time>
      </trkpt>
      <trkpt lat="44.51512" lon="6.10307">
        <ele>1016.5999755859</ele>
        <time>2020-12-04T12:20:37.507Z</time>
      </trkpt>
      <trkpt lat="44.51517" lon="6.10311">
        <ele>1017.200012207</ele>
        <time>2020-12-04T12:20:38.337Z</time>
      </trkpt>
      <trkpt lat="44.51523" lon="6.10316">
        <ele>1017.799987793</ele>
        <time>2020-12-04T12:20:39.169Z</time>
      </trkpt>
      <trkpt lat="44.51532" lon="6.10326">
        <ele>1018.5999755859</ele>
        <time>2020-12-04T12:20:40.005Z</time>
      </trkpt>
      <trkpt lat="44.51537" lon="6.10333">
        <ele>1019</ele>
        <time>2020-12-04T12:20:40.843Z</time>
      </trkpt>
      <trkpt lat="44.51546" lon="6.10344">
        <ele>1019.4000244141</ele>
        <time>2020-12-04T12:20:41.685Z</time>
      </trkpt>
      <trkpt lat="44.51557" lon="6.10357">
        <ele>1020</ele>
        <time>2020-12-04T12:20:42.531Z</time>
      </trkpt>
      <trkpt lat="44.51558" lon="6.10359">
        <ele>1020.200012207</ele>
        <time>2020-12-04T12:20:43.378Z</time>
      </trkpt>
      <trkpt lat="44.51571" lon="6.1037">
        <ele>1020.799987793</ele>
        <time>2020-12-04T12:20:44.229Z</time>
      </trkpt>
      <trkpt lat="44.51579" lon="6.10375">
        <ele>1021.200012207</ele>
        <time>2020-12-04T12:20:45.083Z</time>
      </trkpt>
      <trkpt lat="44.51587" lon="6.10381">
        <ele>1021.5999755859</ele>
        <time>2020-12-04T12:20:45.940Z</time>
      </trkpt>
      <trkpt lat="44.51593" lon="6.10385">
        <ele>1022.200012207</ele>
        <time>2020-12-04T12:20:46.799Z</time>
      </trkpt>
      <trkpt lat="44.51607" lon="6.10398">
        <ele>1022.799987793</ele>
        <time>2020-12-04T12:20:47.663Z</time>
      </trkpt>
      <trkpt lat="44.51617" lon="6.10408">
        <ele>1023.4000244141</ele>
        <time>2020-12-04T12:20:48.531Z</time>
      </trkpt>
      <trkpt lat="44.51623" lon="6.10412">
        <ele>1023.4000244141</ele>
        <time>2020-12-04T12:20:49.401Z</time>
      </trkpt>
      <trkpt lat="44.51636" lon="6.10425">
        <ele>1024</ele>
        <time>2020-12-04T12:20:50.275Z</time>
      </trkpt>
      <trkpt lat="44.51647" lon="6.10436">
        <ele>1024.4000244141</ele>
        <time>2020-12-04T12:20:51.153Z</time>
      </trkpt>
      <trkpt lat="44.51652" lon="6.10441">
        <ele>1024.5999755859</ele>
        <time>2020-12-04T12:20:52.033Z</time>
      </trkpt>
      <trkpt lat="44.51664" lon="6.10454">
        <ele>1025.5999755859</ele>
        <time>2020-12-04T12:20:52.918Z</time>
      </trkpt>
      <trkpt lat="44.51678" lon="6.10476">
        <ele>1026.8000488281</ele>
        <time>2020-12-04T12:20:53.809Z</time>
      </trkpt>
      <trkpt lat="44.51689" lon="6.10494">
        <ele>1027.1999511719</ele>
        <time>2020-12-04T12:20:54.705Z</time>
      </trkpt>
      <trkpt lat="44.51698" lon="6.10508">
        <ele>1027.8000488281</ele>
        <time>2020-12-04T12:20:55.606Z</time>
      </trkpt>
      <trkpt lat="44.51703" lon="6.10516">
        <ele>1028</ele>
        <time>2020-12-04T12:20:56.509Z</time>
      </trkpt>
      <trkpt lat="44.5172" lon="6.1054">
        <ele>1027.8000488281</ele>
        <time>2020-12-04T12:20:57.419Z</time>
      </trkpt>
      <trkpt lat="44.51734" lon="6.10555">
        <ele>1027.8000488281</ele>
        <time>2020-12-04T12:20:58.335Z</time>
      </trkpt>
      <trkpt lat="44.51755" lon="6.10569">
        <ele>1028.8000488281</ele>
        <time>2020-12-04T12:20:59.258Z</time>
      </trkpt>
      <trkpt lat="44.51758" lon="6.1057">
        <ele>1029</ele>
        <time>2020-12-04T12:21:00.182Z</time>
      </trkpt>
      <trkpt lat="44.51771" lon="6.1057">
        <ele>1029.5999755859</ele>
        <time>2020-12-04T12:21:01.109Z</time>
      </trkpt>
      <trkpt lat="44.51781" lon="6.10569">
        <ele>1030</ele>
        <time>2020-12-04T12:21:02.040Z</time>
      </trkpt>
      <trkpt lat="44.51792" lon="6.10568">
        <ele>1030.4000244141</ele>
        <time>2020-12-04T12:21:02.974Z</time>
      </trkpt>
      <trkpt lat="44.518" lon="6.10568">
        <ele>1031</ele>
        <time>2020-12-04T12:21:03.910Z</time>
      </trkpt>
      <trkpt lat="44.51809" lon="6.1057">
        <ele>1032.1999511719</ele>
        <time>2020-12-04T12:21:04.849Z</time>
      </trkpt>
      <trkpt lat="44.51812" lon="6.10571">
        <ele>1032.4000244141</ele>
        <time>2020-12-04T12:21:05.789Z</time>
      </trkpt>
      <trkpt lat="44.51822" lon="6.10571">
        <ele>1033.4000244141</ele>
        <time>2020-12-04T12:21:06.732Z</time>
      </trkpt>
      <trkpt lat="44.51829" lon="6.10568">
        <ele>1034.5999755859</ele>
        <time>2020-12-04T12:21:07.677Z</time>
      </trkpt>
      <trkpt lat="44.51835" lon="6.10565">
        <ele>1035.5999755859</ele>
        <time>2020-12-04T12:21:08.624Z</time>
      </trkpt>
      <trkpt lat="44.5184" lon="6.10564">
        <ele>1036</ele>
        <time>2020-12-04T12:21:09.573Z</time>
      </trkpt>
      <trkpt lat="44.51842" lon="6.10566">
        <ele>1036.1999511719</ele>
        <time>2020-12-04T12:21:10.522Z</time>
      </trkpt>
      <trkpt lat="44.51842" lon="6.10569">
        <ele>1036.4000244141</ele>
        <time>2020-12-04T12:21:11.472Z</time>
      </trkpt>
      <trkpt lat="44.5184" lon="6.10576">
        <ele>1037.4000244141</ele>
        <time>2020-12-04T12:21:12.424Z</time>
      </trkpt>
      <trkpt lat="44.51839" lon="6.10578">
        <ele>1037.8000488281</ele>
        <time>2020-12-04T12:21:13.376Z</time>
      </trkpt>
      <trkpt lat="44.51834" lon="6.10586">
        <ele>1038.4000244141</ele>
        <time>2020-12-04T12:21:14.331Z</time>
      </trkpt>
      <trkpt lat="44.51827" lon="6.10592">
        <ele>1039.1999511719</ele>
        <time>2020-12-04T12:21:15.288Z</time>
      </trkpt>
      <trkpt lat="44.51809" lon="6.1061">
        <ele>1040</ele>
        <time>2020-12-04T12:21:16.252Z</time>
      </trkpt>
      <trkpt lat="44.51807" lon="6.10612">
        <ele>1040.1999511719</ele>
        <time>2020-12-04T12:21:17.217Z</time>
      </trkpt>
      <trkpt lat="44.51795" lon="6.10623">
        <ele>1041.1999511719</ele>
        <time>2020-12-04T12:21:18.186Z</time>
      </trkpt>
      <trkpt lat="44.51792" lon="6.10625">
        <ele>1041.1999511719</ele>
        <time>2020-12-04T12:21:19.156Z</time>
      </trkpt>
      <trkpt lat="44.51775" lon="6.10634">
        <ele>1042.4000244141</ele>
        <time>2020-12-04T12:21:20.131Z</time>
      </trkpt>
      <trkpt lat="44.51772" lon="6.10636">
        <ele>1042.5999755859</ele>
        <time>2020-12-04T12:21:21.107Z</time>
      </trkpt>
      <trkpt lat="44.51756" lon="6.10648">
        <ele>1044</ele>
        <time>2020-12-04T12:21:22.089Z</time>
      </trkpt>
      <trkpt lat="44.51743" lon="6.10655">
        <ele>1045.1999511719</ele>
        <time>2020-12-04T12:21:23.075Z</time>
      </trkpt>
      <trkpt lat="44.51737" lon="6.10659">
        <ele>1045.5999755859</ele>
        <time>2020-12-04T12:21:24.063Z</time>
      </trkpt>
      <trkpt lat="44.51726" lon="6.10666">
        <ele>1046.4000244141</ele>
        <time>2020-12-04T12:21:25.055Z</time>
      </trkpt>
      <trkpt lat="44.51721" lon="6.1067">
        <ele>1046.8000488281</ele>
        <time>2020-12-04T12:21:26.048Z</time>
      </trkpt>
      <trkpt lat="44.51714" lon="6.10676">
        <ele>1047.5999755859</ele>
        <time>2020-12-04T12:21:27.044Z</time>
      </trkpt>
      <trkpt lat="44.51709" lon="6.10679">
        <ele>1048</ele>
        <time>2020-12-04T12:21:28.042Z</time>
      </trkpt>
      <trkpt lat="44.51698" lon="6.10689">
        <ele>1048.5999755859</ele>
        <time>2020-12-04T12:21:29.044Z</time>
      </trkpt>
      <trkpt lat="44.51695" lon="6.1069">
        <ele>1048.8000488281</ele>
        <time>2020-12-04T12:21:30.046Z</time>
      </trkpt>
      <trkpt lat="44.51686" lon="6.10699">
        <ele>1049.8000488281</ele>
        <time>2020-12-04T12:21:31.052Z</time>
      </trkpt>
      <trkpt lat="44.51693" lon="6.10701">
        <ele>1050.8000488281</ele>
        <time>2020-12-04T12:21:32.060Z</time>
      </trkpt>
      <trkpt lat="44.51695" lon="6.107">
        <ele>1050.8000488281</ele>
        <time>2020-12-04T12:21:33.069Z</time>
      </trkpt>
      <trkpt lat="44.51704" lon="6.10696">
        <ele>1051.4000244141</ele>
        <time>2020-12-04T12:21:34.081Z</time>
      </trkpt>
      <trkpt lat="44.51706" lon="6.10695">
        <ele>1051.5999755859</ele>
        <time>2020-12-04T12:21:35.093Z</time>
      </trkpt>
      <trkpt lat="44.51712" lon="6.10693">
        <ele>1052</ele>
        <time>2020-12-04T12:21:36.107Z</time>
      </trkpt>
      <trkpt lat="44.51723" lon="6.1069">
        <ele>1052.4000244141</ele>
        <time>2020-12-04T12:21:37.124Z</time>
      </trkpt>
      <trkpt lat="44.51737" lon="6.10691">
        <ele>1053</ele>
        <time>2020-12-04T12:21:38.146Z</time>
      </trkpt>
      <trkpt lat="44.51751" lon="6.10691">
        <ele>1054.4000244141</ele>
        <time>2020-12-04T12:21:39.172Z</time>
      </trkpt>
      <trkpt lat="44.51754" lon="6.10691">
        <ele>1054.5999755859</ele>
        <time>2020-12-04T12:21:40.199Z</time>
      </trkpt>
      <trkpt lat="44.51765" lon="6.10693">
        <ele>1055.4000244141</ele>
        <time>2020-12-04T12:21:41.229Z</time>
      </trkpt>
      <trkpt lat="44.51768" lon="6.10694">
        <ele>1055.5999755859</ele>
        <time>2020-12-04T12:21:42.260Z</time>
      </trkpt>
      <trkpt lat="44.51773" lon="6.10694">
        <ele>1056.4000244141</ele>
        <time>2020-12-04T12:21:43.293Z</time>
      </trkpt>
      <trkpt lat="44.51778" lon="6.10696">
        <ele>1057.1999511719</ele>
        <time>2020-12-04T12:21:44.327Z</time>
      </trkpt>
      <trkpt lat="44.51783" lon="6.10698">
        <ele>1057.8000488281</ele>
        <time>2020-12-04T12:21:45.363Z</time>
      </trkpt>
      <trkpt lat="44.51791" lon="6.107">
        <ele>1058.4000244141</ele>
        <time>2020-12-04T12:21:46.401Z</time>
      </trkpt>
      <trkpt lat="44.51796" lon="6.10702">
        <ele>1058.8000488281</ele>
        <time>2020-12-04T12:21:47.441Z</time>
      </trkpt>
      <trkpt lat="44.51803" lon="6.10702">
        <ele>1060.1999511719</ele>
        <time>2020-12-04T12:21:48.483Z</time>
      </trkpt>
      <trkpt lat="44.51808" lon="6.107">
        <ele>1060.8000488281</ele>
        <time>2020-12-04T12:21:49.527Z</time>
      </trkpt>
      <trkpt lat="44.51814" lon="6.10698">
        <ele>1061.5999755859</ele>
        <time>2020-12-04T12:21:50.572Z</time>
      </trkpt>
      <trkpt lat="44.51817" lon="6.10697">
        <ele>1062.1999511719</ele>
        <time>2020-12-04T12:21:51.618Z</time>
      </trkpt>
      <trkpt lat="44.51823" lon="6.10693">
        <ele>1062.5999755859</ele>
        <time>2020-12-04T12:21:52.666Z</time>
      </trkpt>
      <trkpt lat="44.51831" lon="6.10687">
        <ele>1063</ele>
        <time>2020-12-04T12:21:53.717Z</time>
      </trkpt>
      <trkpt lat="44.51843" lon="6.10677">
        <ele>1063.8000488281</ele>
        <time>2020-12-04T12:21:54.773Z</time>
      </trkpt>
      <trkpt lat="44.51856" lon="6.10666">
        <ele>1064.8000488281</ele>
        <time>2020-12-04T12:21:55.833Z</time>
      </trkpt>
      <trkpt lat="44.51859" lon="6.10663">
        <ele>1065</ele>
        <time>2020-12-04T12:21:56.894Z</time>
      </trkpt>
      <trkpt lat="44.51872" lon="6.10655">
        <ele>1065.4000244141</ele>
        <time>2020-12-04T12:21:57.960Z</time>
      </trkpt>
      <trkpt lat="44.51878" lon="6.10656">
        <ele>1065.8000488281</ele>
        <time>2020-12-04T12:21:59.027Z</time>
      </trkpt>
      <trkpt lat="44.51883" lon="6.1066">
        <ele>1066.1999511719</ele>
        <time>2020-12-04T12:22:00.096Z</time>
      </trkpt>
      <trkpt lat="44.51888" lon="6.10667">
        <ele>1067</ele>
        <time>2020-12-04T12:22:01.167Z</time>
      </trkpt>
      <trkpt lat="44.51892" lon="6.10676">
        <ele>1068.4000244141</ele>
        <time>2020-12-04T12:22:02.241Z</time>
      </trkpt>
      <trkpt lat="44.51897" lon="6.10684">
        <ele>1069.5999755859</ele>
        <time>2020-12-04T12:22:03.317Z</time>
      </trkpt>
      <trkpt lat="44.519" lon="6.10689">
        <ele>1070.1999511719</ele>
        <time>2020-12-04T12:22:04.394Z</time>
      </trkpt>
      <trkpt lat="44.51905" lon="6.10694">
        <ele>1071</ele>
        <time>2020-12-04T12:22:05.473Z</time>
      </trkpt>
      <trkpt lat="44.51908" lon="6.107">
        <ele>1072.4000244141</ele>
        <time>2020-12-04T12:22:06.554Z</time>
      </trkpt>
      <trkpt lat="44.51909" lon="6.10703">
        <ele>1073</ele>
        <time>2020-12-04T12:22:07.636Z</time>
      </trkpt>
      <trkpt lat="44.5191" lon="6.10709">
        <ele>1073.5999755859</ele>
        <time>2020-12-04T12:22:08.719Z</time>
      </trkpt>
      <trkpt lat="44.51909" lon="6.10715">
        <ele>1074</ele>
        <time>2020-12-04T12:22:09.803Z</time>
      </trkpt>
      <trkpt lat="44.519" lon="6.10725">
        <ele>1074.5999755859</ele>
        <time>2020-12-04T12:22:10.891Z</time>
      </trkpt>
      <trkpt lat="44.51898" lon="6.10728">
        <ele>1074.8000488281</ele>
        <time>2020-12-04T12:22:11.980Z</time>
      </trkpt>
      <trkpt lat="44.51887" lon="6.10738">
        <ele>1075.8000488281</ele>
        <time>2020-12-04T12:22:13.073Z</time>
      </trkpt>
      <trkpt lat="44.51884" lon="6.10739">
        <ele>1075.8000488281</ele>
        <time>2020-12-04T12:22:14.166Z</time>
      </trkpt>
      <trkpt lat="44.51874" lon="6.10745">
        <ele>1077.1999511719</ele>
        <time>2020-12-04T12:22:15.263Z</time>
      </trkpt>
      <trkpt lat="44.5187" lon="6.10749">
        <ele>1078.1999511719</ele>
        <time>2020-12-04T12:22:16.361Z</time>
      </trkpt>
      <trkpt lat="44.51864" lon="6.10756">
        <ele>1079.4000244141</ele>
        <time>2020-12-04T12:22:17.462Z</time>
      </trkpt>
      <trkpt lat="44.51858" lon="6.10763">
        <ele>1080.5999755859</ele>
        <time>2020-12-04T12:22:18.565Z</time>
      </trkpt>
      <trkpt lat="44.51853" lon="6.1077">
        <ele>1081.4000244141</ele>
        <time>2020-12-04T12:22:19.670Z</time>
      </trkpt>
      <trkpt lat="44.51852" lon="6.10773">
        <ele>1081.5999755859</ele>
        <time>2020-12-04T12:22:20.776Z</time>
      </trkpt>
      <trkpt lat="44.51845" lon="6.10787">
        <ele>1082.4000244141</ele>
        <time>2020-12-04T12:22:21.885Z</time>
      </trkpt>
      <trkpt lat="44.51842" lon="6.10794">
        <ele>1082.8000488281</ele>
        <time>2020-12-04T12:22:22.996Z</time>
      </trkpt>
      <trkpt lat="44.51839" lon="6.10805">
        <ele>1083.4000244141</ele>
        <time>2020-12-04T12:22:24.110Z</time>
      </trkpt>
      <trkpt lat="44.51837" lon="6.10813">
        <ele>1084</ele>
        <time>2020-12-04T12:22:25.226Z</time>
      </trkpt>
      <trkpt lat="44.51836" lon="6.10825">
        <ele>1085</ele>
        <time>2020-12-04T12:22:26.344Z</time>
      </trkpt>
      <trkpt lat="44.51836" lon="6.10842">
        <ele>1085.1999511719</ele>
        <time>2020-12-04T12:22:27.466Z</time>
      </trkpt>
      <trkpt lat="44.51836" lon="6.10851">
        <ele>1085.5999755859</ele>
        <time>2020-12-04T12:22:28.590Z</time>
      </trkpt>
      <trkpt lat="44.51831" lon="6.10888">
        <ele>1085.5999755859</ele>
        <time>2020-12-04T12:22:29.722Z</time>
      </trkpt>
      <trkpt lat="44.51824" lon="6.10921">
        <ele>1085.4000244141</ele>
        <time>2020-12-04T12:22:30.861Z</time>
      </trkpt>
      <trkpt lat="44.51818" lon="6.10944">
        <ele>1085.8000488281</ele>
        <time>2020-12-04T12:22:32.006Z</time>
      </trkpt>
      <trkpt lat="44.51815" lon="6.10955">
        <ele>1086.4000244141</ele>
        <time>2020-12-04T12:22:33.154Z</time>
      </trkpt>
      <trkpt lat="44.51813" lon="6.10964">
        <ele>1086.8000488281</ele>
        <time>2020-12-04T12:22:34.303Z</time>
      </trkpt>
      <trkpt lat="44.51809" lon="6.1098">
        <ele>1087.4000244141</ele>
        <time>2020-12-04T12:22:35.456Z</time>
      </trkpt>
      <trkpt lat="44.51808" lon="6.10989">
        <ele>1088</ele>
        <time>2020-12-04T12:22:36.611Z</time>
      </trkpt>
      <trkpt lat="44.51804" lon="6.11012">
        <ele>1088.4000244141</ele>
        <time>2020-12-04T12:22:37.771Z</time>
      </trkpt>
      <trkpt lat="44.51804" lon="6.11022">
        <ele>1088.5999755859</ele>
        <time>2020-12-04T12:22:38.933Z</time>
      </trkpt>
      <trkpt lat="44.51803" lon="6.11057">
        <ele>1088.5999755859</ele>
        <time>2020-12-04T12:22:40.103Z</time>
      </trkpt>
      <trkpt lat="44.518" lon="6.1108">
        <ele>1088.5999755859</ele>
        <time>2020-12-04T12:22:41.278Z</time>
      </trkpt>
      <trkpt lat="44.51799" lon="6.11086">
        <ele>1088.8000488281</ele>
        <time>2020-12-04T12:22:42.454Z</time>
      </trkpt>
      <trkpt lat="44.51798" lon="6.11098">
        <ele>1089.1999511719</ele>
        <time>2020-12-04T12:22:43.633Z</time>
      </trkpt>
      <trkpt lat="44.51796" lon="6.11121">
        <ele>1089.4000244141</ele>
        <time>2020-12-04T12:22:44.817Z</time>
      </trkpt>
      <trkpt lat="44.51795" lon="6.11126">
        <ele>1089.5999755859</ele>
        <time>2020-12-04T12:22:46.002Z</time>
      </trkpt>
      <trkpt lat="44.51792" lon="6.11147">
        <ele>1090.8000488281</ele>
        <time>2020-12-04T12:22:47.192Z</time>
      </trkpt>
      <trkpt lat="44.51792" lon="6.11157">
        <ele>1091.1999511719</ele>
        <time>2020-12-04T12:22:48.384Z</time>
      </trkpt>
      <trkpt lat="44.51793" lon="6.11173">
        <ele>1091.8000488281</ele>
        <time>2020-12-04T12:22:49.579Z</time>
      </trkpt>
      <trkpt lat="44.51794" lon="6.11178">
        <ele>1092</ele>
        <time>2020-12-04T12:22:50.776Z</time>
      </trkpt>
      <trkpt lat="44.51796" lon="6.11189">
        <ele>1092.4000244141</ele>
        <time>2020-12-04T12:22:51.975Z</time>
      </trkpt>
      <trkpt lat="44.51799" lon="6.11201">
        <ele>1092.4000244141</ele>
        <time>2020-12-04T12:22:53.177Z</time>
      </trkpt>
      <trkpt lat="44.518" lon="6.11208">
        <ele>1092.4000244141</ele>
        <time>2020-12-04T12:22:54.380Z</time>
      </trkpt>
      <trkpt lat="44.51805" lon="6.11238">
        <ele>1092</ele>
        <time>2020-12-04T12:22:55.590Z</time>
      </trkpt>
      <trkpt lat="44.51807" lon="6.11269">
        <ele>1091.8000488281</ele>
        <time>2020-12-04T12:22:56.807Z</time>
      </trkpt>
      <trkpt lat="44.51807" lon="6.11275">
        <ele>1091.8000488281</ele>
        <time>2020-12-04T12:22:58.025Z</time>
      </trkpt>
      <trkpt lat="44.51808" lon="6.11305">
        <ele>1092</ele>
        <time>2020-12-04T12:22:59.250Z</time>
      </trkpt>
      <trkpt lat="44.5181" lon="6.11335">
        <ele>1092.1999511719</ele>
        <time>2020-12-04T12:23:00.481Z</time>
      </trkpt>
      <trkpt lat="44.51811" lon="6.11346">
        <ele>1092.4000244141</ele>
        <time>2020-12-04T12:23:01.715Z</time>
      </trkpt>
      <trkpt lat="44.51815" lon="6.11385">
        <ele>1092</ele>
        <time>2020-12-04T12:23:02.957Z</time>
      </trkpt>
      <trkpt lat="44.51821" lon="6.11426">
        <ele>1091.4000244141</ele>
        <time>2020-12-04T12:23:04.208Z</time>
      </trkpt>
      <trkpt lat="44.5182" lon="6.11432">
        <ele>1091.1999511719</ele>
        <time>2020-12-04T12:23:05.460Z</time>
      </trkpt>
      <trkpt lat="44.51816" lon="6.11444">
        <ele>1090.8000488281</ele>
        <time>2020-12-04T12:23:06.715Z</time>
      </trkpt>
      <trkpt lat="44.5181" lon="6.11456">
        <ele>1090.4000244141</ele>
        <time>2020-12-04T12:23:07.974Z</time>
      </trkpt>
      <trkpt lat="44.51803" lon="6.11468">
        <ele>1089.5999755859</ele>
        <time>2020-12-04T12:23:09.236Z</time>
      </trkpt>
      <trkpt lat="44.51798" lon="6.11475">
        <ele>1089.1999511719</ele>
        <time>2020-12-04T12:23:10.500Z</time>
      </trkpt>
      <trkpt lat="44.51794" lon="6.11481">
        <ele>1088</ele>
        <time>2020-12-04T12:23:11.766Z</time>
      </trkpt>
      <trkpt lat="44.5178" lon="6.11494">
        <ele>1086.5999755859</ele>
        <time>2020-12-04T12:23:13.037Z</time>
      </trkpt>
      <trkpt lat="44.51776" lon="6.11497">
        <ele>1086</ele>
        <time>2020-12-04T12:23:14.309Z</time>
      </trkpt>
      <trkpt lat="44.51771" lon="6.11499">
        <ele>1085.5999755859</ele>
        <time>2020-12-04T12:23:15.583Z</time>
      </trkpt>
      <trkpt lat="44.51767" lon="6.11502">
        <ele>1085</ele>
        <time>2020-12-04T12:23:16.858Z</time>
      </trkpt>
      <trkpt lat="44.51764" lon="6.11505">
        <ele>1084.4000244141</ele>
        <time>2020-12-04T12:23:18.135Z</time>
      </trkpt>
      <trkpt lat="44.5176" lon="6.11512">
        <ele>1083.4000244141</ele>
        <time>2020-12-04T12:23:19.413Z</time>
      </trkpt>
      <trkpt lat="44.5176" lon="6.1152">
        <ele>1083</ele>
        <time>2020-12-04T12:23:20.693Z</time>
      </trkpt>
      <trkpt lat="44.51764" lon="6.11527">
        <ele>1082.1999511719</ele>
        <time>2020-12-04T12:23:21.975Z</time>
      </trkpt>
      <trkpt lat="44.51763" lon="6.11529">
        <ele>1081.8000488281</ele>
        <time>2020-12-04T12:23:23.257Z</time>
      </trkpt>
      <trkpt lat="44.5176" lon="6.1153">
        <ele>1081.1999511719</ele>
        <time>2020-12-04T12:23:24.540Z</time>
      </trkpt>
      <trkpt lat="44.51759" lon="6.1153">
        <ele>1081</ele>
        <time>2020-12-04T12:23:25.824Z</time>
      </trkpt>
      <trkpt lat="44.51753" lon="6.11531">
        <ele>1080.5999755859</ele>
        <time>2020-12-04T12:23:27.109Z</time>
      </trkpt>
      <trkpt lat="44.5175" lon="6.1153">
        <ele>1080.4000244141</ele>
        <time>2020-12-04T12:23:28.395Z</time>
      </trkpt>
      <trkpt lat="44.51738" lon="6.11529">
        <ele>1080.1999511719</ele>
        <time>2020-12-04T12:23:29.685Z</time>
      </trkpt>
      <trkpt lat="44.51733" lon="6.11529">
        <ele>1080</ele>
        <time>2020-12-04T12:23:30.976Z</time>
      </trkpt>
      <trkpt lat="44.51728" lon="6.1153">
        <ele>1079.8000488281</ele>
        <time>2020-12-04T12:23:32.269Z</time>
      </trkpt>
      <trkpt lat="44.51718" lon="6.11536">
        <ele>1079.4000244141</ele>
        <time>2020-12-04T12:23:33.565Z</time>
      </trkpt>
      <trkpt lat="44.51713" lon="6.11539">
        <ele>1079.4000244141</ele>
        <time>2020-12-04T12:23:34.863Z</time>
      </trkpt>
      <trkpt lat="44.51707" lon="6.11543">
        <ele>1079</ele>
        <time>2020-12-04T12:23:36.163Z</time>
      </trkpt>
      <trkpt lat="44.51682" lon="6.11556">
        <ele>1077.8000488281</ele>
        <time>2020-12-04T12:23:37.471Z</time>
      </trkpt>
      <trkpt lat="44.51675" lon="6.11558">
        <ele>1077.1999511719</ele>
        <time>2020-12-04T12:23:38.781Z</time>
      </trkpt>
      <trkpt lat="44.51666" lon="6.11559">
        <ele>1076.5999755859</ele>
        <time>2020-12-04T12:23:40.094Z</time>
      </trkpt>
      <trkpt lat="44.51658" lon="6.11558">
        <ele>1075.8000488281</ele>
        <time>2020-12-04T12:23:41.410Z</time>
      </trkpt>
      <trkpt lat="44.51649" lon="6.11555">
        <ele>1075</ele>
        <time>2020-12-04T12:23:42.728Z</time>
      </trkpt>
      <trkpt lat="44.51639" lon="6.11552">
        <ele>1074</ele>
        <time>2020-12-04T12:23:44.049Z</time>
      </trkpt>
      <trkpt lat="44.51619" lon="6.11549">
        <ele>1072.4000244141</ele>
        <time>2020-12-04T12:23:45.376Z</time>
      </trkpt>
      <trkpt lat="44.51599" lon="6.11552">
        <ele>1070.8000488281</ele>
        <time>2020-12-04T12:23:46.709Z</time>
      </trkpt>
      <trkpt lat="44.51589" lon="6.11553">
        <ele>1070.1999511719</ele>
        <time>2020-12-04T12:23:48.046Z</time>
      </trkpt>
      <trkpt lat="44.51579" lon="6.11553">
        <ele>1069.4000244141</ele>
        <time>2020-12-04T12:23:49.386Z</time>
      </trkpt>
      <trkpt lat="44.51558" lon="6.1155">
        <ele>1067.5999755859</ele>
        <time>2020-12-04T12:23:50.732Z</time>
      </trkpt>
      <trkpt lat="44.51548" lon="6.11547">
        <ele>1066.8000488281</ele>
        <time>2020-12-04T12:23:52.081Z</time>
      </trkpt>
      <trkpt lat="44.51539" lon="6.11543">
        <ele>1066</ele>
        <time>2020-12-04T12:23:53.433Z</time>
      </trkpt>
      <trkpt lat="44.51531" lon="6.11538">
        <ele>1065.5999755859</ele>
        <time>2020-12-04T12:23:54.788Z</time>
      </trkpt>
      <trkpt lat="44.51523" lon="6.11531">
        <ele>1064.8000488281</ele>
        <time>2020-12-04T12:23:56.146Z</time>
      </trkpt>
      <trkpt lat="44.51514" lon="6.11524">
        <ele>1064</ele>
        <time>2020-12-04T12:23:57.507Z</time>
      </trkpt>
      <trkpt lat="44.51505" lon="6.11516">
        <ele>1063</ele>
        <time>2020-12-04T12:23:58.871Z</time>
      </trkpt>
      <trkpt lat="44.51487" lon="6.115">
        <ele>1061.1999511719</ele>
        <time>2020-12-04T12:24:00.241Z</time>
      </trkpt>
      <trkpt lat="44.5148" lon="6.11493">
        <ele>1060</ele>
        <time>2020-12-04T12:24:01.614Z</time>
      </trkpt>
      <trkpt lat="44.51474" lon="6.11487">
        <ele>1058.8000488281</ele>
        <time>2020-12-04T12:24:02.989Z</time>
      </trkpt>
      <trkpt lat="44.51469" lon="6.11481">
        <ele>1057.4000244141</ele>
        <time>2020-12-04T12:24:04.366Z</time>
      </trkpt>
      <trkpt lat="44.51466" lon="6.11475">
        <ele>1056.5999755859</ele>
        <time>2020-12-04T12:24:05.745Z</time>
      </trkpt>
      <trkpt lat="44.51464" lon="6.11469">
        <ele>1055.8000488281</ele>
        <time>2020-12-04T12:24:07.125Z</time>
      </trkpt>
      <trkpt lat="44.51461" lon="6.11459">
        <ele>1054</ele>
        <time>2020-12-04T12:24:08.508Z</time>
      </trkpt>
      <trkpt lat="44.51461" lon="6.11455">
        <ele>1053.1999511719</ele>
        <time>2020-12-04T12:24:09.891Z</time>
      </trkpt>
      <trkpt lat="44.51461" lon="6.11453">
        <ele>1052.4000244141</ele>
        <time>2020-12-04T12:24:11.275Z</time>
      </trkpt>
      <trkpt lat="44.51459" lon="6.11449">
        <ele>1051.5999755859</ele>
        <time>2020-12-04T12:24:12.660Z</time>
      </trkpt>
      <trkpt lat="44.51459" lon="6.11448">
        <ele>1051.1999511719</ele>
        <time>2020-12-04T12:24:14.045Z</time>
      </trkpt>
      <trkpt lat="44.51456" lon="6.11448">
        <ele>1050.8000488281</ele>
        <time>2020-12-04T12:24:15.431Z</time>
      </trkpt>
      <trkpt lat="44.51449" lon="6.1145">
        <ele>1050.4000244141</ele>
        <time>2020-12-04T12:24:16.819Z</time>
      </trkpt>
      <trkpt lat="44.51447" lon="6.11449">
        <ele>1050.1999511719</ele>
        <time>2020-12-04T12:24:18.208Z</time>
      </trkpt>
      <trkpt lat="44.51444" lon="6.11445">
        <ele>1049.4000244141</ele>
        <time>2020-12-04T12:24:19.598Z</time>
      </trkpt>
      <trkpt lat="44.51443" lon="6.11443">
        <ele>1049</ele>
        <time>2020-12-04T12:24:20.989Z</time>
      </trkpt>
      <trkpt lat="44.5144" lon="6.11439">
        <ele>1047.5999755859</ele>
        <time>2020-12-04T12:24:22.381Z</time>
      </trkpt>
      <trkpt lat="44.51436" lon="6.11434">
        <ele>1046.1999511719</ele>
        <time>2020-12-04T12:24:23.774Z</time>
      </trkpt>
      <trkpt lat="44.51432" lon="6.1143">
        <ele>1045.1999511719</ele>
        <time>2020-12-04T12:24:25.169Z</time>
      </trkpt>
      <trkpt lat="44.5143" lon="6.1143">
        <ele>1044.4000244141</ele>
        <time>2020-12-04T12:24:26.565Z</time>
      </trkpt>
      <trkpt lat="44.51429" lon="6.11429">
        <ele>1043.4000244141</ele>
        <time>2020-12-04T12:24:27.961Z</time>
      </trkpt>
      <trkpt lat="44.51427" lon="6.11429">
        <ele>1043</ele>
        <time>2020-12-04T12:24:29.357Z</time>
      </trkpt>
      <trkpt lat="44.51422" lon="6.11428">
        <ele>1042.5999755859</ele>
        <time>2020-12-04T12:24:30.755Z</time>
      </trkpt>
      <trkpt lat="44.51421" lon="6.11428">
        <ele>1042</ele>
        <time>2020-12-04T12:24:32.154Z</time>
      </trkpt>
      <trkpt lat="44.51419" lon="6.11431">
        <ele>1041.5999755859</ele>
        <time>2020-12-04T12:24:33.553Z</time>
      </trkpt>
      <trkpt lat="44.51414" lon="6.11437">
        <ele>1040.5999755859</ele>
        <time>2020-12-04T12:24:34.954Z</time>
      </trkpt>
      <trkpt lat="44.51408" lon="6.11442">
        <ele>1039.1999511719</ele>
        <time>2020-12-04T12:24:36.358Z</time>
      </trkpt>
      <trkpt lat="44.51404" lon="6.11443">
        <ele>1038.4000244141</ele>
        <time>2020-12-04T12:24:37.763Z</time>
      </trkpt>
      <trkpt lat="44.51401" lon="6.11442">
        <ele>1037.5999755859</ele>
        <time>2020-12-04T12:24:39.169Z</time>
      </trkpt>
      <trkpt lat="44.51398" lon="6.1144">
        <ele>1036.8000488281</ele>
        <time>2020-12-04T12:24:40.576Z</time>
      </trkpt>
      <trkpt lat="44.51396" lon="6.11439">
        <ele>1036.4000244141</ele>
        <time>2020-12-04T12:24:41.983Z</time>
      </trkpt>
      <trkpt lat="44.51391" lon="6.11437">
        <ele>1034.8000488281</ele>
        <time>2020-12-04T12:24:43.392Z</time>
      </trkpt>
      <trkpt lat="44.51388" lon="6.11436">
        <ele>1034.1999511719</ele>
        <time>2020-12-04T12:24:44.802Z</time>
      </trkpt>
      <trkpt lat="44.51384" lon="6.11435">
        <ele>1033.1999511719</ele>
        <time>2020-12-04T12:24:46.213Z</time>
      </trkpt>
      <trkpt lat="44.51377" lon="6.11432">
        <ele>1031.8000488281</ele>
        <time>2020-12-04T12:24:47.626Z</time>
      </trkpt>
      <trkpt lat="44.5137" lon="6.11429">
        <ele>1030.4000244141</ele>
        <time>2020-12-04T12:24:49.041Z</time>
      </trkpt>
      <trkpt lat="44.51363" lon="6.11427">
        <ele>1029</ele>
        <time>2020-12-04T12:24:50.458Z</time>
      </trkpt>
      <trkpt lat="44.51356" lon="6.11427">
        <ele>1027.5999755859</ele>
        <time>2020-12-04T12:24:51.878Z</time>
      </trkpt>
      <trkpt lat="44.51353" lon="6.11427">
        <ele>1026.8000488281</ele>
        <time>2020-12-04T12:24:53.299Z</time>
      </trkpt>
      <trkpt lat="44.5135" lon="6.11428">
        <ele>1026</ele>
        <time>2020-12-04T12:24:54.721Z</time>
      </trkpt>
      <trkpt lat="44.51346" lon="6.1143">
        <ele>1024.4000244141</ele>
        <time>2020-12-04T12:24:56.144Z</time>
      </trkpt>
      <trkpt lat="44.51344" lon="6.11431">
        <ele>1023.5999755859</ele>
        <time>2020-12-04T12:24:57.567Z</time>
      </trkpt>
      <trkpt lat="44.51343" lon="6.11432">
        <ele>1022.5999755859</ele>
        <time>2020-12-04T12:24:58.991Z</time>
      </trkpt>
      <trkpt lat="44.51333" lon="6.11439">
        <ele>1021.4000244141</ele>
        <time>2020-12-04T12:25:00.418Z</time>
      </trkpt>
      <trkpt lat="44.51329" lon="6.11442">
        <ele>1019.799987793</ele>
        <time>2020-12-04T12:25:01.847Z</time>
      </trkpt>
      <trkpt lat="44.51324" lon="6.11445">
        <ele>1018.5999755859</ele>
        <time>2020-12-04T12:25:03.277Z</time>
      </trkpt>
      <trkpt lat="44.51322" lon="6.11447">
        <ele>1018</ele>
        <time>2020-12-04T12:25:04.708Z</time>
      </trkpt>
      <trkpt lat="44.5132" lon="6.11448">
        <ele>1017.200012207</ele>
        <time>2020-12-04T12:25:06.140Z</time>
      </trkpt>
      <trkpt lat="44.51314" lon="6.11449">
        <ele>1016</ele>
        <time>2020-12-04T12:25:07.573Z</time>
      </trkpt>
      <trkpt lat="44.51312" lon="6.11449">
        <ele>1015.5999755859</ele>
        <time>2020-12-04T12:25:09.007Z</time>
      </trkpt>
      <trkpt lat="44.5131" lon="6.1145">
        <ele>1015</ele>
        <time>2020-12-04T12:25:10.442Z</time>
      </trkpt>
      <trkpt lat="44.51304" lon="6.11458">
        <ele>1013.799987793</ele>
        <time>2020-12-04T12:25:11.879Z</time>
      </trkpt>
      <trkpt lat="44.51299" lon="6.1147">
        <ele>1012.5999755859</ele>
        <time>2020-12-04T12:25:13.319Z</time>
      </trkpt>
      <trkpt lat="44.51296" lon="6.11479">
        <ele>1011.200012207</ele>
        <time>2020-12-04T12:25:14.762Z</time>
      </trkpt>
      <trkpt lat="44.51294" lon="6.11484">
        <ele>1010.200012207</ele>
        <time>2020-12-04T12:25:16.206Z</time>
      </trkpt>
      <trkpt lat="44.51289" lon="6.11493">
        <ele>1008.799987793</ele>
        <time>2020-12-04T12:25:17.652Z</time>
      </trkpt>
      <trkpt lat="44.51287" lon="6.11498">
        <ele>1008</ele>
        <time>2020-12-04T12:25:19.099Z</time>
      </trkpt>
      <trkpt lat="44.51285" lon="6.11502">
        <ele>1007.4000244141</ele>
        <time>2020-12-04T12:25:20.547Z</time>
      </trkpt>
      <trkpt lat="44.51281" lon="6.1151">
        <ele>1006</ele>
        <time>2020-12-04T12:25:21.998Z</time>
      </trkpt>
      <trkpt lat="44.5128" lon="6.11512">
        <ele>1005.4000244141</ele>
        <time>2020-12-04T12:25:23.449Z</time>
      </trkpt>
      <trkpt lat="44.51278" lon="6.11515">
        <ele>1004.5999755859</ele>
        <time>2020-12-04T12:25:24.901Z</time>
      </trkpt>
      <trkpt lat="44.51274" lon="6.11526">
        <ele>1003</ele>
        <time>2020-12-04T12:25:26.356Z</time>
      </trkpt>
      <trkpt lat="44.51265" lon="6.11529">
        <ele>1001.799987793</ele>
        <time>2020-12-04T12:25:27.813Z</time>
      </trkpt>
      <trkpt lat="44.51261" lon="6.11532">
        <ele>1001.200012207</ele>
        <time>2020-12-04T12:25:29.272Z</time>
      </trkpt>
      <trkpt lat="44.51262" lon="6.11535">
        <ele>1000.799987793</ele>
        <time>2020-12-04T12:25:30.732Z</time>
      </trkpt>
      <trkpt lat="44.51265" lon="6.11537">
        <ele>1000.4000244141</ele>
        <time>2020-12-04T12:25:32.193Z</time>
      </trkpt>
      <trkpt lat="44.51274" lon="6.11541">
        <ele>1000</ele>
        <time>2020-12-04T12:25:33.657Z</time>
      </trkpt>
      <trkpt lat="44.51285" lon="6.11544">
        <ele>999.40002441406</ele>
        <time>2020-12-04T12:25:35.124Z</time>
      </trkpt>
      <trkpt lat="44.51296" lon="6.11547">
        <ele>998.40002441406</ele>
        <time>2020-12-04T12:25:36.595Z</time>
      </trkpt>
      <trkpt lat="44.51303" lon="6.11548">
        <ele>998.20001220703</ele>
        <time>2020-12-04T12:25:38.068Z</time>
      </trkpt>
      <trkpt lat="44.51322" lon="6.11557">
        <ele>996.79998779297</ele>
        <time>2020-12-04T12:25:39.547Z</time>
      </trkpt>
      <trkpt lat="44.51329" lon="6.1156">
        <ele>996.40002441406</ele>
        <time>2020-12-04T12:25:41.028Z</time>
      </trkpt>
      <trkpt lat="44.51341" lon="6.11568">
        <ele>995.40002441406</ele>
        <time>2020-12-04T12:25:42.513Z</time>
      </trkpt>
      <trkpt lat="44.51347" lon="6.1157">
        <ele>994.79998779297</ele>
        <time>2020-12-04T12:25:44.000Z</time>
      </trkpt>
      <trkpt lat="44.5136" lon="6.11574">
        <ele>994.40002441406</ele>
        <time>2020-12-04T12:25:45.491Z</time>
      </trkpt>
      <trkpt lat="44.51384" lon="6.11582">
        <ele>993.40002441406</ele>
        <time>2020-12-04T12:25:46.989Z</time>
      </trkpt>
      <trkpt lat="44.51389" lon="6.11586">
        <ele>993.40002441406</ele>
        <time>2020-12-04T12:25:48.489Z</time>
      </trkpt>
      <trkpt lat="44.51408" lon="6.11611">
        <ele>993.40002441406</ele>
        <time>2020-12-04T12:25:49.997Z</time>
      </trkpt>
      <trkpt lat="44.51415" lon="6.11639">
        <ele>992.79998779297</ele>
        <time>2020-12-04T12:25:51.511Z</time>
      </trkpt>
      <trkpt lat="44.51411" lon="6.11653">
        <ele>992.20001220703</ele>
        <time>2020-12-04T12:25:53.029Z</time>
      </trkpt>
      <trkpt lat="44.51403" lon="6.11682">
        <ele>991.79998779297</ele>
        <time>2020-12-04T12:25:54.553Z</time>
      </trkpt>
      <trkpt lat="44.51396" lon="6.11724">
        <ele>992</ele>
        <time>2020-12-04T12:25:56.087Z</time>
      </trkpt>
      <trkpt lat="44.51395" lon="6.11741">
        <ele>992.20001220703</ele>
        <time>2020-12-04T12:25:57.624Z</time>
      </trkpt>
      <trkpt lat="44.51395" lon="6.11747">
        <ele>992.40002441406</ele>
        <time>2020-12-04T12:25:59.163Z</time>
      </trkpt>
      <trkpt lat="44.51396" lon="6.11763">
        <ele>993.40002441406</ele>
        <time>2020-12-04T12:26:00.705Z</time>
      </trkpt>
      <trkpt lat="44.51397" lon="6.11773">
        <ele>993.79998779297</ele>
        <time>2020-12-04T12:26:02.249Z</time>
      </trkpt>
      <trkpt lat="44.51398" lon="6.11805">
        <ele>993.79998779297</ele>
        <time>2020-12-04T12:26:03.800Z</time>
      </trkpt>
      <trkpt lat="44.51398" lon="6.11811">
        <ele>993.59997558594</ele>
        <time>2020-12-04T12:26:05.353Z</time>
      </trkpt>
      <trkpt lat="44.51402" lon="6.11834">
        <ele>992.40002441406</ele>
        <time>2020-12-04T12:26:06.911Z</time>
      </trkpt>
      <trkpt lat="44.51403" lon="6.11841">
        <ele>992</ele>
        <time>2020-12-04T12:26:08.470Z</time>
      </trkpt>
      <trkpt lat="44.51405" lon="6.11856">
        <ele>991</ele>
        <time>2020-12-04T12:26:10.033Z</time>
      </trkpt>
      <trkpt lat="44.51406" lon="6.11864">
        <ele>990.40002441406</ele>
        <time>2020-12-04T12:26:11.597Z</time>
      </trkpt>
      <trkpt lat="44.51407" lon="6.11871">
        <ele>989.79998779297</ele>
        <time>2020-12-04T12:26:13.163Z</time>
      </trkpt>
      <trkpt lat="44.51412" lon="6.11896">
        <ele>988.79998779297</ele>
        <time>2020-12-04T12:26:14.734Z</time>
      </trkpt>
      <trkpt lat="44.51419" lon="6.11915">
        <ele>987.79998779297</ele>
        <time>2020-12-04T12:26:16.310Z</time>
      </trkpt>
      <trkpt lat="44.51421" lon="6.11925">
        <ele>987.40002441406</ele>
        <time>2020-12-04T12:26:17.888Z</time>
      </trkpt>
      <trkpt lat="44.51432" lon="6.11965">
        <ele>986.20001220703</ele>
        <time>2020-12-04T12:26:19.476Z</time>
      </trkpt>
      <trkpt lat="44.51438" lon="6.11984">
        <ele>985.79998779297</ele>
        <time>2020-12-04T12:26:21.068Z</time>
      </trkpt>
      <trkpt lat="44.51444" lon="6.12002">
        <ele>985.20001220703</ele>
        <time>2020-12-04T12:26:22.664Z</time>
      </trkpt>
      <trkpt lat="44.51456" lon="6.12038">
        <ele>984</ele>
        <time>2020-12-04T12:26:24.269Z</time>
      </trkpt>
      <trkpt lat="44.51459" lon="6.12048">
        <ele>983.59997558594</ele>
        <time>2020-12-04T12:26:25.876Z</time>
      </trkpt>
      <trkpt lat="44.51466" lon="6.12065">
        <ele>983</ele>
        <time>2020-12-04T12:26:27.488Z</time>
      </trkpt>
      <trkpt lat="44.51471" lon="6.1208">
        <ele>982</ele>
        <time>2020-12-04T12:26:29.103Z</time>
      </trkpt>
      <trkpt lat="44.51475" lon="6.12086">
        <ele>981.59997558594</ele>
        <time>2020-12-04T12:26:30.720Z</time>
      </trkpt>
      <trkpt lat="44.51493" lon="6.12115">
        <ele>980.20001220703</ele>
        <time>2020-12-04T12:26:32.345Z</time>
      </trkpt>
      <trkpt lat="44.51502" lon="6.12126">
        <ele>979.20001220703</ele>
        <time>2020-12-04T12:26:33.974Z</time>
      </trkpt>
      <trkpt lat="44.51503" lon="6.12134">
        <ele>978.40002441406</ele>
        <time>2020-12-04T12:26:35.605Z</time>
      </trkpt>
      <trkpt lat="44.51502" lon="6.12141">
        <ele>978.20001220703</ele>
        <time>2020-12-04T12:26:37.237Z</time>
      </trkpt>
      <trkpt lat="44.515" lon="6.12147">
        <ele>977.79998779297</ele>
        <time>2020-12-04T12:26:38.871Z</time>
      </trkpt>
      <trkpt lat="44.51495" lon="6.12168">
        <ele>977.40002441406</ele>
        <time>2020-12-04T12:26:40.510Z</time>
      </trkpt>
      <trkpt lat="44.51496" lon="6.12176">
        <ele>977.40002441406</ele>
        <time>2020-12-04T12:26:42.150Z</time>
      </trkpt>
      <trkpt lat="44.51502" lon="6.12198">
        <ele>977.59997558594</ele>
        <time>2020-12-04T12:26:43.796Z</time>
      </trkpt>
      <trkpt lat="44.51504" lon="6.12206">
        <ele>977.59997558594</ele>
        <time>2020-12-04T12:26:45.444Z</time>
      </trkpt>
      <trkpt lat="44.51517" lon="6.12243">
        <ele>977</ele>
        <time>2020-12-04T12:26:47.100Z</time>
      </trkpt>
      <trkpt lat="44.51525" lon="6.12255">
        <ele>976.79998779297</ele>
        <time>2020-12-04T12:26:48.760Z</time>
      </trkpt>
      <trkpt lat="44.51544" lon="6.12266">
        <ele>976.59997558594</ele>
        <time>2020-12-04T12:26:50.426Z</time>
      </trkpt>
      <trkpt lat="44.5155" lon="6.12267">
        <ele>976.40002441406</ele>
        <time>2020-12-04T12:26:52.094Z</time>
      </trkpt>
      <trkpt lat="44.51555" lon="6.12267">
        <ele>976.40002441406</ele>
        <time>2020-12-04T12:26:53.764Z</time>
      </trkpt>
      <trkpt lat="44.51569" lon="6.12277">
        <ele>976.20001220703</ele>
        <time>2020-12-04T12:26:55.438Z</time>
      </trkpt>
      <trkpt lat="44.5157" lon="6.12284">
        <ele>975.79998779297</ele>
        <time>2020-12-04T12:26:57.114Z</time>
      </trkpt>
      <trkpt lat="44.5157" lon="6.12291">
        <ele>975.40002441406</ele>
        <time>2020-12-04T12:26:58.791Z</time>
      </trkpt>
      <trkpt lat="44.51566" lon="6.12295">
        <ele>975</ele>
        <time>2020-12-04T12:27:00.470Z</time>
      </trkpt>
      <trkpt lat="44.51562" lon="6.12297">
        <ele>974.79998779297</ele>
        <time>2020-12-04T12:27:02.150Z</time>
      </trkpt>
      <trkpt lat="44.51544" lon="6.12305">
        <ele>973.79998779297</ele>
        <time>2020-12-04T12:27:03.836Z</time>
      </trkpt>
      <trkpt lat="44.51529" lon="6.1231">
        <ele>973.79998779297</ele>
        <time>2020-12-04T12:27:05.526Z</time>
      </trkpt>
      <trkpt lat="44.51525" lon="6.12313">
        <ele>973.79998779297</ele>
        <time>2020-12-04T12:27:07.218Z</time>
      </trkpt>
      <trkpt lat="44.51516" lon="6.1232">
        <ele>973.79998779297</ele>
        <time>2020-12-04T12:27:08.913Z</time>
      </trkpt>
      <trkpt lat="44.51513" lon="6.12327">
        <ele>973.79998779297</ele>
        <time>2020-12-04T12:27:10.610Z</time>
      </trkpt>
      <trkpt lat="44.51504" lon="6.12358">
        <ele>973.79998779297</ele>
        <time>2020-12-04T12:27:12.314Z</time>
      </trkpt>
      <trkpt lat="44.515" lon="6.12374">
        <ele>973.59997558594</ele>
        <time>2020-12-04T12:27:14.021Z</time>
      </trkpt>
      <trkpt lat="44.51497" lon="6.1239">
        <ele>973.59997558594</ele>
        <time>2020-12-04T12:27:15.732Z</time>
      </trkpt>
      <trkpt lat="44.51493" lon="6.12433">
        <ele>972.79998779297</ele>
        <time>2020-12-04T12:27:17.453Z</time>
      </trkpt>
      <trkpt lat="44.51493" lon="6.12469">
        <ele>972</ele>
        <time>2020-12-04T12:27:19.181Z</time>
      </trkpt>
      <trkpt lat="44.51493" lon="6.12479">
        <ele>971.59997558594</ele>
        <time>2020-12-04T12:27:20.911Z</time>
      </trkpt>
      <trkpt lat="44.51496" lon="6.12527">
        <ele>970.20001220703</ele>
        <time>2020-12-04T12:27:22.652Z</time>
      </trkpt>
      <trkpt lat="44.51498" lon="6.12537">
        <ele>970</ele>
        <time>2020-12-04T12:27:24.395Z</time>
      </trkpt>
      <trkpt lat="44.51505" lon="6.12568">
        <ele>969.40002441406</ele>
        <time>2020-12-04T12:27:26.145Z</time>
      </trkpt>
      <trkpt lat="44.5151" lon="6.12578">
        <ele>969</ele>
        <time>2020-12-04T12:27:27.898Z</time>
      </trkpt>
      <trkpt lat="44.51518" lon="6.12595">
        <ele>967.79998779297</ele>
        <time>2020-12-04T12:27:29.655Z</time>
      </trkpt>
      <trkpt lat="44.51522" lon="6.12604">
        <ele>967.20001220703</ele>
        <time>2020-12-04T12:27:31.415Z</time>
      </trkpt>
      <trkpt lat="44.51525" lon="6.12614">
        <ele>966.79998779297</ele>
        <time>2020-12-04T12:27:33.177Z</time>
      </trkpt>
      <trkpt lat="44.51529" lon="6.12623">
        <ele>966.40002441406</ele>
        <time>2020-12-04T12:27:34.941Z</time>
      </trkpt>
      <trkpt lat="44.51532" lon="6.12633">
        <ele>966</ele>
        <time>2020-12-04T12:27:36.708Z</time>
      </trkpt>
      <trkpt lat="44.51537" lon="6.12652">
        <ele>965.59997558594</ele>
        <time>2020-12-04T12:27:38.479Z</time>
      </trkpt>
      <trkpt lat="44.51534" lon="6.12657">
        <ele>965.59997558594</ele>
        <time>2020-12-04T12:27:40.251Z</time>
      </trkpt>
      <trkpt lat="44.51534" lon="6.12663">
        <ele>965.40002441406</ele>
        <time>2020-12-04T12:27:42.025Z</time>
      </trkpt>
      <trkpt lat="44.5153" lon="6.12681">
        <ele>965.79998779297</ele>
        <time>2020-12-04T12:27:43.803Z</time>
      </trkpt>
      <trkpt lat="44.51527" lon="6.12691">
        <ele>966</ele>
        <time>2020-12-04T12:27:45.583Z</time>
      </trkpt>
      <trkpt lat="44.51522" lon="6.12705">
        <ele>966.79998779297</ele>
        <time>2020-12-04T12:27:47.367Z</time>
      </trkpt>
      <trkpt lat="44.5152" lon="6.12708">
        <ele>967.20001220703</ele>
        <time>2020-12-04T12:27:49.151Z</time>
      </trkpt>
      <trkpt lat="44.51517" lon="6.12715">
        <ele>968.20001220703</ele>
        <time>2020-12-04T12:27:50.937Z</time>
      </trkpt>
      <trkpt lat="44.51512" lon="6.12724">
        <ele>969.20001220703</ele>
        <time>2020-12-04T12:27:52.726Z</time>
      </trkpt>
      <trkpt lat="44.51511" lon="6.12727">
        <ele>970.20001220703</ele>
        <time>2020-12-04T12:27:54.515Z</time>
      </trkpt>
      <trkpt lat="44.5151" lon="6.12731">
        <ele>970.40002441406</ele>
        <time>2020-12-04T12:27:56.305Z</time>
      </trkpt>
      <trkpt lat="44.51504" lon="6.12747">
        <ele>971.59997558594</ele>
        <time>2020-12-04T12:27:58.099Z</time>
      </trkpt>
      <trkpt lat="44.51504" lon="6.12751">
        <ele>971.79998779297</ele>
        <time>2020-12-04T12:27:59.894Z</time>
      </trkpt>
      <trkpt lat="44.51501" lon="6.12763">
        <ele>972.79998779297</ele>
        <time>2020-12-04T12:28:01.692Z</time>
      </trkpt>
      <trkpt lat="44.51498" lon="6.12768">
        <ele>973.40002441406</ele>
        <time>2020-12-04T12:28:03.491Z</time>
      </trkpt>
      <trkpt lat="44.51494" lon="6.12775">
        <ele>974</ele>
        <time>2020-12-04T12:28:05.292Z</time>
      </trkpt>
      <trkpt lat="44.51488" lon="6.12782">
        <ele>974.59997558594</ele>
        <time>2020-12-04T12:28:07.095Z</time>
      </trkpt>
      <trkpt lat="44.51485" lon="6.12787">
        <ele>975.20001220703</ele>
        <time>2020-12-04T12:28:08.900Z</time>
      </trkpt>
      <trkpt lat="44.5148" lon="6.12795">
        <ele>976.40002441406</ele>
        <time>2020-12-04T12:28:10.707Z</time>
      </trkpt>
      <trkpt lat="44.51474" lon="6.12806">
        <ele>977.40002441406</ele>
        <time>2020-12-04T12:28:12.517Z</time>
      </trkpt>
      <trkpt lat="44.51473" lon="6.12809">
        <ele>977.79998779297</ele>
        <time>2020-12-04T12:28:14.328Z</time>
      </trkpt>
      <trkpt lat="44.51471" lon="6.1281">
        <ele>978.20001220703</ele>
        <time>2020-12-04T12:28:16.140Z</time>
      </trkpt>
      <trkpt lat="44.5147" lon="6.12812">
        <ele>978.59997558594</ele>
        <time>2020-12-04T12:28:17.952Z</time>
      </trkpt>
      <trkpt lat="44.51466" lon="6.12816">
        <ele>979.20001220703</ele>
        <time>2020-12-04T12:28:19.766Z</time>
      </trkpt>
      <trkpt lat="44.51463" lon="6.1282">
        <ele>979.79998779297</ele>
        <time>2020-12-04T12:28:21.581Z</time>
      </trkpt>
      <trkpt lat="44.51462" lon="6.12823">
        <ele>980</ele>
        <time>2020-12-04T12:28:23.397Z</time>
      </trkpt>
      <trkpt lat="44.51457" lon="6.12835">
        <ele>980.79998779297</ele>
        <time>2020-12-04T12:28:25.215Z</time>
      </trkpt>
      <trkpt lat="44.51454" lon="6.12844">
        <ele>981.40002441406</ele>
        <time>2020-12-04T12:28:27.036Z</time>
      </trkpt>
      <trkpt lat="44.51452" lon="6.12847">
        <ele>981.79998779297</ele>
        <time>2020-12-04T12:28:28.858Z</time>
      </trkpt>
      <trkpt lat="44.51443" lon="6.12862">
        <ele>983.20001220703</ele>
        <time>2020-12-04T12:28:30.684Z</time>
      </trkpt>
      <trkpt lat="44.51436" lon="6.12868">
        <ele>984.20001220703</ele>
        <time>2020-12-04T12:28:32.512Z</time>
      </trkpt>
      <trkpt lat="44.51429" lon="6.1287">
        <ele>985.20001220703</ele>
        <time>2020-12-04T12:28:34.343Z</time>
      </trkpt>
      <trkpt lat="44.51425" lon="6.12872">
        <ele>985.40002441406</ele>
        <time>2020-12-04T12:28:36.175Z</time>
      </trkpt>
      <trkpt lat="44.51416" lon="6.12877">
        <ele>986.20001220703</ele>
        <time>2020-12-04T12:28:38.010Z</time>
      </trkpt>
      <trkpt lat="44.51406" lon="6.12885">
        <ele>987.40002441406</ele>
        <time>2020-12-04T12:28:39.848Z</time>
      </trkpt>
      <trkpt lat="44.51403" lon="6.12888">
        <ele>987.59997558594</ele>
        <time>2020-12-04T12:28:41.687Z</time>
      </trkpt>
      <trkpt lat="44.51401" lon="6.12897">
        <ele>988.20001220703</ele>
        <time>2020-12-04T12:28:43.528Z</time>
      </trkpt>
      <trkpt lat="44.514" lon="6.12902">
        <ele>988.20001220703</ele>
        <time>2020-12-04T12:28:45.370Z</time>
      </trkpt>
      <trkpt lat="44.51399" lon="6.12912">
        <ele>988.59997558594</ele>
        <time>2020-12-04T12:28:47.215Z</time>
      </trkpt>
      <trkpt lat="44.514" lon="6.12923">
        <ele>988.79998779297</ele>
        <time>2020-12-04T12:28:49.062Z</time>
      </trkpt>
      <trkpt lat="44.51402" lon="6.12932">
        <ele>989</ele>
        <time>2020-12-04T12:28:50.911Z</time>
      </trkpt>
      <trkpt lat="44.51402" lon="6.12937">
        <ele>989.20001220703</ele>
        <time>2020-12-04T12:28:52.761Z</time>
      </trkpt>
      <trkpt lat="44.51402" lon="6.12942">
        <ele>989.20001220703</ele>
        <time>2020-12-04T12:28:54.612Z</time>
      </trkpt>
      <trkpt lat="44.51402" lon="6.12949">
        <ele>989.20001220703</ele>
        <time>2020-12-04T12:28:56.465Z</time>
      </trkpt>
      <trkpt lat="44.51401" lon="6.12954">
        <ele>989.40002441406</ele>
        <time>2020-12-04T12:28:58.319Z</time>
      </trkpt>
      <trkpt lat="44.514" lon="6.12956">
        <ele>989.40002441406</ele>
        <time>2020-12-04T12:29:00.174Z</time>
      </trkpt>
      <trkpt lat="44.51399" lon="6.1296">
        <ele>989.79998779297</ele>
        <time>2020-12-04T12:29:02.029Z</time>
      </trkpt>
      <trkpt lat="44.51397" lon="6.12967">
        <ele>990.40002441406</ele>
        <time>2020-12-04T12:29:03.886Z</time>
      </trkpt>
      <trkpt lat="44.51396" lon="6.1297">
        <ele>990.59997558594</ele>
        <time>2020-12-04T12:29:05.744Z</time>
      </trkpt>
      <trkpt lat="44.51393" lon="6.12982">
        <ele>991.20001220703</ele>
        <time>2020-12-04T12:29:07.605Z</time>
      </trkpt>
      <trkpt lat="44.5139" lon="6.12997">
        <ele>991.79998779297</ele>
        <time>2020-12-04T12:29:09.469Z</time>
      </trkpt>
      <trkpt lat="44.51389" lon="6.13007">
        <ele>992.40002441406</ele>
        <time>2020-12-04T12:29:11.335Z</time>
      </trkpt>
      <trkpt lat="44.51388" lon="6.1301">
        <ele>992.20001220703</ele>
        <time>2020-12-04T12:29:13.202Z</time>
      </trkpt>
      <trkpt lat="44.51386" lon="6.13018">
        <ele>993</ele>
        <time>2020-12-04T12:29:15.071Z</time>
      </trkpt>
      <trkpt lat="44.51385" lon="6.13022">
        <ele>993.40002441406</ele>
        <time>2020-12-04T12:29:16.941Z</time>
      </trkpt>
      <trkpt lat="44.51385" lon="6.13032">
        <ele>994.40002441406</ele>
        <time>2020-12-04T12:29:18.813Z</time>
      </trkpt>
      <trkpt lat="44.51384" lon="6.13045">
        <ele>995.40002441406</ele>
        <time>2020-12-04T12:29:20.688Z</time>
      </trkpt>
      <trkpt lat="44.51382" lon="6.13057">
        <ele>996</ele>
        <time>2020-12-04T12:29:22.565Z</time>
      </trkpt>
      <trkpt lat="44.51382" lon="6.13061">
        <ele>996.40002441406</ele>
        <time>2020-12-04T12:29:24.443Z</time>
      </trkpt>
      <trkpt lat="44.5138" lon="6.13084">
        <ele>994.59997558594</ele>
        <time>2020-12-04T12:29:26.326Z</time>
      </trkpt>
      <trkpt lat="44.51377" lon="6.13095">
        <ele>997.59997558594</ele>
        <time>2020-12-04T12:29:28.212Z</time>
      </trkpt>
      <trkpt lat="44.51373" lon="6.13108">
        <ele>998.20001220703</ele>
        <time>2020-12-04T12:29:30.101Z</time>
      </trkpt>
      <trkpt lat="44.51372" lon="6.13112">
        <ele>998.59997558594</ele>
        <time>2020-12-04T12:29:31.991Z</time>
      </trkpt>
      <trkpt lat="44.51364" lon="6.13119">
        <ele>999.20001220703</ele>
        <time>2020-12-04T12:29:33.884Z</time>
      </trkpt>
      <trkpt lat="44.51361" lon="6.1312">
        <ele>999.59997558594</ele>
        <time>2020-12-04T12:29:35.777Z</time>
      </trkpt>
      <trkpt lat="44.5135" lon="6.13115">
        <ele>1001</ele>
        <time>2020-12-04T12:29:37.674Z</time>
      </trkpt>
      <trkpt lat="44.51342" lon="6.13115">
        <ele>1001.799987793</ele>
        <time>2020-12-04T12:29:39.573Z</time>
      </trkpt>
      <trkpt lat="44.51336" lon="6.13117">
        <ele>1002.799987793</ele>
        <time>2020-12-04T12:29:41.474Z</time>
      </trkpt>
      <trkpt lat="44.5132" lon="6.13116">
        <ele>1003.5999755859</ele>
        <time>2020-12-04T12:29:43.380Z</time>
      </trkpt>
      <trkpt lat="44.513" lon="6.13114">
        <ele>1004.200012207</ele>
        <time>2020-12-04T12:29:45.292Z</time>
      </trkpt>
      <trkpt lat="44.51298" lon="6.13114">
        <ele>1004.5999755859</ele>
        <time>2020-12-04T12:29:47.205Z</time>
      </trkpt>
      <trkpt lat="44.51294" lon="6.13111">
        <ele>1004.4000244141</ele>
        <time>2020-12-04T12:29:49.119Z</time>
      </trkpt>
      <trkpt lat="44.51293" lon="6.13107">
        <ele>1004.5999755859</ele>
        <time>2020-12-04T12:29:51.034Z</time>
      </trkpt>
      <trkpt lat="44.51288" lon="6.13098">
        <ele>1005.4000244141</ele>
        <time>2020-12-04T12:29:52.952Z</time>
      </trkpt>
      <trkpt lat="44.51287" lon="6.13094">
        <ele>1005.5999755859</ele>
        <time>2020-12-04T12:29:54.870Z</time>
      </trkpt>
      <trkpt lat="44.51285" lon="6.13077">
        <ele>1006.4000244141</ele>
        <time>2020-12-04T12:29:56.792Z</time>
      </trkpt>
      <trkpt lat="44.51283" lon="6.1306">
        <ele>1007.200012207</ele>
        <time>2020-12-04T12:29:58.718Z</time>
      </trkpt>
      <trkpt lat="44.51283" lon="6.13057">
        <ele>1007.4000244141</ele>
        <time>2020-12-04T12:30:00.645Z</time>
      </trkpt>
      <trkpt lat="44.51283" lon="6.13042">
        <ele>1008.200012207</ele>
        <time>2020-12-04T12:30:02.575Z</time>
      </trkpt>
      <trkpt lat="44.51284" lon="6.1304">
        <ele>1008.5999755859</ele>
        <time>2020-12-04T12:30:04.505Z</time>
      </trkpt>
      <trkpt lat="44.51288" lon="6.13031">
        <ele>1009.799987793</ele>
        <time>2020-12-04T12:30:06.438Z</time>
      </trkpt>
      <trkpt lat="44.51291" lon="6.13017">
        <ele>1010.5999755859</ele>
        <time>2020-12-04T12:30:08.374Z</time>
      </trkpt>
      <trkpt lat="44.51291" lon="6.13014">
        <ele>1010.799987793</ele>
        <time>2020-12-04T12:30:10.311Z</time>
      </trkpt>
      <trkpt lat="44.51292" lon="6.13008">
        <ele>1011.200012207</ele>
        <time>2020-12-04T12:30:12.249Z</time>
      </trkpt>
      <trkpt lat="44.51292" lon="6.13006">
        <ele>1011.4000244141</ele>
        <time>2020-12-04T12:30:14.187Z</time>
      </trkpt>
      <trkpt lat="44.51291" lon="6.13005">
        <ele>1011.799987793</ele>
        <time>2020-12-04T12:30:16.125Z</time>
      </trkpt>
      <trkpt lat="44.5129" lon="6.13">
        <ele>1012.4000244141</ele>
        <time>2020-12-04T12:30:18.065Z</time>
      </trkpt>
      <trkpt lat="44.51287" lon="6.12997">
        <ele>1012.5999755859</ele>
        <time>2020-12-04T12:30:20.006Z</time>
      </trkpt>
      <trkpt lat="44.51285" lon="6.12995">
        <ele>1012.799987793</ele>
        <time>2020-12-04T12:30:21.947Z</time>
      </trkpt>
      <trkpt lat="44.51282" lon="6.12988">
        <ele>1013.799987793</ele>
        <time>2020-12-04T12:30:23.890Z</time>
      </trkpt>
      <trkpt lat="44.51282" lon="6.12984">
        <ele>1014</ele>
        <time>2020-12-04T12:30:25.834Z</time>
      </trkpt>
      <trkpt lat="44.51278" lon="6.12976">
        <ele>1015.200012207</ele>
        <time>2020-12-04T12:30:27.780Z</time>
      </trkpt>
      <trkpt lat="44.51275" lon="6.12971">
        <ele>1015.5999755859</ele>
        <time>2020-12-04T12:30:29.727Z</time>
      </trkpt>
      <trkpt lat="44.51273" lon="6.12969">
        <ele>1016</ele>
        <time>2020-12-04T12:30:31.675Z</time>
      </trkpt>
      <trkpt lat="44.51265" lon="6.12958">
        <ele>1016.799987793</ele>
        <time>2020-12-04T12:30:33.626Z</time>
      </trkpt>
      <trkpt lat="44.51264" lon="6.12954">
        <ele>1017.200012207</ele>
        <time>2020-12-04T12:30:35.579Z</time>
      </trkpt>
      <trkpt lat="44.51263" lon="6.12949">
        <ele>1017.4000244141</ele>
        <time>2020-12-04T12:30:37.533Z</time>
      </trkpt>
      <trkpt lat="44.51264" lon="6.12941">
        <ele>1017.5999755859</ele>
        <time>2020-12-04T12:30:39.488Z</time>
      </trkpt>
      <trkpt lat="44.5127" lon="6.12929">
        <ele>1018.200012207</ele>
        <time>2020-12-04T12:30:41.447Z</time>
      </trkpt>
      <trkpt lat="44.51272" lon="6.12925">
        <ele>1018.5999755859</ele>
        <time>2020-12-04T12:30:43.407Z</time>
      </trkpt>
      <trkpt lat="44.51274" lon="6.12918">
        <ele>1019.200012207</ele>
        <time>2020-12-04T12:30:45.368Z</time>
      </trkpt>
      <trkpt lat="44.51276" lon="6.12904">
        <ele>1019.799987793</ele>
        <time>2020-12-04T12:30:47.332Z</time>
      </trkpt>
      <trkpt lat="44.51276" lon="6.12898">
        <ele>1020.4000244141</ele>
        <time>2020-12-04T12:30:49.298Z</time>
      </trkpt>
      <trkpt lat="44.51276" lon="6.12887">
        <ele>1020.799987793</ele>
        <time>2020-12-04T12:30:51.266Z</time>
      </trkpt>
      <trkpt lat="44.51274" lon="6.12873">
        <ele>1021.4000244141</ele>
        <time>2020-12-04T12:30:53.237Z</time>
      </trkpt>
      <trkpt lat="44.51273" lon="6.12869">
        <ele>1021.799987793</ele>
        <time>2020-12-04T12:30:55.209Z</time>
      </trkpt>
      <trkpt lat="44.51271" lon="6.12858">
        <ele>1022.4000244141</ele>
        <time>2020-12-04T12:30:57.184Z</time>
      </trkpt>
      <trkpt lat="44.51267" lon="6.12849">
        <ele>1023</ele>
        <time>2020-12-04T12:30:59.161Z</time>
      </trkpt>
      <trkpt lat="44.51266" lon="6.12845">
        <ele>1023.4000244141</ele>
        <time>2020-12-04T12:31:01.139Z</time>
      </trkpt>
      <trkpt lat="44.51265" lon="6.12842">
        <ele>1023.799987793</ele>
        <time>2020-12-04T12:31:03.117Z</time>
      </trkpt>
      <trkpt lat="44.5126" lon="6.12832">
        <ele>1024.4000244141</ele>
        <time>2020-12-04T12:31:05.098Z</time>
      </trkpt>
      <trkpt lat="44.51257" lon="6.12825">
        <ele>1024.8000488281</ele>
        <time>2020-12-04T12:31:07.081Z</time>
      </trkpt>
      <trkpt lat="44.51255" lon="6.12819">
        <ele>1025.1999511719</ele>
        <time>2020-12-04T12:31:09.065Z</time>
      </trkpt>
      <trkpt lat="44.51251" lon="6.12809">
        <ele>1025.8000488281</ele>
        <time>2020-12-04T12:31:11.052Z</time>
      </trkpt>
      <trkpt lat="44.5125" lon="6.12805">
        <ele>1026</ele>
        <time>2020-12-04T12:31:13.040Z</time>
      </trkpt>
      <trkpt lat="44.51245" lon="6.1279">
        <ele>1027.4000244141</ele>
        <time>2020-12-04T12:31:15.031Z</time>
      </trkpt>
      <trkpt lat="44.51239" lon="6.1278">
        <ele>1028.5999755859</ele>
        <time>2020-12-04T12:31:17.025Z</time>
      </trkpt>
      <trkpt lat="44.51237" lon="6.12777">
        <ele>1028.5999755859</ele>
        <time>2020-12-04T12:31:19.020Z</time>
      </trkpt>
      <trkpt lat="44.51232" lon="6.12772">
        <ele>1029.5999755859</ele>
        <time>2020-12-04T12:31:21.017Z</time>
      </trkpt>
      <trkpt lat="44.51231" lon="6.1277">
        <ele>1030</ele>
        <time>2020-12-04T12:31:23.014Z</time>
      </trkpt>
      <trkpt lat="44.51223" lon="6.1276">
        <ele>1030.8000488281</ele>
        <time>2020-12-04T12:31:25.015Z</time>
      </trkpt>
      <trkpt lat="44.51218" lon="6.12758">
        <ele>1031.4000244141</ele>
        <time>2020-12-04T12:31:27.017Z</time>
      </trkpt>
      <trkpt lat="44.51212" lon="6.12751">
        <ele>1032</ele>
        <time>2020-12-04T12:31:29.021Z</time>
      </trkpt>
      <trkpt lat="44.51202" lon="6.12737">
        <ele>1032.5999755859</ele>
        <time>2020-12-04T12:31:31.030Z</time>
      </trkpt>
      <trkpt lat="44.51197" lon="6.12733">
        <ele>1032.5999755859</ele>
        <time>2020-12-04T12:31:33.041Z</time>
      </trkpt>
      <trkpt lat="44.51194" lon="6.1273">
        <ele>1032.5999755859</ele>
        <time>2020-12-04T12:31:35.053Z</time>
      </trkpt>
      <trkpt lat="44.51192" lon="6.12725">
        <ele>1032.5999755859</ele>
        <time>2020-12-04T12:31:37.066Z</time>
      </trkpt>
      <trkpt lat="44.51186" lon="6.12714">
        <ele>1032</ele>
        <time>2020-12-04T12:31:39.082Z</time>
      </trkpt>
      <trkpt lat="44.51181" lon="6.12708">
        <ele>1031.5999755859</ele>
        <time>2020-12-04T12:31:41.100Z</time>
      </trkpt>
      <trkpt lat="44.51169" lon="6.12695">
        <ele>1031.1999511719</ele>
        <time>2020-12-04T12:31:43.123Z</time>
      </trkpt>
      <trkpt lat="44.51159" lon="6.12686">
        <ele>1031</ele>
        <time>2020-12-04T12:31:45.149Z</time>
      </trkpt>
      <trkpt lat="44.51157" lon="6.12687">
        <ele>1031</ele>
        <time>2020-12-04T12:31:47.176Z</time>
      </trkpt>
      <trkpt lat="44.5115" lon="6.12686">
        <ele>1030.8000488281</ele>
        <time>2020-12-04T12:31:49.205Z</time>
      </trkpt>
      <trkpt lat="44.51148" lon="6.12684">
        <ele>1030.8000488281</ele>
        <time>2020-12-04T12:31:51.235Z</time>
      </trkpt>
      <trkpt lat="44.51147" lon="6.12684">
        <ele>1030.8000488281</ele>
        <time>2020-12-04T12:31:53.265Z</time>
      </trkpt>
      <trkpt lat="44.51145" lon="6.12682">
        <ele>1030.8000488281</ele>
        <time>2020-12-04T12:31:55.296Z</time>
      </trkpt>
      <trkpt lat="44.51119" lon="6.12734">
        <ele>1045.8000488281</ele>
        <time>2020-12-04T12:31:57.340Z</time>
      </trkpt>
      <trkpt lat="44.5112" lon="6.12738">
        <ele>1046.1999511719</ele>
        <time>2020-12-04T12:31:59.385Z</time>
      </trkpt>
      <trkpt lat="44.5112" lon="6.12741">
        <ele>1046.5999755859</ele>
        <time>2020-12-04T12:32:01.431Z</time>
      </trkpt>
      <trkpt lat="44.51116" lon="6.12883">
        <ele>1064</ele>
        <time>2020-12-04T12:32:03.508Z</time>
      </trkpt>
      <trkpt lat="44.51117" lon="6.1289">
        <ele>1064.1999511719</ele>
        <time>2020-12-04T12:32:05.586Z</time>
      </trkpt>
      <trkpt lat="44.5112" lon="6.12908">
        <ele>1064.4000244141</ele>
        <time>2020-12-04T12:32:07.668Z</time>
      </trkpt>
      <trkpt lat="44.51121" lon="6.12913">
        <ele>1064.5999755859</ele>
        <time>2020-12-04T12:32:09.751Z</time>
      </trkpt>
      <trkpt lat="44.51122" lon="6.1292">
        <ele>1064.8000488281</ele>
        <time>2020-12-04T12:32:11.836Z</time>
      </trkpt>
      <trkpt lat="44.51125" lon="6.12926">
        <ele>1065</ele>
        <time>2020-12-04T12:32:13.922Z</time>
      </trkpt>
      <trkpt lat="44.51126" lon="6.12929">
        <ele>1065.5999755859</ele>
        <time>2020-12-04T12:32:16.009Z</time>
      </trkpt>
      <trkpt lat="44.51123" lon="6.12958">
        <ele>1066.5999755859</ele>
        <time>2020-12-04T12:32:18.103Z</time>
      </trkpt>
      <trkpt lat="44.5112" lon="6.12973">
        <ele>1066.5999755859</ele>
        <time>2020-12-04T12:32:20.200Z</time>
      </trkpt>
      <trkpt lat="44.51119" lon="6.12993">
        <ele>1067</ele>
        <time>2020-12-04T12:32:22.301Z</time>
      </trkpt>
      <trkpt lat="44.51119" lon="6.13002">
        <ele>1067.1999511719</ele>
        <time>2020-12-04T12:32:24.404Z</time>
      </trkpt>
      <trkpt lat="44.51121" lon="6.13006">
        <ele>1067.4000244141</ele>
        <time>2020-12-04T12:32:26.508Z</time>
      </trkpt>
      <trkpt lat="44.51138" lon="6.13051">
        <ele>1067.8000488281</ele>
        <time>2020-12-04T12:32:28.623Z</time>
      </trkpt>
      <trkpt lat="44.51139" lon="6.13062">
        <ele>1067.8000488281</ele>
        <time>2020-12-04T12:32:30.741Z</time>
      </trkpt>
      <trkpt lat="44.51143" lon="6.1309">
        <ele>1068</ele>
        <time>2020-12-04T12:32:32.865Z</time>
      </trkpt>
      <trkpt lat="44.51144" lon="6.13097">
        <ele>1068</ele>
        <time>2020-12-04T12:32:34.991Z</time>
      </trkpt>
      <trkpt lat="44.51144" lon="6.13131">
        <ele>1067.4000244141</ele>
        <time>2020-12-04T12:32:37.124Z</time>
      </trkpt>
      <trkpt lat="44.51143" lon="6.13136">
        <ele>1067.4000244141</ele>
        <time>2020-12-04T12:32:39.258Z</time>
      </trkpt>
      <trkpt lat="44.51137" lon="6.13153">
        <ele>1067</ele>
        <time>2020-12-04T12:32:41.396Z</time>
      </trkpt>
      <trkpt lat="44.51137" lon="6.13174">
        <ele>1067.1999511719</ele>
        <time>2020-12-04T12:32:43.539Z</time>
      </trkpt>
      <trkpt lat="44.51138" lon="6.13182">
        <ele>1067.1999511719</ele>
        <time>2020-12-04T12:32:45.683Z</time>
      </trkpt>
      <trkpt lat="44.51136" lon="6.13196">
        <ele>1067.1999511719</ele>
        <time>2020-12-04T12:32:47.831Z</time>
      </trkpt>
      <trkpt lat="44.51135" lon="6.13201">
        <ele>1066.8000488281</ele>
        <time>2020-12-04T12:32:49.980Z</time>
      </trkpt>
      <trkpt lat="44.51136" lon="6.13204">
        <ele>1066.8000488281</ele>
        <time>2020-12-04T12:32:52.129Z</time>
      </trkpt>
      <trkpt lat="44.51137" lon="6.13216">
        <ele>1066.5999755859</ele>
        <time>2020-12-04T12:32:54.281Z</time>
      </trkpt>
      <trkpt lat="44.51139" lon="6.13227">
        <ele>1066.4000244141</ele>
        <time>2020-12-04T12:32:56.435Z</time>
      </trkpt>
      <trkpt lat="44.5114" lon="6.13244">
        <ele>1066.4000244141</ele>
        <time>2020-12-04T12:32:58.593Z</time>
      </trkpt>
      <trkpt lat="44.5114" lon="6.13263">
        <ele>1066.1999511719</ele>
        <time>2020-12-04T12:33:00.755Z</time>
      </trkpt>
      <trkpt lat="44.51142" lon="6.13278">
        <ele>1066</ele>
        <time>2020-12-04T12:33:02.921Z</time>
      </trkpt>
      <trkpt lat="44.51148" lon="6.13301">
        <ele>1065.1999511719</ele>
        <time>2020-12-04T12:33:05.092Z</time>
      </trkpt>
      <trkpt lat="44.5115" lon="6.13316">
        <ele>1064.8000488281</ele>
        <time>2020-12-04T12:33:07.266Z</time>
      </trkpt>
      <trkpt lat="44.5115" lon="6.13321">
        <ele>1065</ele>
        <time>2020-12-04T12:33:09.441Z</time>
      </trkpt>
      <trkpt lat="44.51147" lon="6.13341">
        <ele>1064.5999755859</ele>
        <time>2020-12-04T12:33:11.621Z</time>
      </trkpt>
      <trkpt lat="44.51145" lon="6.13352">
        <ele>1064.4000244141</ele>
        <time>2020-12-04T12:33:13.803Z</time>
      </trkpt>
      <trkpt lat="44.51142" lon="6.13377">
        <ele>1064.5999755859</ele>
        <time>2020-12-04T12:33:15.991Z</time>
      </trkpt>
      <trkpt lat="44.51143" lon="6.13386">
        <ele>1064.4000244141</ele>
        <time>2020-12-04T12:33:18.181Z</time>
      </trkpt>
      <trkpt lat="44.51144" lon="6.13396">
        <ele>1063.8000488281</ele>
        <time>2020-12-04T12:33:20.373Z</time>
      </trkpt>
      <trkpt lat="44.51144" lon="6.13405">
        <ele>1063.5999755859</ele>
        <time>2020-12-04T12:33:22.567Z</time>
      </trkpt>
      <trkpt lat="44.51143" lon="6.13409">
        <ele>1063.5999755859</ele>
        <time>2020-12-04T12:33:24.762Z</time>
      </trkpt>
      <trkpt lat="44.51144" lon="6.13412">
        <ele>1063.4000244141</ele>
        <time>2020-12-04T12:33:26.957Z</time>
      </trkpt>
      <trkpt lat="44.51141" lon="6.13455">
        <ele>1063.8000488281</ele>
        <time>2020-12-04T12:33:29.162Z</time>
      </trkpt>
      <trkpt lat="44.5114" lon="6.13459">
        <ele>1064.4000244141</ele>
        <time>2020-12-04T12:33:31.368Z</time>
      </trkpt>
      <trkpt lat="44.51139" lon="6.13461">
        <ele>1064.8000488281</ele>
        <time>2020-12-04T12:33:33.574Z</time>
      </trkpt>
      <trkpt lat="44.51138" lon="6.13463">
        <ele>1065</ele>
        <time>2020-12-04T12:33:35.781Z</time>
      </trkpt>
      <trkpt lat="44.51126" lon="6.13478">
        <ele>1070.5999755859</ele>
        <time>2020-12-04T12:33:37.993Z</time>
      </trkpt>
      <trkpt lat="44.51124" lon="6.1348">
        <ele>1071.5999755859</ele>
        <time>2020-12-04T12:33:40.205Z</time>
      </trkpt>
      <trkpt lat="44.51123" lon="6.13481">
        <ele>1072.1999511719</ele>
        <time>2020-12-04T12:33:42.418Z</time>
      </trkpt>
      <trkpt lat="44.51073" lon="6.1349">
        <ele>1084</ele>
        <time>2020-12-04T12:33:44.646Z</time>
      </trkpt>
      <trkpt lat="44.5107" lon="6.13486">
        <ele>1085</ele>
        <time>2020-12-04T12:33:46.875Z</time>
      </trkpt>
      <trkpt lat="44.51069" lon="6.13484">
        <ele>1085.4000244141</ele>
        <time>2020-12-04T12:33:49.105Z</time>
      </trkpt>
      <trkpt lat="44.5107" lon="6.13481">
        <ele>1085.8000488281</ele>
        <time>2020-12-04T12:33:51.335Z</time>
      </trkpt>
      <trkpt lat="44.5107" lon="6.13477">
        <ele>1086.1999511719</ele>
        <time>2020-12-04T12:33:53.566Z</time>
      </trkpt>
      <trkpt lat="44.51071" lon="6.13471">
        <ele>1086.8000488281</ele>
        <time>2020-12-04T12:33:55.799Z</time>
      </trkpt>
      <trkpt lat="44.51071" lon="6.13469">
        <ele>1087.4000244141</ele>
        <time>2020-12-04T12:33:58.032Z</time>
      </trkpt>
      <trkpt lat="44.51072" lon="6.13464">
        <ele>1088.4000244141</ele>
        <time>2020-12-04T12:34:00.266Z</time>
      </trkpt>
      <trkpt lat="44.51075" lon="6.13456">
        <ele>1089.8000488281</ele>
        <time>2020-12-04T12:34:02.502Z</time>
      </trkpt>
      <trkpt lat="44.51078" lon="6.13452">
        <ele>1090.5999755859</ele>
        <time>2020-12-04T12:34:04.740Z</time>
      </trkpt>
      <trkpt lat="44.51079" lon="6.1345">
        <ele>1091</ele>
        <time>2020-12-04T12:34:06.978Z</time>
      </trkpt>
      <trkpt lat="44.51081" lon="6.13439">
        <ele>1092</ele>
        <time>2020-12-04T12:34:09.218Z</time>
      </trkpt>
      <trkpt lat="44.51082" lon="6.13437">
        <ele>1092.1999511719</ele>
        <time>2020-12-04T12:34:11.459Z</time>
      </trkpt>
      <trkpt lat="44.51083" lon="6.13432">
        <ele>1092.5999755859</ele>
        <time>2020-12-04T12:34:13.701Z</time>
      </trkpt>
      <trkpt lat="44.51082" lon="6.13429">
        <ele>1093</ele>
        <time>2020-12-04T12:34:15.944Z</time>
      </trkpt>
      <trkpt lat="44.51081" lon="6.13425">
        <ele>1093.5999755859</ele>
        <time>2020-12-04T12:34:18.188Z</time>
      </trkpt>
      <trkpt lat="44.5108" lon="6.13424">
        <ele>1093.8000488281</ele>
        <time>2020-12-04T12:34:20.432Z</time>
      </trkpt>
      <trkpt lat="44.51079" lon="6.13422">
        <ele>1094.1999511719</ele>
        <time>2020-12-04T12:34:22.677Z</time>
      </trkpt>
      <trkpt lat="44.51075" lon="6.13417">
        <ele>1095.1999511719</ele>
        <time>2020-12-04T12:34:24.923Z</time>
      </trkpt>
      <trkpt lat="44.51074" lon="6.13416">
        <ele>1095.5999755859</ele>
        <time>2020-12-04T12:34:27.170Z</time>
      </trkpt>
      <trkpt lat="44.51072" lon="6.13415">
        <ele>1096.5999755859</ele>
        <time>2020-12-04T12:34:29.417Z</time>
      </trkpt>
      <trkpt lat="44.51067" lon="6.13412">
        <ele>1097.8000488281</ele>
        <time>2020-12-04T12:34:31.666Z</time>
      </trkpt>
      <trkpt lat="44.51063" lon="6.13411">
        <ele>1098.8000488281</ele>
        <time>2020-12-04T12:34:33.916Z</time>
      </trkpt>
      <trkpt lat="44.51062" lon="6.13411">
        <ele>1099.1999511719</ele>
        <time>2020-12-04T12:34:36.166Z</time>
      </trkpt>
      <trkpt lat="44.51048" lon="6.13409">
        <ele>1102.1999511719</ele>
        <time>2020-12-04T12:34:38.421Z</time>
      </trkpt>
      <trkpt lat="44.51044" lon="6.13409">
        <ele>1103.4000244141</ele>
        <time>2020-12-04T12:34:40.677Z</time>
      </trkpt>
      <trkpt lat="44.51028" lon="6.13414">
        <ele>1108</ele>
        <time>2020-12-04T12:34:42.938Z</time>
      </trkpt>
      <trkpt lat="44.51026" lon="6.13418">
        <ele>1108.5999755859</ele>
        <time>2020-12-04T12:34:45.200Z</time>
      </trkpt>
      <trkpt lat="44.51025" lon="6.13419">
        <ele>1108.8000488281</ele>
        <time>2020-12-04T12:34:47.462Z</time>
      </trkpt>
      <trkpt lat="44.51023" lon="6.13422">
        <ele>1109.4000244141</ele>
        <time>2020-12-04T12:34:49.725Z</time>
      </trkpt>
      <trkpt lat="44.51022" lon="6.13424">
        <ele>1109.4000244141</ele>
        <time>2020-12-04T12:34:51.989Z</time>
      </trkpt>
      <trkpt lat="44.51017" lon="6.13433">
        <ele>1110.4000244141</ele>
        <time>2020-12-04T12:34:54.255Z</time>
      </trkpt>
      <trkpt lat="44.51016" lon="6.13433">
        <ele>1110.8000488281</ele>
        <time>2020-12-04T12:34:56.522Z</time>
      </trkpt>
      <trkpt lat="44.51009" lon="6.13442">
        <ele>1111.5999755859</ele>
        <time>2020-12-04T12:34:58.791Z</time>
      </trkpt>
      <trkpt lat="44.51007" lon="6.13445">
        <ele>1111.8000488281</ele>
        <time>2020-12-04T12:35:01.061Z</time>
      </trkpt>
      <trkpt lat="44.51" lon="6.13453">
        <ele>1112.4000244141</ele>
        <time>2020-12-04T12:35:03.334Z</time>
      </trkpt>
      <trkpt lat="44.50998" lon="6.13456">
        <ele>1112.5999755859</ele>
        <time>2020-12-04T12:35:05.608Z</time>
      </trkpt>
      <trkpt lat="44.50997" lon="6.13458">
        <ele>1113</ele>
        <time>2020-12-04T12:35:07.882Z</time>
      </trkpt>
      <trkpt lat="44.50995" lon="6.1346">
        <ele>1113.4000244141</ele>
        <time>2020-12-04T12:35:10.157Z</time>
      </trkpt>
      <trkpt lat="44.50992" lon="6.13459">
        <ele>1114</ele>
        <time>2020-12-04T12:35:12.433Z</time>
      </trkpt>
      <trkpt lat="44.50991" lon="6.13457">
        <ele>1114.4000244141</ele>
        <time>2020-12-04T12:35:14.709Z</time>
      </trkpt>
      <trkpt lat="44.50989" lon="6.13455">
        <ele>1114.8000488281</ele>
        <time>2020-12-04T12:35:16.986Z</time>
      </trkpt>
      <trkpt lat="44.50987" lon="6.13452">
        <ele>1115.1999511719</ele>
        <time>2020-12-04T12:35:19.264Z</time>
      </trkpt>
      <trkpt lat="44.50986" lon="6.1345">
        <ele>1115.5999755859</ele>
        <time>2020-12-04T12:35:21.542Z</time>
      </trkpt>
      <trkpt lat="44.50984" lon="6.13447">
        <ele>1116.4000244141</ele>
        <time>2020-12-04T12:35:23.821Z</time>
      </trkpt>
      <trkpt lat="44.50983" lon="6.13446">
        <ele>1116.5999755859</ele>
        <time>2020-12-04T12:35:26.101Z</time>
      </trkpt>
      <trkpt lat="44.50974" lon="6.13415">
        <ele>1120.8000488281</ele>
        <time>2020-12-04T12:35:28.388Z</time>
      </trkpt>
      <trkpt lat="44.50973" lon="6.13413">
        <ele>1121</ele>
        <time>2020-12-04T12:35:30.676Z</time>
      </trkpt>
      <trkpt lat="44.50971" lon="6.13407">
        <ele>1121.8000488281</ele>
        <time>2020-12-04T12:35:32.965Z</time>
      </trkpt>
      <trkpt lat="44.50969" lon="6.13401">
        <ele>1123.1999511719</ele>
        <time>2020-12-04T12:35:35.256Z</time>
      </trkpt>
      <trkpt lat="44.50967" lon="6.13388">
        <ele>1124.8000488281</ele>
        <time>2020-12-04T12:35:37.549Z</time>
      </trkpt>
      <trkpt lat="44.50966" lon="6.13384">
        <ele>1125.1999511719</ele>
        <time>2020-12-04T12:35:39.843Z</time>
      </trkpt>
      <trkpt lat="44.50965" lon="6.13379">
        <ele>1126</ele>
        <time>2020-12-04T12:35:42.139Z</time>
      </trkpt>
      <trkpt lat="44.50966" lon="6.13375">
        <ele>1126.5999755859</ele>
        <time>2020-12-04T12:35:44.435Z</time>
      </trkpt>
      <trkpt lat="44.50966" lon="6.13374">
        <ele>1126.8000488281</ele>
        <time>2020-12-04T12:35:46.732Z</time>
      </trkpt>
      <trkpt lat="44.50967" lon="6.13372">
        <ele>1127</ele>
        <time>2020-12-04T12:35:49.029Z</time>
      </trkpt>
      <trkpt lat="44.5097" lon="6.13369">
        <ele>1127.5999755859</ele>
        <time>2020-12-04T12:35:51.327Z</time>
      </trkpt>
      <trkpt lat="44.50974" lon="6.13365">
        <ele>1128.4000244141</ele>
        <time>2020-12-04T12:35:53.627Z</time>
      </trkpt>
      <trkpt lat="44.50977" lon="6.13361">
        <ele>1128.8000488281</ele>
        <time>2020-12-04T12:35:55.928Z</time>
      </trkpt>
      <trkpt lat="44.50978" lon="6.1336">
        <ele>1129.1999511719</ele>
        <time>2020-12-04T12:35:58.229Z</time>
      </trkpt>
      <trkpt lat="44.50981" lon="6.13355">
        <ele>1130</ele>
        <time>2020-12-04T12:36:00.532Z</time>
      </trkpt>
      <trkpt lat="44.50984" lon="6.13348">
        <ele>1131.1999511719</ele>
        <time>2020-12-04T12:36:02.837Z</time>
      </trkpt>
      <trkpt lat="44.50986" lon="6.13346">
        <ele>1131.4000244141</ele>
        <time>2020-12-04T12:36:05.142Z</time>
      </trkpt>
      <trkpt lat="44.50988" lon="6.1334">
        <ele>1131.5999755859</ele>
        <time>2020-12-04T12:36:07.449Z</time>
      </trkpt>
      <trkpt lat="44.5099" lon="6.13331">
        <ele>1132.5999755859</ele>
        <time>2020-12-04T12:36:09.758Z</time>
      </trkpt>
      <trkpt lat="44.5099" lon="6.13328">
        <ele>1133</ele>
        <time>2020-12-04T12:36:12.067Z</time>
      </trkpt>
      <trkpt lat="44.50992" lon="6.13323">
        <ele>1133.5999755859</ele>
        <time>2020-12-04T12:36:14.378Z</time>
      </trkpt>
      <trkpt lat="44.50994" lon="6.13319">
        <ele>1134.1999511719</ele>
        <time>2020-12-04T12:36:16.690Z</time>
      </trkpt>
      <trkpt lat="44.50994" lon="6.13317">
        <ele>1134.4000244141</ele>
        <time>2020-12-04T12:36:19.002Z</time>
      </trkpt>
      <trkpt lat="44.50994" lon="6.13315">
        <ele>1134.5999755859</ele>
        <time>2020-12-04T12:36:21.314Z</time>
      </trkpt>
      <trkpt lat="44.50995" lon="6.13305">
        <ele>1135.8000488281</ele>
        <time>2020-12-04T12:36:23.629Z</time>
      </trkpt>
      <trkpt lat="44.50994" lon="6.13303">
        <ele>1136.1999511719</ele>
        <time>2020-12-04T12:36:25.944Z</time>
      </trkpt>
      <trkpt lat="44.50994" lon="6.13298">
        <ele>1136.4000244141</ele>
        <time>2020-12-04T12:36:28.260Z</time>
      </trkpt>
      <trkpt lat="44.50991" lon="6.13287">
        <ele>1137.4000244141</ele>
        <time>2020-12-04T12:36:30.579Z</time>
      </trkpt>
      <trkpt lat="44.50988" lon="6.13277">
        <ele>1138.5999755859</ele>
        <time>2020-12-04T12:36:32.900Z</time>
      </trkpt>
      <trkpt lat="44.50988" lon="6.13274">
        <ele>1138.8000488281</ele>
        <time>2020-12-04T12:36:35.222Z</time>
      </trkpt>
      <trkpt lat="44.50986" lon="6.13269">
        <ele>1139.5999755859</ele>
        <time>2020-12-04T12:36:37.545Z</time>
      </trkpt>
      <trkpt lat="44.50984" lon="6.13264">
        <ele>1140</ele>
        <time>2020-12-04T12:36:39.869Z</time>
      </trkpt>
      <trkpt lat="44.50979" lon="6.13257">
        <ele>1141.1999511719</ele>
        <time>2020-12-04T12:36:42.195Z</time>
      </trkpt>
      <trkpt lat="44.50979" lon="6.13256">
        <ele>1141.5999755859</ele>
        <time>2020-12-04T12:36:44.522Z</time>
      </trkpt>
      <trkpt lat="44.50977" lon="6.13255">
        <ele>1141.8000488281</ele>
        <time>2020-12-04T12:36:46.849Z</time>
      </trkpt>
      <trkpt lat="44.50976" lon="6.13255">
        <ele>1142.1999511719</ele>
        <time>2020-12-04T12:36:49.176Z</time>
      </trkpt>
      <trkpt lat="44.50973" lon="6.13254">
        <ele>1142.8000488281</ele>
        <time>2020-12-04T12:36:51.504Z</time>
      </trkpt>
      <trkpt lat="44.5097" lon="6.13253">
        <ele>1143.4000244141</ele>
        <time>2020-12-04T12:36:53.833Z</time>
      </trkpt>
      <trkpt lat="44.50968" lon="6.13253">
        <ele>1144.1999511719</ele>
        <time>2020-12-04T12:36:56.163Z</time>
      </trkpt>
      <trkpt lat="44.50966" lon="6.13254">
        <ele>1144.5999755859</ele>
        <time>2020-12-04T12:36:58.493Z</time>
      </trkpt>
      <trkpt lat="44.50963" lon="6.13255">
        <ele>1145.1999511719</ele>
        <time>2020-12-04T12:37:00.824Z</time>
      </trkpt>
      <trkpt lat="44.50961" lon="6.13257">
        <ele>1145.8000488281</ele>
        <time>2020-12-04T12:37:03.156Z</time>
      </trkpt>
      <trkpt lat="44.50961" lon="6.13258">
        <ele>1146</ele>
        <time>2020-12-04T12:37:05.488Z</time>
      </trkpt>
      <trkpt lat="44.50958" lon="6.13262">
        <ele>1147.1999511719</ele>
        <time>2020-12-04T12:37:07.822Z</time>
      </trkpt>
      <trkpt lat="44.50956" lon="6.13265">
        <ele>1148</ele>
        <time>2020-12-04T12:37:10.156Z</time>
      </trkpt>
      <trkpt lat="44.50956" lon="6.13266">
        <ele>1148.4000244141</ele>
        <time>2020-12-04T12:37:12.491Z</time>
      </trkpt>
      <trkpt lat="44.50951" lon="6.13274">
        <ele>1149.8000488281</ele>
        <time>2020-12-04T12:37:14.828Z</time>
      </trkpt>
      <trkpt lat="44.50949" lon="6.13276">
        <ele>1150.1999511719</ele>
        <time>2020-12-04T12:37:17.166Z</time>
      </trkpt>
      <trkpt lat="44.50946" lon="6.13278">
        <ele>1151</ele>
        <time>2020-12-04T12:37:19.505Z</time>
      </trkpt>
      <trkpt lat="44.5094" lon="6.13287">
        <ele>1152</ele>
        <time>2020-12-04T12:37:21.846Z</time>
      </trkpt>
      <trkpt lat="44.50939" lon="6.1329">
        <ele>1152.1999511719</ele>
        <time>2020-12-04T12:37:24.188Z</time>
      </trkpt>
      <trkpt lat="44.50935" lon="6.13293">
        <ele>1153</ele>
        <time>2020-12-04T12:37:26.531Z</time>
      </trkpt>
      <trkpt lat="44.50934" lon="6.13294">
        <ele>1153.4000244141</ele>
        <time>2020-12-04T12:37:28.875Z</time>
      </trkpt>
      <trkpt lat="44.50932" lon="6.13295">
        <ele>1153.8000488281</ele>
        <time>2020-12-04T12:37:31.219Z</time>
      </trkpt>
      <trkpt lat="44.50929" lon="6.13298">
        <ele>1154.1999511719</ele>
        <time>2020-12-04T12:37:33.564Z</time>
      </trkpt>
      <trkpt lat="44.50928" lon="6.133">
        <ele>1154.5999755859</ele>
        <time>2020-12-04T12:37:35.910Z</time>
      </trkpt>
      <trkpt lat="44.50927" lon="6.133">
        <ele>1154.8000488281</ele>
        <time>2020-12-04T12:37:38.256Z</time>
      </trkpt>
      <trkpt lat="44.50924" lon="6.13302">
        <ele>1155</ele>
        <time>2020-12-04T12:37:40.603Z</time>
      </trkpt>
      <trkpt lat="44.5092" lon="6.13307">
        <ele>1155.5999755859</ele>
        <time>2020-12-04T12:37:42.952Z</time>
      </trkpt>
      <trkpt lat="44.50919" lon="6.13307">
        <ele>1156</ele>
        <time>2020-12-04T12:37:45.301Z</time>
      </trkpt>
      <trkpt lat="44.50918" lon="6.13307">
        <ele>1156.1999511719</ele>
        <time>2020-12-04T12:37:47.650Z</time>
      </trkpt>
      <trkpt lat="44.50913" lon="6.1331">
        <ele>1156.8000488281</ele>
        <time>2020-12-04T12:37:50.001Z</time>
      </trkpt>
      <trkpt lat="44.50905" lon="6.1331">
        <ele>1158</ele>
        <time>2020-12-04T12:37:52.354Z</time>
      </trkpt>
      <trkpt lat="44.50903" lon="6.13311">
        <ele>1158.5999755859</ele>
        <time>2020-12-04T12:37:54.708Z</time>
      </trkpt>
      <trkpt lat="44.50901" lon="6.13311">
        <ele>1158.8000488281</ele>
        <time>2020-12-04T12:37:57.063Z</time>
      </trkpt>
      <trkpt lat="44.50898" lon="6.13313">
        <ele>1159.4000244141</ele>
        <time>2020-12-04T12:37:59.419Z</time>
      </trkpt>
      <trkpt lat="44.50897" lon="6.13315">
        <ele>1159.5999755859</ele>
        <time>2020-12-04T12:38:01.775Z</time>
      </trkpt>
      <trkpt lat="44.50894" lon="6.13317">
        <ele>1160</ele>
        <time>2020-12-04T12:38:04.132Z</time>
      </trkpt>
      <trkpt lat="44.50893" lon="6.13322">
        <ele>1160.4000244141</ele>
        <time>2020-12-04T12:38:06.490Z</time>
      </trkpt>
      <trkpt lat="44.50892" lon="6.13324">
        <ele>1160.8000488281</ele>
        <time>2020-12-04T12:38:08.849Z</time>
      </trkpt>
      <trkpt lat="44.50889" lon="6.13331">
        <ele>1161.1999511719</ele>
        <time>2020-12-04T12:38:11.210Z</time>
      </trkpt>
      <trkpt lat="44.50884" lon="6.13339">
        <ele>1161.5999755859</ele>
        <time>2020-12-04T12:38:13.573Z</time>
      </trkpt>
      <trkpt lat="44.50883" lon="6.1334">
        <ele>1161.8000488281</ele>
        <time>2020-12-04T12:38:15.936Z</time>
      </trkpt>
      <trkpt lat="44.50857" lon="6.13334">
        <ele>1169</ele>
        <time>2020-12-04T12:38:18.307Z</time>
      </trkpt>
      <trkpt lat="44.50855" lon="6.1333">
        <ele>1170</ele>
        <time>2020-12-04T12:38:20.679Z</time>
      </trkpt>
      <trkpt lat="44.50854" lon="6.13327">
        <ele>1170.4000244141</ele>
        <time>2020-12-04T12:38:23.052Z</time>
      </trkpt>
      <trkpt lat="44.50837" lon="6.1329">
        <ele>1177</ele>
        <time>2020-12-04T12:38:25.435Z</time>
      </trkpt>
      <trkpt lat="44.50836" lon="6.13287">
        <ele>1177.4000244141</ele>
        <time>2020-12-04T12:38:27.818Z</time>
      </trkpt>
      <trkpt lat="44.50835" lon="6.13284">
        <ele>1177.5999755859</ele>
        <time>2020-12-04T12:38:30.202Z</time>
      </trkpt>
      <trkpt lat="44.50827" lon="6.13271">
        <ele>1178.8000488281</ele>
        <time>2020-12-04T12:38:32.590Z</time>
      </trkpt>
      <trkpt lat="44.50824" lon="6.1327">
        <ele>1179.4000244141</ele>
        <time>2020-12-04T12:38:34.979Z</time>
      </trkpt>
      <trkpt lat="44.50822" lon="6.13269">
        <ele>1179.8000488281</ele>
        <time>2020-12-04T12:38:37.368Z</time>
      </trkpt>
      <trkpt lat="44.5082" lon="6.13268">
        <ele>1180.1999511719</ele>
        <time>2020-12-04T12:38:39.758Z</time>
      </trkpt>
      <trkpt lat="44.50819" lon="6.13268">
        <ele>1180.5999755859</ele>
        <time>2020-12-04T12:38:42.148Z</time>
      </trkpt>
      <trkpt lat="44.50814" lon="6.13266">
        <ele>1181.4000244141</ele>
        <time>2020-12-04T12:38:44.540Z</time>
      </trkpt>
      <trkpt lat="44.50812" lon="6.13265">
        <ele>1181.4000244141</ele>
        <time>2020-12-04T12:38:46.933Z</time>
      </trkpt>
      <trkpt lat="44.50807" lon="6.13262">
        <ele>1182</ele>
        <time>2020-12-04T12:38:49.327Z</time>
      </trkpt>
      <trkpt lat="44.50804" lon="6.1326">
        <ele>1182.4000244141</ele>
        <time>2020-12-04T12:38:51.722Z</time>
      </trkpt>
      <trkpt lat="44.508" lon="6.13259">
        <ele>1182.8000488281</ele>
        <time>2020-12-04T12:38:54.118Z</time>
      </trkpt>
      <trkpt lat="44.50797" lon="6.13258">
        <ele>1182.8000488281</ele>
        <time>2020-12-04T12:38:56.515Z</time>
      </trkpt>
      <trkpt lat="44.50789" lon="6.13256">
        <ele>1183.8000488281</ele>
        <time>2020-12-04T12:38:58.915Z</time>
      </trkpt>
      <trkpt lat="44.50783" lon="6.13257">
        <ele>1185</ele>
        <time>2020-12-04T12:39:01.317Z</time>
      </trkpt>
      <trkpt lat="44.50781" lon="6.13259">
        <ele>1185.1999511719</ele>
        <time>2020-12-04T12:39:03.719Z</time>
      </trkpt>
      <trkpt lat="44.50778" lon="6.1326">
        <ele>1186</ele>
        <time>2020-12-04T12:39:06.122Z</time>
      </trkpt>
      <trkpt lat="44.50757" lon="6.13257">
        <ele>1189.1999511719</ele>
        <time>2020-12-04T12:39:08.532Z</time>
      </trkpt>
      <trkpt lat="44.5075" lon="6.13252">
        <ele>1189.8000488281</ele>
        <time>2020-12-04T12:39:10.944Z</time>
      </trkpt>
      <trkpt lat="44.50747" lon="6.13252">
        <ele>1190.1999511719</ele>
        <time>2020-12-04T12:39:13.357Z</time>
      </trkpt>
      <trkpt lat="44.50742" lon="6.13252">
        <ele>1190.8000488281</ele>
        <time>2020-12-04T12:39:15.772Z</time>
      </trkpt>
      <trkpt lat="44.50738" lon="6.13257">
        <ele>1191.5999755859</ele>
        <time>2020-12-04T12:39:18.188Z</time>
      </trkpt>
      <trkpt lat="44.50738" lon="6.13267">
        <ele>1192.5999755859</ele>
        <time>2020-12-04T12:39:20.606Z</time>
      </trkpt>
      <trkpt lat="44.5074" lon="6.13269">
        <ele>1193</ele>
        <time>2020-12-04T12:39:23.025Z</time>
      </trkpt>
      <trkpt lat="44.50743" lon="6.13274">
        <ele>1193.5999755859</ele>
        <time>2020-12-04T12:39:25.445Z</time>
      </trkpt>
      <trkpt lat="44.50744" lon="6.13276">
        <ele>1193.5999755859</ele>
        <time>2020-12-04T12:39:27.866Z</time>
      </trkpt>
      <trkpt lat="44.50744" lon="6.13277">
        <ele>1194</ele>
        <time>2020-12-04T12:39:30.287Z</time>
      </trkpt>
      <trkpt lat="44.50745" lon="6.13282">
        <ele>1195</ele>
        <time>2020-12-04T12:39:32.709Z</time>
      </trkpt>
      <trkpt lat="44.50745" lon="6.13283">
        <ele>1195.1999511719</ele>
        <time>2020-12-04T12:39:35.131Z</time>
      </trkpt>
      <trkpt lat="44.5068" lon="6.13424">
        <ele>1217.4000244141</ele>
        <time>2020-12-04T12:39:37.590Z</time>
      </trkpt>
      <trkpt lat="44.50677" lon="6.13424">
        <ele>1218</ele>
        <time>2020-12-04T12:39:40.050Z</time>
      </trkpt>
      <trkpt lat="44.50674" lon="6.13424">
        <ele>1218.4000244141</ele>
        <time>2020-12-04T12:39:42.511Z</time>
      </trkpt>
      <trkpt lat="44.50583" lon="6.13469">
        <ele>1228</ele>
        <time>2020-12-04T12:39:45.001Z</time>
      </trkpt>
      <trkpt lat="44.50576" lon="6.13474">
        <ele>1227</ele>
        <time>2020-12-04T12:39:47.493Z</time>
      </trkpt>
      <trkpt lat="44.50566" lon="6.13486">
        <ele>1226.1999511719</ele>
        <time>2020-12-04T12:39:49.989Z</time>
      </trkpt>
      <trkpt lat="44.50555" lon="6.135">
        <ele>1225.8000488281</ele>
        <time>2020-12-04T12:39:52.490Z</time>
      </trkpt>
      <trkpt lat="44.50544" lon="6.13508">
        <ele>1225.5999755859</ele>
        <time>2020-12-04T12:39:54.994Z</time>
      </trkpt>
      <trkpt lat="44.50539" lon="6.1351">
        <ele>1225.1999511719</ele>
        <time>2020-12-04T12:39:57.500Z</time>
      </trkpt>
      <trkpt lat="44.50527" lon="6.1352">
        <ele>1224.8000488281</ele>
        <time>2020-12-04T12:40:00.010Z</time>
      </trkpt>
      <trkpt lat="44.50525" lon="6.13523">
        <ele>1224.8000488281</ele>
        <time>2020-12-04T12:40:02.521Z</time>
      </trkpt>
      <trkpt lat="44.50517" lon="6.13525">
        <ele>1224.5999755859</ele>
        <time>2020-12-04T12:40:05.035Z</time>
      </trkpt>
      <trkpt lat="44.50512" lon="6.1353">
        <ele>1225</ele>
        <time>2020-12-04T12:40:07.550Z</time>
      </trkpt>
      <trkpt lat="44.5051" lon="6.13533">
        <ele>1225</ele>
        <time>2020-12-04T12:40:10.066Z</time>
      </trkpt>
      <trkpt lat="44.50509" lon="6.13537">
        <ele>1224.8000488281</ele>
        <time>2020-12-04T12:40:12.583Z</time>
      </trkpt>
      <trkpt lat="44.50476" lon="6.13564">
        <ele>1223.4000244141</ele>
        <time>2020-12-04T12:40:15.112Z</time>
      </trkpt>
      <trkpt lat="44.50472" lon="6.13567">
        <ele>1223.4000244141</ele>
        <time>2020-12-04T12:40:17.642Z</time>
      </trkpt>
      <trkpt lat="44.50469" lon="6.13568">
        <ele>1223.4000244141</ele>
        <time>2020-12-04T12:40:20.173Z</time>
      </trkpt>
      <trkpt lat="44.5045" lon="6.13593">
        <ele>1222.5999755859</ele>
        <time>2020-12-04T12:40:22.712Z</time>
      </trkpt>
      <trkpt lat="44.50445" lon="6.13596">
        <ele>1222.5999755859</ele>
        <time>2020-12-04T12:40:25.253Z</time>
      </trkpt>
      <trkpt lat="44.50401" lon="6.13731">
        <ele>1216.4000244141</ele>
        <time>2020-12-04T12:40:27.826Z</time>
      </trkpt>
      <trkpt lat="44.50402" lon="6.13741">
        <ele>1215.5999755859</ele>
        <time>2020-12-04T12:40:30.401Z</time>
      </trkpt>
      <trkpt lat="44.504" lon="6.13747">
        <ele>1214.8000488281</ele>
        <time>2020-12-04T12:40:32.977Z</time>
      </trkpt>
      <trkpt lat="44.50401" lon="6.13769">
        <ele>1213</ele>
        <time>2020-12-04T12:40:35.558Z</time>
      </trkpt>
      <trkpt lat="44.50401" lon="6.13778">
        <ele>1212.1999511719</ele>
        <time>2020-12-04T12:40:38.141Z</time>
      </trkpt>
      <trkpt lat="44.50402" lon="6.13786">
        <ele>1211</ele>
        <time>2020-12-04T12:40:40.726Z</time>
      </trkpt>
      <trkpt lat="44.50399" lon="6.13801">
        <ele>1209</ele>
        <time>2020-12-04T12:40:43.314Z</time>
      </trkpt>
      <trkpt lat="44.50394" lon="6.13801">
        <ele>1208.1999511719</ele>
        <time>2020-12-04T12:40:45.904Z</time>
      </trkpt>
      <trkpt lat="44.50392" lon="6.13808">
        <ele>1207.8000488281</ele>
        <time>2020-12-04T12:40:48.496Z</time>
      </trkpt>
      <trkpt lat="44.50391" lon="6.13808">
        <ele>1207.5999755859</ele>
        <time>2020-12-04T12:40:51.088Z</time>
      </trkpt>
      <trkpt lat="44.50391" lon="6.13811">
        <ele>1207.4000244141</ele>
        <time>2020-12-04T12:40:53.681Z</time>
      </trkpt>
      <trkpt lat="44.50385" lon="6.13824">
        <ele>1207.8000488281</ele>
        <time>2020-12-04T12:40:56.277Z</time>
      </trkpt>
      <trkpt lat="44.50323" lon="6.13805">
        <ele>1208</ele>
        <time>2020-12-04T12:40:58.893Z</time>
      </trkpt>
      <trkpt lat="44.50321" lon="6.13803">
        <ele>1208</ele>
        <time>2020-12-04T12:41:01.509Z</time>
      </trkpt>
      <trkpt lat="44.50316" lon="6.13798">
        <ele>1208</ele>
        <time>2020-12-04T12:41:04.127Z</time>
      </trkpt>
      <trkpt lat="44.50311" lon="6.13795">
        <ele>1207.8000488281</ele>
        <time>2020-12-04T12:41:06.747Z</time>
      </trkpt>
      <trkpt lat="44.503" lon="6.13789">
        <ele>1207</ele>
        <time>2020-12-04T12:41:09.370Z</time>
      </trkpt>
      <trkpt lat="44.50296" lon="6.13789">
        <ele>1206.4000244141</ele>
        <time>2020-12-04T12:41:11.994Z</time>
      </trkpt>
      <trkpt lat="44.50289" lon="6.13787">
        <ele>1206</ele>
        <time>2020-12-04T12:41:14.621Z</time>
      </trkpt>
      <trkpt lat="44.50281" lon="6.13787">
        <ele>1205</ele>
        <time>2020-12-04T12:41:17.250Z</time>
      </trkpt>
      <trkpt lat="44.50268" lon="6.13791">
        <ele>1204.1999511719</ele>
        <time>2020-12-04T12:41:19.883Z</time>
      </trkpt>
      <trkpt lat="44.50263" lon="6.1379">
        <ele>1203.8000488281</ele>
        <time>2020-12-04T12:41:22.518Z</time>
      </trkpt>
      <trkpt lat="44.50254" lon="6.13792">
        <ele>1203.5999755859</ele>
        <time>2020-12-04T12:41:25.155Z</time>
      </trkpt>
      <trkpt lat="44.50249" lon="6.13794">
        <ele>1203.1999511719</ele>
        <time>2020-12-04T12:41:27.794Z</time>
      </trkpt>
      <trkpt lat="44.50239" lon="6.13798">
        <ele>1202.8000488281</ele>
        <time>2020-12-04T12:41:30.436Z</time>
      </trkpt>
      <trkpt lat="44.50225" lon="6.13822">
        <ele>1201.4000244141</ele>
        <time>2020-12-04T12:41:33.085Z</time>
      </trkpt>
      <trkpt lat="44.50213" lon="6.13844">
        <ele>1200.1999511719</ele>
        <time>2020-12-04T12:41:35.740Z</time>
      </trkpt>
      <trkpt lat="44.50205" lon="6.13864">
        <ele>1198.8000488281</ele>
        <time>2020-12-04T12:41:38.400Z</time>
      </trkpt>
      <trkpt lat="44.502" lon="6.13874">
        <ele>1197.4000244141</ele>
        <time>2020-12-04T12:41:41.063Z</time>
      </trkpt>
      <trkpt lat="44.50198" lon="6.13889">
        <ele>1195.8000488281</ele>
        <time>2020-12-04T12:41:43.729Z</time>
      </trkpt>
      <trkpt lat="44.50194" lon="6.13898">
        <ele>1194.1999511719</ele>
        <time>2020-12-04T12:41:46.397Z</time>
      </trkpt>
      <trkpt lat="44.50191" lon="6.1391">
        <ele>1191</ele>
        <time>2020-12-04T12:41:49.068Z</time>
      </trkpt>
      <trkpt lat="44.50193" lon="6.13918">
        <ele>1189.8000488281</ele>
        <time>2020-12-04T12:41:51.741Z</time>
      </trkpt>
      <trkpt lat="44.50197" lon="6.13933">
        <ele>1188.5999755859</ele>
        <time>2020-12-04T12:41:54.417Z</time>
      </trkpt>
      <trkpt lat="44.50208" lon="6.13949">
        <ele>1186.8000488281</ele>
        <time>2020-12-04T12:41:57.098Z</time>
      </trkpt>
      <trkpt lat="44.50214" lon="6.13958">
        <ele>1185.8000488281</ele>
        <time>2020-12-04T12:41:59.782Z</time>
      </trkpt>
      <trkpt lat="44.50217" lon="6.13965">
        <ele>1185.4000244141</ele>
        <time>2020-12-04T12:42:02.467Z</time>
      </trkpt>
      <trkpt lat="44.50224" lon="6.13977">
        <ele>1184.4000244141</ele>
        <time>2020-12-04T12:42:05.156Z</time>
      </trkpt>
      <trkpt lat="44.50228" lon="6.1398">
        <ele>1184</ele>
        <time>2020-12-04T12:42:07.846Z</time>
      </trkpt>
      <trkpt lat="44.50231" lon="6.13982">
        <ele>1183.4000244141</ele>
        <time>2020-12-04T12:42:10.537Z</time>
      </trkpt>
      <trkpt lat="44.50234" lon="6.13986">
        <ele>1182.8000488281</ele>
        <time>2020-12-04T12:42:13.229Z</time>
      </trkpt>
      <trkpt lat="44.50238" lon="6.13989">
        <ele>1182.4000244141</ele>
        <time>2020-12-04T12:42:15.923Z</time>
      </trkpt>
      <trkpt lat="44.50243" lon="6.13995">
        <ele>1181.1999511719</ele>
        <time>2020-12-04T12:42:18.619Z</time>
      </trkpt>
      <trkpt lat="44.50251" lon="6.14001">
        <ele>1180.1999511719</ele>
        <time>2020-12-04T12:42:21.317Z</time>
      </trkpt>
      <trkpt lat="44.50256" lon="6.14005">
        <ele>1179.8000488281</ele>
        <time>2020-12-04T12:42:24.017Z</time>
      </trkpt>
      <trkpt lat="44.50262" lon="6.14007">
        <ele>1179</ele>
        <time>2020-12-04T12:42:26.719Z</time>
      </trkpt>
      <trkpt lat="44.50266" lon="6.14002">
        <ele>1178.5999755859</ele>
        <time>2020-12-04T12:42:29.423Z</time>
      </trkpt>
      <trkpt lat="44.50272" lon="6.14003">
        <ele>1178.1999511719</ele>
        <time>2020-12-04T12:42:32.129Z</time>
      </trkpt>
      <trkpt lat="44.50277" lon="6.14004">
        <ele>1177</ele>
        <time>2020-12-04T12:42:34.836Z</time>
      </trkpt>
      <trkpt lat="44.50291" lon="6.14005">
        <ele>1175.5999755859</ele>
        <time>2020-12-04T12:42:37.547Z</time>
      </trkpt>
      <trkpt lat="44.50297" lon="6.14005">
        <ele>1174.5999755859</ele>
        <time>2020-12-04T12:42:40.260Z</time>
      </trkpt>
      <trkpt lat="44.50303" lon="6.14004">
        <ele>1173.4000244141</ele>
        <time>2020-12-04T12:42:42.975Z</time>
      </trkpt>
      <trkpt lat="44.50309" lon="6.14005">
        <ele>1172.4000244141</ele>
        <time>2020-12-04T12:42:45.692Z</time>
      </trkpt>
      <trkpt lat="44.50316" lon="6.14008">
        <ele>1170.8000488281</ele>
        <time>2020-12-04T12:42:48.411Z</time>
      </trkpt>
      <trkpt lat="44.50323" lon="6.14008">
        <ele>1169.8000488281</ele>
        <time>2020-12-04T12:42:51.132Z</time>
      </trkpt>
      <trkpt lat="44.50328" lon="6.14009">
        <ele>1168.1999511719</ele>
        <time>2020-12-04T12:42:53.855Z</time>
      </trkpt>
      <trkpt lat="44.50335" lon="6.14009">
        <ele>1167.1999511719</ele>
        <time>2020-12-04T12:42:56.580Z</time>
      </trkpt>
      <trkpt lat="44.50343" lon="6.14012">
        <ele>1165.8000488281</ele>
        <time>2020-12-04T12:42:59.307Z</time>
      </trkpt>
      <trkpt lat="44.50351" lon="6.14013">
        <ele>1164.5999755859</ele>
        <time>2020-12-04T12:43:02.037Z</time>
      </trkpt>
      <trkpt lat="44.50361" lon="6.14018">
        <ele>1163.4000244141</ele>
        <time>2020-12-04T12:43:04.770Z</time>
      </trkpt>
      <trkpt lat="44.50369" lon="6.1402">
        <ele>1161.5999755859</ele>
        <time>2020-12-04T12:43:07.506Z</time>
      </trkpt>
      <trkpt lat="44.50379" lon="6.1402">
        <ele>1159.5999755859</ele>
        <time>2020-12-04T12:43:10.245Z</time>
      </trkpt>
      <trkpt lat="44.50388" lon="6.14021">
        <ele>1157.8000488281</ele>
        <time>2020-12-04T12:43:12.986Z</time>
      </trkpt>
      <trkpt lat="44.50397" lon="6.14024">
        <ele>1156</ele>
        <time>2020-12-04T12:43:15.730Z</time>
      </trkpt>
      <trkpt lat="44.50405" lon="6.14025">
        <ele>1154.4000244141</ele>
        <time>2020-12-04T12:43:18.476Z</time>
      </trkpt>
      <trkpt lat="44.50412" lon="6.14025">
        <ele>1152.4000244141</ele>
        <time>2020-12-04T12:43:21.225Z</time>
      </trkpt>
      <trkpt lat="44.50422" lon="6.14025">
        <ele>1151.1999511719</ele>
        <time>2020-12-04T12:43:23.977Z</time>
      </trkpt>
      <trkpt lat="44.50437" lon="6.14021">
        <ele>1148.4000244141</ele>
        <time>2020-12-04T12:43:26.733Z</time>
      </trkpt>
      <trkpt lat="44.50447" lon="6.14022">
        <ele>1146.5999755859</ele>
        <time>2020-12-04T12:43:29.492Z</time>
      </trkpt>
      <trkpt lat="44.50455" lon="6.14015">
        <ele>1144.4000244141</ele>
        <time>2020-12-04T12:43:32.254Z</time>
      </trkpt>
      <trkpt lat="44.50463" lon="6.14011">
        <ele>1142</ele>
        <time>2020-12-04T12:43:35.019Z</time>
      </trkpt>
      <trkpt lat="44.50473" lon="6.14009">
        <ele>1140.1999511719</ele>
        <time>2020-12-04T12:43:37.787Z</time>
      </trkpt>
      <trkpt lat="44.50481" lon="6.14007">
        <ele>1139</ele>
        <time>2020-12-04T12:43:40.557Z</time>
      </trkpt>
      <trkpt lat="44.50489" lon="6.14006">
        <ele>1137.8000488281</ele>
        <time>2020-12-04T12:43:43.330Z</time>
      </trkpt>
      <trkpt lat="44.50504" lon="6.14003">
        <ele>1135.5999755859</ele>
        <time>2020-12-04T12:43:46.107Z</time>
      </trkpt>
      <trkpt lat="44.50518" lon="6.14002">
        <ele>1133.8000488281</ele>
        <time>2020-12-04T12:43:48.889Z</time>
      </trkpt>
      <trkpt lat="44.50528" lon="6.14002">
        <ele>1132.4000244141</ele>
        <time>2020-12-04T12:43:51.674Z</time>
      </trkpt>
      <trkpt lat="44.50537" lon="6.14001">
        <ele>1131.4000244141</ele>
        <time>2020-12-04T12:43:54.461Z</time>
      </trkpt>
      <trkpt lat="44.50546" lon="6.13999">
        <ele>1129.8000488281</ele>
        <time>2020-12-04T12:43:57.251Z</time>
      </trkpt>
      <trkpt lat="44.50554" lon="6.13999">
        <ele>1128.4000244141</ele>
        <time>2020-12-04T12:44:00.044Z</time>
      </trkpt>
      <trkpt lat="44.50563" lon="6.13999">
        <ele>1127.1999511719</ele>
        <time>2020-12-04T12:44:02.839Z</time>
      </trkpt>
      <trkpt lat="44.50569" lon="6.13999">
        <ele>1126.1999511719</ele>
        <time>2020-12-04T12:44:05.636Z</time>
      </trkpt>
      <trkpt lat="44.50576" lon="6.14001">
        <ele>1125</ele>
        <time>2020-12-04T12:44:08.435Z</time>
      </trkpt>
      <trkpt lat="44.50585" lon="6.14003">
        <ele>1123.4000244141</ele>
        <time>2020-12-04T12:44:11.237Z</time>
      </trkpt>
      <trkpt lat="44.50594" lon="6.14006">
        <ele>1122</ele>
        <time>2020-12-04T12:44:14.042Z</time>
      </trkpt>
      <trkpt lat="44.50601" lon="6.14007">
        <ele>1120.5999755859</ele>
        <time>2020-12-04T12:44:16.849Z</time>
      </trkpt>
      <trkpt lat="44.50608" lon="6.14011">
        <ele>1118.4000244141</ele>
        <time>2020-12-04T12:44:19.658Z</time>
      </trkpt>
      <trkpt lat="44.50615" lon="6.14014">
        <ele>1117</ele>
        <time>2020-12-04T12:44:22.469Z</time>
      </trkpt>
      <trkpt lat="44.50626" lon="6.14015">
        <ele>1115</ele>
        <time>2020-12-04T12:44:25.284Z</time>
      </trkpt>
      <trkpt lat="44.5063" lon="6.14014">
        <ele>1113.5999755859</ele>
        <time>2020-12-04T12:44:28.100Z</time>
      </trkpt>
      <trkpt lat="44.50633" lon="6.1401">
        <ele>1112.5999755859</ele>
        <time>2020-12-04T12:44:30.917Z</time>
      </trkpt>
      <trkpt lat="44.50637" lon="6.14009">
        <ele>1111.4000244141</ele>
        <time>2020-12-04T12:44:33.736Z</time>
      </trkpt>
      <trkpt lat="44.50644" lon="6.14007">
        <ele>1110.1999511719</ele>
        <time>2020-12-04T12:44:36.557Z</time>
      </trkpt>
      <trkpt lat="44.5065" lon="6.14005">
        <ele>1109.1999511719</ele>
        <time>2020-12-04T12:44:39.380Z</time>
      </trkpt>
      <trkpt lat="44.50658" lon="6.14004">
        <ele>1107.8000488281</ele>
        <time>2020-12-04T12:44:42.205Z</time>
      </trkpt>
      <trkpt lat="44.50662" lon="6.13998">
        <ele>1105.8000488281</ele>
        <time>2020-12-04T12:44:45.032Z</time>
      </trkpt>
      <trkpt lat="44.50668" lon="6.13993">
        <ele>1104</ele>
        <time>2020-12-04T12:44:47.861Z</time>
      </trkpt>
      <trkpt lat="44.50673" lon="6.13988">
        <ele>1102.8000488281</ele>
        <time>2020-12-04T12:44:50.692Z</time>
      </trkpt>
      <trkpt lat="44.50678" lon="6.13984">
        <ele>1101.5999755859</ele>
        <time>2020-12-04T12:44:53.524Z</time>
      </trkpt>
      <trkpt lat="44.50682" lon="6.13979">
        <ele>1100.1999511719</ele>
        <time>2020-12-04T12:44:56.358Z</time>
      </trkpt>
      <trkpt lat="44.50687" lon="6.13977">
        <ele>1099</ele>
        <time>2020-12-04T12:44:59.194Z</time>
      </trkpt>
      <trkpt lat="44.50692" lon="6.13977">
        <ele>1097.4000244141</ele>
        <time>2020-12-04T12:45:02.031Z</time>
      </trkpt>
      <trkpt lat="44.50697" lon="6.13976">
        <ele>1096.4000244141</ele>
        <time>2020-12-04T12:45:04.870Z</time>
      </trkpt>
      <trkpt lat="44.50701" lon="6.13973">
        <ele>1095</ele>
        <time>2020-12-04T12:45:07.710Z</time>
      </trkpt>
      <trkpt lat="44.50713" lon="6.13975">
        <ele>1092.4000244141</ele>
        <time>2020-12-04T12:45:10.554Z</time>
      </trkpt>
      <trkpt lat="44.50719" lon="6.13974">
        <ele>1091</ele>
        <time>2020-12-04T12:45:13.399Z</time>
      </trkpt>
      <trkpt lat="44.50726" lon="6.13978">
        <ele>1088.5999755859</ele>
        <time>2020-12-04T12:45:16.247Z</time>
      </trkpt>
      <trkpt lat="44.50732" lon="6.1398">
        <ele>1087</ele>
        <time>2020-12-04T12:45:19.097Z</time>
      </trkpt>
      <trkpt lat="44.50742" lon="6.13981">
        <ele>1085.8000488281</ele>
        <time>2020-12-04T12:45:21.950Z</time>
      </trkpt>
      <trkpt lat="44.50749" lon="6.1398">
        <ele>1084.4000244141</ele>
        <time>2020-12-04T12:45:24.805Z</time>
      </trkpt>
      <trkpt lat="44.50757" lon="6.13977">
        <ele>1082.8000488281</ele>
        <time>2020-12-04T12:45:27.662Z</time>
      </trkpt>
      <trkpt lat="44.50766" lon="6.13975">
        <ele>1081.1999511719</ele>
        <time>2020-12-04T12:45:30.522Z</time>
      </trkpt>
      <trkpt lat="44.50776" lon="6.13972">
        <ele>1080</ele>
        <time>2020-12-04T12:45:33.385Z</time>
      </trkpt>
      <trkpt lat="44.50784" lon="6.13969">
        <ele>1079</ele>
        <time>2020-12-04T12:45:36.251Z</time>
      </trkpt>
      <trkpt lat="44.50792" lon="6.13967">
        <ele>1076.5999755859</ele>
        <time>2020-12-04T12:45:39.119Z</time>
      </trkpt>
      <trkpt lat="44.508" lon="6.13963">
        <ele>1075.1999511719</ele>
        <time>2020-12-04T12:45:41.990Z</time>
      </trkpt>
      <trkpt lat="44.50808" lon="6.13959">
        <ele>1073.8000488281</ele>
        <time>2020-12-04T12:45:44.863Z</time>
      </trkpt>
      <trkpt lat="44.50817" lon="6.13954">
        <ele>1072.5999755859</ele>
        <time>2020-12-04T12:45:47.739Z</time>
      </trkpt>
      <trkpt lat="44.50824" lon="6.13946">
        <ele>1071</ele>
        <time>2020-12-04T12:45:50.618Z</time>
      </trkpt>
      <trkpt lat="44.50831" lon="6.13938">
        <ele>1070.1999511719</ele>
        <time>2020-12-04T12:45:53.500Z</time>
      </trkpt>
      <trkpt lat="44.50839" lon="6.13932">
        <ele>1069.5999755859</ele>
        <time>2020-12-04T12:45:56.385Z</time>
      </trkpt>
      <trkpt lat="44.50858" lon="6.13921">
        <ele>1067.5999755859</ele>
        <time>2020-12-04T12:45:59.276Z</time>
      </trkpt>
      <trkpt lat="44.50865" lon="6.13914">
        <ele>1067</ele>
        <time>2020-12-04T12:46:02.169Z</time>
      </trkpt>
      <trkpt lat="44.50874" lon="6.13901">
        <ele>1066.4000244141</ele>
        <time>2020-12-04T12:46:05.066Z</time>
      </trkpt>
      <trkpt lat="44.50886" lon="6.13883">
        <ele>1065.4000244141</ele>
        <time>2020-12-04T12:46:07.969Z</time>
      </trkpt>
      <trkpt lat="44.50892" lon="6.13878">
        <ele>1065</ele>
        <time>2020-12-04T12:46:10.874Z</time>
      </trkpt>
      <trkpt lat="44.50904" lon="6.13872">
        <ele>1063.5999755859</ele>
        <time>2020-12-04T12:46:13.783Z</time>
      </trkpt>
      <trkpt lat="44.5091" lon="6.13869">
        <ele>1062.8000488281</ele>
        <time>2020-12-04T12:46:16.694Z</time>
      </trkpt>
      <trkpt lat="44.50917" lon="6.13865">
        <ele>1061.8000488281</ele>
        <time>2020-12-04T12:46:19.607Z</time>
      </trkpt>
      <trkpt lat="44.50931" lon="6.13857">
        <ele>1060.5999755859</ele>
        <time>2020-12-04T12:46:22.525Z</time>
      </trkpt>
      <trkpt lat="44.50945" lon="6.13852">
        <ele>1059.1999511719</ele>
        <time>2020-12-04T12:46:25.447Z</time>
      </trkpt>
      <trkpt lat="44.50951" lon="6.13848">
        <ele>1058.1999511719</ele>
        <time>2020-12-04T12:46:28.371Z</time>
      </trkpt>
      <trkpt lat="44.50957" lon="6.13844">
        <ele>1057.5999755859</ele>
        <time>2020-12-04T12:46:31.297Z</time>
      </trkpt>
      <trkpt lat="44.50961" lon="6.13841">
        <ele>1057</ele>
        <time>2020-12-04T12:46:34.224Z</time>
      </trkpt>
      <trkpt lat="44.50964" lon="6.13838">
        <ele>1056.1999511719</ele>
        <time>2020-12-04T12:46:37.152Z</time>
      </trkpt>
      <trkpt lat="44.50966" lon="6.13835">
        <ele>1055.8000488281</ele>
        <time>2020-12-04T12:46:40.081Z</time>
      </trkpt>
      <trkpt lat="44.50968" lon="6.13829">
        <ele>1055</ele>
        <time>2020-12-04T12:46:43.012Z</time>
      </trkpt>
      <trkpt lat="44.50968" lon="6.13826">
        <ele>1054.4000244141</ele>
        <time>2020-12-04T12:46:45.943Z</time>
      </trkpt>
      <trkpt lat="44.50971" lon="6.13823">
        <ele>1054.4000244141</ele>
        <time>2020-12-04T12:46:48.875Z</time>
      </trkpt>
      <trkpt lat="44.50974" lon="6.13817">
        <ele>1054</ele>
        <time>2020-12-04T12:46:51.809Z</time>
      </trkpt>
      <trkpt lat="44.50979" lon="6.13811">
        <ele>1053.1999511719</ele>
        <time>2020-12-04T12:46:54.745Z</time>
      </trkpt>
      <trkpt lat="44.50986" lon="6.13805">
        <ele>1053.4000244141</ele>
        <time>2020-12-04T12:46:57.683Z</time>
      </trkpt>
      <trkpt lat="44.50991" lon="6.13801">
        <ele>1053</ele>
        <time>2020-12-04T12:47:00.623Z</time>
      </trkpt>
      <trkpt lat="44.51001" lon="6.13795">
        <ele>1052</ele>
        <time>2020-12-04T12:47:03.567Z</time>
      </trkpt>
      <trkpt lat="44.5101" lon="6.13787">
        <ele>1050.4000244141</ele>
        <time>2020-12-04T12:47:06.514Z</time>
      </trkpt>
      <trkpt lat="44.51015" lon="6.13783">
        <ele>1050.1999511719</ele>
        <time>2020-12-04T12:47:09.463Z</time>
      </trkpt>
      <trkpt lat="44.51024" lon="6.13774">
        <ele>1048.4000244141</ele>
        <time>2020-12-04T12:47:12.415Z</time>
      </trkpt>
      <trkpt lat="44.51034" lon="6.13767">
        <ele>1047.4000244141</ele>
        <time>2020-12-04T12:47:15.370Z</time>
      </trkpt>
      <trkpt lat="44.51042" lon="6.1376">
        <ele>1046.4000244141</ele>
        <time>2020-12-04T12:47:18.328Z</time>
      </trkpt>
      <trkpt lat="44.51049" lon="6.13751">
        <ele>1044.8000488281</ele>
        <time>2020-12-04T12:47:21.289Z</time>
      </trkpt>
      <trkpt lat="44.51052" lon="6.13742">
        <ele>1044</ele>
        <time>2020-12-04T12:47:24.252Z</time>
      </trkpt>
      <trkpt lat="44.51056" lon="6.13733">
        <ele>1043</ele>
        <time>2020-12-04T12:47:27.217Z</time>
      </trkpt>
      <trkpt lat="44.51062" lon="6.1372">
        <ele>1042.1999511719</ele>
        <time>2020-12-04T12:47:30.186Z</time>
      </trkpt>
      <trkpt lat="44.51065" lon="6.13713">
        <ele>1041.8000488281</ele>
        <time>2020-12-04T12:47:33.157Z</time>
      </trkpt>
      <trkpt lat="44.51066" lon="6.13704">
        <ele>1041.4000244141</ele>
        <time>2020-12-04T12:47:36.130Z</time>
      </trkpt>
      <trkpt lat="44.51071" lon="6.1369">
        <ele>1040.8000488281</ele>
        <time>2020-12-04T12:47:39.106Z</time>
      </trkpt>
      <trkpt lat="44.51072" lon="6.13684">
        <ele>1040.1999511719</ele>
        <time>2020-12-04T12:47:42.083Z</time>
      </trkpt>
      <trkpt lat="44.51076" lon="6.13674">
        <ele>1039.1999511719</ele>
        <time>2020-12-04T12:47:45.063Z</time>
      </trkpt>
      <trkpt lat="44.51082" lon="6.13666">
        <ele>1038.8000488281</ele>
        <time>2020-12-04T12:47:48.045Z</time>
      </trkpt>
      <trkpt lat="44.51086" lon="6.13663">
        <ele>1038.5999755859</ele>
        <time>2020-12-04T12:47:51.029Z</time>
      </trkpt>
      <trkpt lat="44.5109" lon="6.13655">
        <ele>1038.5999755859</ele>
        <time>2020-12-04T12:47:54.015Z</time>
      </trkpt>
      <trkpt lat="44.51097" lon="6.13646">
        <ele>1039.1999511719</ele>
        <time>2020-12-04T12:47:57.004Z</time>
      </trkpt>
      <trkpt lat="44.51099" lon="6.13642">
        <ele>1039.4000244141</ele>
        <time>2020-12-04T12:47:59.994Z</time>
      </trkpt>
      <trkpt lat="44.51103" lon="6.1364">
        <ele>1039.5999755859</ele>
        <time>2020-12-04T12:48:02.985Z</time>
      </trkpt>
      <trkpt lat="44.51108" lon="6.13637">
        <ele>1039.8000488281</ele>
        <time>2020-12-04T12:48:05.978Z</time>
      </trkpt>
      <trkpt lat="44.51111" lon="6.13636">
        <ele>1040</ele>
        <time>2020-12-04T12:48:08.972Z</time>
      </trkpt>
      <trkpt lat="44.51132" lon="6.1364">
        <ele>1038</ele>
        <time>2020-12-04T12:48:11.972Z</time>
      </trkpt>
      <trkpt lat="44.51135" lon="6.13647">
        <ele>1037.4000244141</ele>
        <time>2020-12-04T12:48:14.974Z</time>
      </trkpt>
      <trkpt lat="44.5114" lon="6.13656">
        <ele>1036.8000488281</ele>
        <time>2020-12-04T12:48:17.978Z</time>
      </trkpt>
      <trkpt lat="44.51143" lon="6.13667">
        <ele>1036.1999511719</ele>
        <time>2020-12-04T12:48:20.985Z</time>
      </trkpt>
      <trkpt lat="44.51143" lon="6.13672">
        <ele>1035.8000488281</ele>
        <time>2020-12-04T12:48:23.993Z</time>
      </trkpt>
      <trkpt lat="44.5114" lon="6.13683">
        <ele>1034.8000488281</ele>
        <time>2020-12-04T12:48:27.004Z</time>
      </trkpt>
      <trkpt lat="44.51137" lon="6.13686">
        <ele>1034.1999511719</ele>
        <time>2020-12-04T12:48:30.016Z</time>
      </trkpt>
      <trkpt lat="44.51134" lon="6.13689">
        <ele>1033.4000244141</ele>
        <time>2020-12-04T12:48:33.029Z</time>
      </trkpt>
      <trkpt lat="44.51132" lon="6.13693">
        <ele>1032.8000488281</ele>
        <time>2020-12-04T12:48:36.043Z</time>
      </trkpt>
      <trkpt lat="44.5113" lon="6.13701">
        <ele>1031</ele>
        <time>2020-12-04T12:48:39.059Z</time>
      </trkpt>
      <trkpt lat="44.51127" lon="6.13703">
        <ele>1029.4000244141</ele>
        <time>2020-12-04T12:48:42.076Z</time>
      </trkpt>
      <trkpt lat="44.51123" lon="6.13706">
        <ele>1028.1999511719</ele>
        <time>2020-12-04T12:48:45.094Z</time>
      </trkpt>
      <trkpt lat="44.5112" lon="6.13714">
        <ele>1027</ele>
        <time>2020-12-04T12:48:48.114Z</time>
      </trkpt>
      <trkpt lat="44.51115" lon="6.13719">
        <ele>1025.8000488281</ele>
        <time>2020-12-04T12:48:51.136Z</time>
      </trkpt>
      <trkpt lat="44.51108" lon="6.13736">
        <ele>1024.4000244141</ele>
        <time>2020-12-04T12:48:54.162Z</time>
      </trkpt>
      <trkpt lat="44.51104" lon="6.13753">
        <ele>1022.799987793</ele>
        <time>2020-12-04T12:48:57.192Z</time>
      </trkpt>
      <trkpt lat="44.51102" lon="6.13763">
        <ele>1021.799987793</ele>
        <time>2020-12-04T12:49:00.224Z</time>
      </trkpt>
      <trkpt lat="44.51101" lon="6.13771">
        <ele>1020.5999755859</ele>
        <time>2020-12-04T12:49:03.258Z</time>
      </trkpt>
      <trkpt lat="44.51097" lon="6.13785">
        <ele>1019.200012207</ele>
        <time>2020-12-04T12:49:06.295Z</time>
      </trkpt>
      <trkpt lat="44.51097" lon="6.13795">
        <ele>1019</ele>
        <time>2020-12-04T12:49:09.335Z</time>
      </trkpt>
      <trkpt lat="44.51098" lon="6.13808">
        <ele>1018.200012207</ele>
        <time>2020-12-04T12:49:12.377Z</time>
      </trkpt>
      <trkpt lat="44.51096" lon="6.13816">
        <ele>1017</ele>
        <time>2020-12-04T12:49:15.421Z</time>
      </trkpt>
      <trkpt lat="44.51094" lon="6.13829">
        <ele>1016.200012207</ele>
        <time>2020-12-04T12:49:18.468Z</time>
      </trkpt>
      <trkpt lat="44.51094" lon="6.13841">
        <ele>1015.200012207</ele>
        <time>2020-12-04T12:49:21.518Z</time>
      </trkpt>
      <trkpt lat="44.51092" lon="6.13851">
        <ele>1014</ele>
        <time>2020-12-04T12:49:24.570Z</time>
      </trkpt>
      <trkpt lat="44.51091" lon="6.13861">
        <ele>1013.5999755859</ele>
        <time>2020-12-04T12:49:27.624Z</time>
      </trkpt>
      <trkpt lat="44.51089" lon="6.13871">
        <ele>1013.200012207</ele>
        <time>2020-12-04T12:49:30.680Z</time>
      </trkpt>
      <trkpt lat="44.51087" lon="6.1388">
        <ele>1013</ele>
        <time>2020-12-04T12:49:33.739Z</time>
      </trkpt>
      <trkpt lat="44.51076" lon="6.13903">
        <ele>1011.799987793</ele>
        <time>2020-12-04T12:49:36.803Z</time>
      </trkpt>
      <trkpt lat="44.51072" lon="6.13914">
        <ele>1011.4000244141</ele>
        <time>2020-12-04T12:49:39.870Z</time>
      </trkpt>
      <trkpt lat="44.51067" lon="6.13917">
        <ele>1011</ele>
        <time>2020-12-04T12:49:42.939Z</time>
      </trkpt>
      <trkpt lat="44.51062" lon="6.13925">
        <ele>1010.5999755859</ele>
        <time>2020-12-04T12:49:46.010Z</time>
      </trkpt>
      <trkpt lat="44.51059" lon="6.13933">
        <ele>1010.200012207</ele>
        <time>2020-12-04T12:49:49.083Z</time>
      </trkpt>
      <trkpt lat="44.51053" lon="6.13943">
        <ele>1009.4000244141</ele>
        <time>2020-12-04T12:49:52.159Z</time>
      </trkpt>
      <trkpt lat="44.51047" lon="6.13948">
        <ele>1009</ele>
        <time>2020-12-04T12:49:55.237Z</time>
      </trkpt>
      <trkpt lat="44.51042" lon="6.13963">
        <ele>1008</ele>
        <time>2020-12-04T12:49:58.318Z</time>
      </trkpt>
      <trkpt lat="44.51043" lon="6.13969">
        <ele>1007</ele>
        <time>2020-12-04T12:50:01.401Z</time>
      </trkpt>
      <trkpt lat="44.51037" lon="6.13981">
        <ele>1006.4000244141</ele>
        <time>2020-12-04T12:50:04.487Z</time>
      </trkpt>
      <trkpt lat="44.51031" lon="6.1399">
        <ele>1007.200012207</ele>
        <time>2020-12-04T12:50:07.575Z</time>
      </trkpt>
      <trkpt lat="44.51025" lon="6.13997">
        <ele>1008.200012207</ele>
        <time>2020-12-04T12:50:10.666Z</time>
      </trkpt>
      <trkpt lat="44.51023" lon="6.14001">
        <ele>1008.4000244141</ele>
        <time>2020-12-04T12:50:13.758Z</time>
      </trkpt>
      <trkpt lat="44.51018" lon="6.14011">
        <ele>1009.799987793</ele>
        <time>2020-12-04T12:50:16.853Z</time>
      </trkpt>
      <trkpt lat="44.51017" lon="6.14015">
        <ele>1010</ele>
        <time>2020-12-04T12:50:19.949Z</time>
      </trkpt>
      <trkpt lat="44.51013" lon="6.14018">
        <ele>1010.4000244141</ele>
        <time>2020-12-04T12:50:23.046Z</time>
      </trkpt>
      <trkpt lat="44.51004" lon="6.14023">
        <ele>1010.200012207</ele>
        <time>2020-12-04T12:50:26.146Z</time>
      </trkpt>
      <trkpt lat="44.5099" lon="6.14035">
        <ele>1009.200012207</ele>
        <time>2020-12-04T12:50:29.251Z</time>
      </trkpt>
      <trkpt lat="44.50989" lon="6.1404">
        <ele>1009</ele>
        <time>2020-12-04T12:50:32.357Z</time>
      </trkpt>
      <trkpt lat="44.50984" lon="6.14047">
        <ele>1008.799987793</ele>
        <time>2020-12-04T12:50:35.465Z</time>
      </trkpt>
      <trkpt lat="44.50982" lon="6.14052">
        <ele>1008.799987793</ele>
        <time>2020-12-04T12:50:38.574Z</time>
      </trkpt>
      <trkpt lat="44.50976" lon="6.14055">
        <ele>1008.5999755859</ele>
        <time>2020-12-04T12:50:41.685Z</time>
      </trkpt>
      <trkpt lat="44.50959" lon="6.14061">
        <ele>1008</ele>
        <time>2020-12-04T12:50:44.801Z</time>
      </trkpt>
      <trkpt lat="44.50957" lon="6.1407">
        <ele>1008</ele>
        <time>2020-12-04T12:50:47.919Z</time>
      </trkpt>
      <trkpt lat="44.50953" lon="6.14074">
        <ele>1007.799987793</ele>
        <time>2020-12-04T12:50:51.039Z</time>
      </trkpt>
      <trkpt lat="44.50947" lon="6.14076">
        <ele>1007.799987793</ele>
        <time>2020-12-04T12:50:54.161Z</time>
      </trkpt>
      <trkpt lat="44.50945" lon="6.1408">
        <ele>1007.799987793</ele>
        <time>2020-12-04T12:50:57.284Z</time>
      </trkpt>
      <trkpt lat="44.50939" lon="6.14089">
        <ele>1007.799987793</ele>
        <time>2020-12-04T12:51:00.409Z</time>
      </trkpt>
      <trkpt lat="44.50931" lon="6.14093">
        <ele>1007.200012207</ele>
        <time>2020-12-04T12:51:03.537Z</time>
      </trkpt>
      <trkpt lat="44.50917" lon="6.141">
        <ele>1007</ele>
        <time>2020-12-04T12:51:06.670Z</time>
      </trkpt>
      <trkpt lat="44.50912" lon="6.14105">
        <ele>1006.799987793</ele>
        <time>2020-12-04T12:51:09.804Z</time>
      </trkpt>
      <trkpt lat="44.50906" lon="6.14107">
        <ele>1006.4000244141</ele>
        <time>2020-12-04T12:51:12.940Z</time>
      </trkpt>
      <trkpt lat="44.50889" lon="6.14115">
        <ele>1006.4000244141</ele>
        <time>2020-12-04T12:51:16.082Z</time>
      </trkpt>
      <trkpt lat="44.50882" lon="6.1412">
        <ele>1005.5999755859</ele>
        <time>2020-12-04T12:51:19.226Z</time>
      </trkpt>
      <trkpt lat="44.50878" lon="6.14123">
        <ele>1005.200012207</ele>
        <time>2020-12-04T12:51:22.372Z</time>
      </trkpt>
      <trkpt lat="44.5087" lon="6.14132">
        <ele>1004.5999755859</ele>
        <time>2020-12-04T12:51:25.521Z</time>
      </trkpt>
      <trkpt lat="44.50861" lon="6.14141">
        <ele>1003.799987793</ele>
        <time>2020-12-04T12:51:28.673Z</time>
      </trkpt>
      <trkpt lat="44.50857" lon="6.14146">
        <ele>1003</ele>
        <time>2020-12-04T12:51:31.827Z</time>
      </trkpt>
      <trkpt lat="44.50851" lon="6.14157">
        <ele>1001.5999755859</ele>
        <time>2020-12-04T12:51:34.984Z</time>
      </trkpt>
      <trkpt lat="44.50846" lon="6.14159">
        <ele>1001</ele>
        <time>2020-12-04T12:51:38.142Z</time>
      </trkpt>
      <trkpt lat="44.50843" lon="6.14165">
        <ele>1000.5999755859</ele>
        <time>2020-12-04T12:51:41.302Z</time>
      </trkpt>
      <trkpt lat="44.50833" lon="6.14175">
        <ele>999.79998779297</ele>
        <time>2020-12-04T12:51:44.466Z</time>
      </trkpt>
      <trkpt lat="44.50827" lon="6.14179">
        <ele>999.40002441406</ele>
        <time>2020-12-04T12:51:47.631Z</time>
      </trkpt>
      <trkpt lat="44.50823" lon="6.14187">
        <ele>999.20001220703</ele>
        <time>2020-12-04T12:51:50.799Z</time>
      </trkpt>
      <trkpt lat="44.50809" lon="6.14203">
        <ele>998.59997558594</ele>
        <time>2020-12-04T12:51:53.972Z</time>
      </trkpt>
      <trkpt lat="44.50806" lon="6.14211">
        <ele>998.20001220703</ele>
        <time>2020-12-04T12:51:57.147Z</time>
      </trkpt>
      <trkpt lat="44.50797" lon="6.1422">
        <ele>997.20001220703</ele>
        <time>2020-12-04T12:52:00.326Z</time>
      </trkpt>
      <trkpt lat="44.50785" lon="6.14229">
        <ele>996.59997558594</ele>
        <time>2020-12-04T12:52:03.508Z</time>
      </trkpt>
      <trkpt lat="44.50779" lon="6.14232">
        <ele>996.40002441406</ele>
        <time>2020-12-04T12:52:06.692Z</time>
      </trkpt>
      <trkpt lat="44.50769" lon="6.14241">
        <ele>995.79998779297</ele>
        <time>2020-12-04T12:52:09.880Z</time>
      </trkpt>
      <trkpt lat="44.50764" lon="6.14244">
        <ele>995.40002441406</ele>
        <time>2020-12-04T12:52:13.070Z</time>
      </trkpt>
      <trkpt lat="44.50759" lon="6.14247">
        <ele>995.20001220703</ele>
        <time>2020-12-04T12:52:16.261Z</time>
      </trkpt>
      <trkpt lat="44.50754" lon="6.1425">
        <ele>994.79998779297</ele>
        <time>2020-12-04T12:52:19.454Z</time>
      </trkpt>
      <trkpt lat="44.50745" lon="6.14254">
        <ele>994.40002441406</ele>
        <time>2020-12-04T12:52:22.650Z</time>
      </trkpt>
      <trkpt lat="44.50743" lon="6.14261">
        <ele>994.20001220703</ele>
        <time>2020-12-04T12:52:25.847Z</time>
      </trkpt>
      <trkpt lat="44.50736" lon="6.1426">
        <ele>994</ele>
        <time>2020-12-04T12:52:29.047Z</time>
      </trkpt>
      <trkpt lat="44.50733" lon="6.14261">
        <ele>993.79998779297</ele>
        <time>2020-12-04T12:52:32.248Z</time>
      </trkpt>
      <trkpt lat="44.50727" lon="6.14269">
        <ele>993</ele>
        <time>2020-12-04T12:52:35.451Z</time>
      </trkpt>
      <trkpt lat="44.50722" lon="6.14275">
        <ele>992.79998779297</ele>
        <time>2020-12-04T12:52:38.656Z</time>
      </trkpt>
      <trkpt lat="44.50713" lon="6.1428">
        <ele>992</ele>
        <time>2020-12-04T12:52:41.864Z</time>
      </trkpt>
      <trkpt lat="44.50709" lon="6.14281">
        <ele>991.79998779297</ele>
        <time>2020-12-04T12:52:45.073Z</time>
      </trkpt>
      <trkpt lat="44.50696" lon="6.1428">
        <ele>991.20001220703</ele>
        <time>2020-12-04T12:52:48.286Z</time>
      </trkpt>
      <trkpt lat="44.50684" lon="6.14268">
        <ele>990.59997558594</ele>
        <time>2020-12-04T12:52:51.504Z</time>
      </trkpt>
      <trkpt lat="44.50681" lon="6.14266">
        <ele>990.59997558594</ele>
        <time>2020-12-04T12:52:54.723Z</time>
      </trkpt>
      <trkpt lat="44.50668" lon="6.14251">
        <ele>990.40002441406</ele>
        <time>2020-12-04T12:52:57.947Z</time>
      </trkpt>
      <trkpt lat="44.50659" lon="6.14248">
        <ele>990.40002441406</ele>
        <time>2020-12-04T12:53:01.174Z</time>
      </trkpt>
      <trkpt lat="44.50656" lon="6.14249">
        <ele>990.59997558594</ele>
        <time>2020-12-04T12:53:04.402Z</time>
      </trkpt>
      <trkpt lat="44.50649" lon="6.14253">
        <ele>990.59997558594</ele>
        <time>2020-12-04T12:53:07.632Z</time>
      </trkpt>
      <trkpt lat="44.50647" lon="6.14255">
        <ele>990.59997558594</ele>
        <time>2020-12-04T12:53:10.863Z</time>
      </trkpt>
      <trkpt lat="44.50639" lon="6.14263">
        <ele>991</ele>
        <time>2020-12-04T12:53:14.097Z</time>
      </trkpt>
      <trkpt lat="44.50638" lon="6.14266">
        <ele>991.20001220703</ele>
        <time>2020-12-04T12:53:17.332Z</time>
      </trkpt>
      <trkpt lat="44.5063" lon="6.14272">
        <ele>992.20001220703</ele>
        <time>2020-12-04T12:53:20.569Z</time>
      </trkpt>
      <trkpt lat="44.50622" lon="6.14273">
        <ele>993.40002441406</ele>
        <time>2020-12-04T12:53:23.809Z</time>
      </trkpt>
      <trkpt lat="44.5062" lon="6.14273">
        <ele>993.79998779297</ele>
        <time>2020-12-04T12:53:27.049Z</time>
      </trkpt>
      <trkpt lat="44.50612" lon="6.14275">
        <ele>994.59997558594</ele>
        <time>2020-12-04T12:53:30.292Z</time>
      </trkpt>
      <trkpt lat="44.50603" lon="6.14283">
        <ele>995.79998779297</ele>
        <time>2020-12-04T12:53:33.538Z</time>
      </trkpt>
      <trkpt lat="44.506" lon="6.14284">
        <ele>995.79998779297</ele>
        <time>2020-12-04T12:53:36.785Z</time>
      </trkpt>
      <trkpt lat="44.50592" lon="6.14294">
        <ele>997.20001220703</ele>
        <time>2020-12-04T12:53:40.035Z</time>
      </trkpt>
      <trkpt lat="44.5059" lon="6.14294">
        <ele>997.59997558594</ele>
        <time>2020-12-04T12:53:43.286Z</time>
      </trkpt>
      <trkpt lat="44.50581" lon="6.14296">
        <ele>998.40002441406</ele>
        <time>2020-12-04T12:53:46.539Z</time>
      </trkpt>
      <trkpt lat="44.50578" lon="6.143">
        <ele>999</ele>
        <time>2020-12-04T12:53:49.794Z</time>
      </trkpt>
      <trkpt lat="44.50571" lon="6.14303">
        <ele>999.40002441406</ele>
        <time>2020-12-04T12:53:53.051Z</time>
      </trkpt>
      <trkpt lat="44.50564" lon="6.14304">
        <ele>999.79998779297</ele>
        <time>2020-12-04T12:53:56.310Z</time>
      </trkpt>
      <trkpt lat="44.50553" lon="6.14306">
        <ele>1000.200012207</ele>
        <time>2020-12-04T12:53:59.572Z</time>
      </trkpt>
      <trkpt lat="44.50548" lon="6.14309">
        <ele>1000.4000244141</ele>
        <time>2020-12-04T12:54:02.836Z</time>
      </trkpt>
      <trkpt lat="44.50543" lon="6.1431">
        <ele>1000.200012207</ele>
        <time>2020-12-04T12:54:06.102Z</time>
      </trkpt>
      <trkpt lat="44.50542" lon="6.14312">
        <ele>1000.200012207</ele>
        <time>2020-12-04T12:54:09.368Z</time>
      </trkpt>
      <trkpt lat="44.50536" lon="6.14315">
        <ele>1000.200012207</ele>
        <time>2020-12-04T12:54:12.636Z</time>
      </trkpt>
      <trkpt lat="44.50533" lon="6.1432">
        <ele>999.59997558594</ele>
        <time>2020-12-04T12:54:15.905Z</time>
      </trkpt>
      <trkpt lat="44.50519" lon="6.14327">
        <ele>999</ele>
        <time>2020-12-04T12:54:19.179Z</time>
      </trkpt>
      <trkpt lat="44.50517" lon="6.14333">
        <ele>998.59997558594</ele>
        <time>2020-12-04T12:54:22.454Z</time>
      </trkpt>
      <trkpt lat="44.50515" lon="6.14341">
        <ele>998</ele>
        <time>2020-12-04T12:54:25.731Z</time>
      </trkpt>
      <trkpt lat="44.5051" lon="6.14346">
        <ele>997.40002441406</ele>
        <time>2020-12-04T12:54:29.010Z</time>
      </trkpt>
      <trkpt lat="44.50501" lon="6.14354">
        <ele>996</ele>
        <time>2020-12-04T12:54:32.292Z</time>
      </trkpt>
      <trkpt lat="44.50496" lon="6.14364">
        <ele>995</ele>
        <time>2020-12-04T12:54:35.577Z</time>
      </trkpt>
      <trkpt lat="44.50485" lon="6.1437">
        <ele>993.79998779297</ele>
        <time>2020-12-04T12:54:38.866Z</time>
      </trkpt>
      <trkpt lat="44.50483" lon="6.14374">
        <ele>993.20001220703</ele>
        <time>2020-12-04T12:54:42.156Z</time>
      </trkpt>
      <trkpt lat="44.50478" lon="6.14374">
        <ele>992.79998779297</ele>
        <time>2020-12-04T12:54:45.447Z</time>
      </trkpt>
      <trkpt lat="44.50465" lon="6.14379">
        <ele>991.59997558594</ele>
        <time>2020-12-04T12:54:48.742Z</time>
      </trkpt>
      <trkpt lat="44.50455" lon="6.1438">
        <ele>990.40002441406</ele>
        <time>2020-12-04T12:54:52.040Z</time>
      </trkpt>
      <trkpt lat="44.50445" lon="6.14381">
        <ele>989</ele>
        <time>2020-12-04T12:54:55.341Z</time>
      </trkpt>
      <trkpt lat="44.50437" lon="6.14382">
        <ele>987.59997558594</ele>
        <time>2020-12-04T12:54:58.645Z</time>
      </trkpt>
      <trkpt lat="44.50432" lon="6.14381">
        <ele>986.79998779297</ele>
        <time>2020-12-04T12:55:01.950Z</time>
      </trkpt>
      <trkpt lat="44.50431" lon="6.14382">
        <ele>986.59997558594</ele>
        <time>2020-12-04T12:55:05.256Z</time>
      </trkpt>
      <trkpt lat="44.50434" lon="6.14384">
        <ele>986.20001220703</ele>
        <time>2020-12-04T12:55:08.562Z</time>
      </trkpt>
      <trkpt lat="44.50437" lon="6.14384">
        <ele>986.20001220703</ele>
        <time>2020-12-04T12:55:11.869Z</time>
      </trkpt>
      <trkpt lat="44.50441" lon="6.14384">
        <ele>985.79998779297</ele>
        <time>2020-12-04T12:55:15.177Z</time>
      </trkpt>
      <trkpt lat="44.50444" lon="6.14386">
        <ele>985.20001220703</ele>
        <time>2020-12-04T12:55:18.486Z</time>
      </trkpt>
      <trkpt lat="44.50447" lon="6.14387">
        <ele>984.59997558594</ele>
        <time>2020-12-04T12:55:21.796Z</time>
      </trkpt>
      <trkpt lat="44.5045" lon="6.1439">
        <ele>983.79998779297</ele>
        <time>2020-12-04T12:55:25.108Z</time>
      </trkpt>
      <trkpt lat="44.50453" lon="6.14392">
        <ele>983</ele>
        <time>2020-12-04T12:55:28.421Z</time>
      </trkpt>
      <trkpt lat="44.50456" lon="6.14395">
        <ele>982.20001220703</ele>
        <time>2020-12-04T12:55:31.735Z</time>
      </trkpt>
      <trkpt lat="44.50463" lon="6.14402">
        <ele>980.59997558594</ele>
        <time>2020-12-04T12:55:35.051Z</time>
      </trkpt>
      <trkpt lat="44.5047" lon="6.14409">
        <ele>978.79998779297</ele>
        <time>2020-12-04T12:55:38.370Z</time>
      </trkpt>
      <trkpt lat="44.50479" lon="6.14417">
        <ele>976.79998779297</ele>
        <time>2020-12-04T12:55:41.692Z</time>
      </trkpt>
      <trkpt lat="44.50488" lon="6.14425">
        <ele>975.20001220703</ele>
        <time>2020-12-04T12:55:45.017Z</time>
      </trkpt>
      <trkpt lat="44.50493" lon="6.14429">
        <ele>974.20001220703</ele>
        <time>2020-12-04T12:55:48.344Z</time>
      </trkpt>
      <trkpt lat="44.50498" lon="6.14433">
        <ele>973</ele>
        <time>2020-12-04T12:55:51.673Z</time>
      </trkpt>
      <trkpt lat="44.50507" lon="6.14438">
        <ele>971.20001220703</ele>
        <time>2020-12-04T12:55:55.005Z</time>
      </trkpt>
      <trkpt lat="44.50509" lon="6.14439">
        <ele>970.20001220703</ele>
        <time>2020-12-04T12:55:58.338Z</time>
      </trkpt>
      <trkpt lat="44.50511" lon="6.14439">
        <ele>969.40002441406</ele>
        <time>2020-12-04T12:56:01.671Z</time>
      </trkpt>
      <trkpt lat="44.50513" lon="6.1444">
        <ele>968.59997558594</ele>
        <time>2020-12-04T12:56:05.005Z</time>
      </trkpt>
      <trkpt lat="44.50515" lon="6.1444">
        <ele>967.40002441406</ele>
        <time>2020-12-04T12:56:08.339Z</time>
      </trkpt>
      <trkpt lat="44.50516" lon="6.14441">
        <ele>967</ele>
        <time>2020-12-04T12:56:11.674Z</time>
      </trkpt>
      <trkpt lat="44.50533" lon="6.14448">
        <ele>966.79998779297</ele>
        <time>2020-12-04T12:56:15.014Z</time>
      </trkpt>
      <trkpt lat="44.50536" lon="6.14449">
        <ele>966.40002441406</ele>
        <time>2020-12-04T12:56:18.355Z</time>
      </trkpt>
      <trkpt lat="44.50539" lon="6.14449">
        <ele>966</ele>
        <time>2020-12-04T12:56:21.697Z</time>
      </trkpt>
      <trkpt lat="44.50546" lon="6.14452">
        <ele>965.20001220703</ele>
        <time>2020-12-04T12:56:25.041Z</time>
      </trkpt>
      <trkpt lat="44.50553" lon="6.14456">
        <ele>964.20001220703</ele>
        <time>2020-12-04T12:56:28.387Z</time>
      </trkpt>
      <trkpt lat="44.5056" lon="6.14463">
        <ele>962.59997558594</ele>
        <time>2020-12-04T12:56:31.736Z</time>
      </trkpt>
      <trkpt lat="44.50564" lon="6.14466">
        <ele>961.40002441406</ele>
        <time>2020-12-04T12:56:35.087Z</time>
      </trkpt>
      <trkpt lat="44.50569" lon="6.1447">
        <ele>960.20001220703</ele>
        <time>2020-12-04T12:56:38.439Z</time>
      </trkpt>
      <trkpt lat="44.50572" lon="6.14472">
        <ele>959</ele>
        <time>2020-12-04T12:56:41.792Z</time>
      </trkpt>
      <trkpt lat="44.50576" lon="6.14474">
        <ele>957.40002441406</ele>
        <time>2020-12-04T12:56:45.147Z</time>
      </trkpt>
      <trkpt lat="44.50581" lon="6.14476">
        <ele>955.79998779297</ele>
        <time>2020-12-04T12:56:48.503Z</time>
      </trkpt>
      <trkpt lat="44.50584" lon="6.14478">
        <ele>954.20001220703</ele>
        <time>2020-12-04T12:56:51.860Z</time>
      </trkpt>
      <trkpt lat="44.50591" lon="6.14483">
        <ele>952.59997558594</ele>
        <time>2020-12-04T12:56:55.220Z</time>
      </trkpt>
      <trkpt lat="44.50594" lon="6.14487">
        <ele>951.79998779297</ele>
        <time>2020-12-04T12:56:58.581Z</time>
      </trkpt>
      <trkpt lat="44.50597" lon="6.1449">
        <ele>950.20001220703</ele>
        <time>2020-12-04T12:57:01.943Z</time>
      </trkpt>
      <trkpt lat="44.50597" lon="6.14493">
        <ele>948.79998779297</ele>
        <time>2020-12-04T12:57:05.305Z</time>
      </trkpt>
      <trkpt lat="44.50596" lon="6.14495">
        <ele>947.79998779297</ele>
        <time>2020-12-04T12:57:08.668Z</time>
      </trkpt>
      <trkpt lat="44.50595" lon="6.14496">
        <ele>947</ele>
        <time>2020-12-04T12:57:12.031Z</time>
      </trkpt>
      <trkpt lat="44.50593" lon="6.14499">
        <ele>946</ele>
        <time>2020-12-04T12:57:15.395Z</time>
      </trkpt>
      <trkpt lat="44.50588" lon="6.14502">
        <ele>944.59997558594</ele>
        <time>2020-12-04T12:57:18.761Z</time>
      </trkpt>
      <trkpt lat="44.50584" lon="6.14506">
        <ele>942.40002441406</ele>
        <time>2020-12-04T12:57:22.128Z</time>
      </trkpt>
      <trkpt lat="44.50582" lon="6.14509">
        <ele>941.40002441406</ele>
        <time>2020-12-04T12:57:25.496Z</time>
      </trkpt>
      <trkpt lat="44.5058" lon="6.14511">
        <ele>940.20001220703</ele>
        <time>2020-12-04T12:57:28.865Z</time>
      </trkpt>
      <trkpt lat="44.50576" lon="6.14516">
        <ele>938.20001220703</ele>
        <time>2020-12-04T12:57:32.235Z</time>
      </trkpt>
      <trkpt lat="44.50575" lon="6.14519">
        <ele>937.20001220703</ele>
        <time>2020-12-04T12:57:35.606Z</time>
      </trkpt>
      <trkpt lat="44.50572" lon="6.14522">
        <ele>936.59997558594</ele>
        <time>2020-12-04T12:57:38.978Z</time>
      </trkpt>
      <trkpt lat="44.50572" lon="6.14527">
        <ele>935</ele>
        <time>2020-12-04T12:57:42.351Z</time>
      </trkpt>
      <trkpt lat="44.5057" lon="6.14533">
        <ele>933.79998779297</ele>
        <time>2020-12-04T12:57:45.726Z</time>
      </trkpt>
      <trkpt lat="44.50568" lon="6.14536">
        <ele>932.59997558594</ele>
        <time>2020-12-04T12:57:49.102Z</time>
      </trkpt>
      <trkpt lat="44.50563" lon="6.14542">
        <ele>931</ele>
        <time>2020-12-04T12:57:52.480Z</time>
      </trkpt>
      <trkpt lat="44.50558" lon="6.1455">
        <ele>929.40002441406</ele>
        <time>2020-12-04T12:57:55.860Z</time>
      </trkpt>
      <trkpt lat="44.50554" lon="6.14554">
        <ele>928.20001220703</ele>
        <time>2020-12-04T12:57:59.241Z</time>
      </trkpt>
      <trkpt lat="44.50551" lon="6.14558">
        <ele>927</ele>
        <time>2020-12-04T12:58:02.624Z</time>
      </trkpt>
      <trkpt lat="44.50547" lon="6.14563">
        <ele>925.79998779297</ele>
        <time>2020-12-04T12:58:06.008Z</time>
      </trkpt>
      <trkpt lat="44.50544" lon="6.14564">
        <ele>924.40002441406</ele>
        <time>2020-12-04T12:58:09.393Z</time>
      </trkpt>
      <trkpt lat="44.50541" lon="6.14567">
        <ele>923</ele>
        <time>2020-12-04T12:58:12.779Z</time>
      </trkpt>
      <trkpt lat="44.50538" lon="6.14571">
        <ele>921.79998779297</ele>
        <time>2020-12-04T12:58:16.167Z</time>
      </trkpt>
      <trkpt lat="44.5053" lon="6.14576">
        <ele>919.59997558594</ele>
        <time>2020-12-04T12:58:19.557Z</time>
      </trkpt>
      <trkpt lat="44.50526" lon="6.14579">
        <ele>918.20001220703</ele>
        <time>2020-12-04T12:58:22.949Z</time>
      </trkpt>
      <trkpt lat="44.50524" lon="6.14583">
        <ele>916.40002441406</ele>
        <time>2020-12-04T12:58:26.342Z</time>
      </trkpt>
      <trkpt lat="44.50521" lon="6.14587">
        <ele>914.79998779297</ele>
        <time>2020-12-04T12:58:29.736Z</time>
      </trkpt>
      <trkpt lat="44.50516" lon="6.14598">
        <ele>913</ele>
        <time>2020-12-04T12:58:33.133Z</time>
      </trkpt>
      <trkpt lat="44.5051" lon="6.14604">
        <ele>911.79998779297</ele>
        <time>2020-12-04T12:58:36.532Z</time>
      </trkpt>
      <trkpt lat="44.50506" lon="6.14612">
        <ele>910</ele>
        <time>2020-12-04T12:58:39.933Z</time>
      </trkpt>
      <trkpt lat="44.50505" lon="6.14617">
        <ele>909</ele>
        <time>2020-12-04T12:58:43.335Z</time>
      </trkpt>
      <trkpt lat="44.50505" lon="6.14631">
        <ele>907.20001220703</ele>
        <time>2020-12-04T12:58:46.740Z</time>
      </trkpt>
      <trkpt lat="44.50507" lon="6.14637">
        <ele>906.40002441406</ele>
        <time>2020-12-04T12:58:50.147Z</time>
      </trkpt>
      <trkpt lat="44.50509" lon="6.14643">
        <ele>905.40002441406</ele>
        <time>2020-12-04T12:58:53.555Z</time>
      </trkpt>
      <trkpt lat="44.50511" lon="6.14648">
        <ele>904.40002441406</ele>
        <time>2020-12-04T12:58:56.965Z</time>
      </trkpt>
      <trkpt lat="44.50516" lon="6.14658">
        <ele>902.59997558594</ele>
        <time>2020-12-04T12:59:00.377Z</time>
      </trkpt>
      <trkpt lat="44.50519" lon="6.14663">
        <ele>901.59997558594</ele>
        <time>2020-12-04T12:59:03.791Z</time>
      </trkpt>
      <trkpt lat="44.50521" lon="6.14669">
        <ele>900.59997558594</ele>
        <time>2020-12-04T12:59:07.206Z</time>
      </trkpt>
      <trkpt lat="44.50524" lon="6.14675">
        <ele>900</ele>
        <time>2020-12-04T12:59:10.622Z</time>
      </trkpt>
      <trkpt lat="44.50529" lon="6.14684">
        <ele>898</ele>
        <time>2020-12-04T12:59:14.041Z</time>
      </trkpt>
      <trkpt lat="44.50532" lon="6.1469">
        <ele>896.59997558594</ele>
        <time>2020-12-04T12:59:17.462Z</time>
      </trkpt>
      <trkpt lat="44.50536" lon="6.14695">
        <ele>895.79998779297</ele>
        <time>2020-12-04T12:59:20.884Z</time>
      </trkpt>
      <trkpt lat="44.50539" lon="6.147">
        <ele>895</ele>
        <time>2020-12-04T12:59:24.308Z</time>
      </trkpt>
      <trkpt lat="44.50545" lon="6.14708">
        <ele>893.40002441406</ele>
        <time>2020-12-04T12:59:27.734Z</time>
      </trkpt>
      <trkpt lat="44.5055" lon="6.14716">
        <ele>891.79998779297</ele>
        <time>2020-12-04T12:59:31.162Z</time>
      </trkpt>
      <trkpt lat="44.50553" lon="6.14724">
        <ele>890.59997558594</ele>
        <time>2020-12-04T12:59:34.592Z</time>
      </trkpt>
      <trkpt lat="44.50553" lon="6.14727">
        <ele>890.20001220703</ele>
        <time>2020-12-04T12:59:38.023Z</time>
      </trkpt>
      <trkpt lat="44.50556" lon="6.14735">
        <ele>889.20001220703</ele>
        <time>2020-12-04T12:59:41.456Z</time>
      </trkpt>
      <trkpt lat="44.50556" lon="6.14742">
        <ele>888.59997558594</ele>
        <time>2020-12-04T12:59:44.890Z</time>
      </trkpt>
      <trkpt lat="44.50557" lon="6.14747">
        <ele>888</ele>
        <time>2020-12-04T12:59:48.325Z</time>
      </trkpt>
      <trkpt lat="44.50559" lon="6.14757">
        <ele>886</ele>
        <time>2020-12-04T12:59:51.763Z</time>
      </trkpt>
      <trkpt lat="44.50561" lon="6.14761">
        <ele>885</ele>
        <time>2020-12-04T12:59:55.202Z</time>
      </trkpt>
      <trkpt lat="44.50561" lon="6.14765">
        <ele>884</ele>
        <time>2020-12-04T12:59:58.642Z</time>
      </trkpt>
      <trkpt lat="44.50562" lon="6.14771">
        <ele>883.20001220703</ele>
        <time>2020-12-04T13:00:02.083Z</time>
      </trkpt>
      <trkpt lat="44.50561" lon="6.1478">
        <ele>881.79998779297</ele>
        <time>2020-12-04T13:00:05.526Z</time>
      </trkpt>
      <trkpt lat="44.50561" lon="6.14792">
        <ele>880.79998779297</ele>
        <time>2020-12-04T13:00:08.972Z</time>
      </trkpt>
      <trkpt lat="44.50559" lon="6.14795">
        <ele>879.79998779297</ele>
        <time>2020-12-04T13:00:12.418Z</time>
      </trkpt>
      <trkpt lat="44.50559" lon="6.14803">
        <ele>878.40002441406</ele>
        <time>2020-12-04T13:00:15.866Z</time>
      </trkpt>
      <trkpt lat="44.5056" lon="6.1481">
        <ele>877.79998779297</ele>
        <time>2020-12-04T13:00:19.316Z</time>
      </trkpt>
      <trkpt lat="44.5056" lon="6.14815">
        <ele>877</ele>
        <time>2020-12-04T13:00:22.767Z</time>
      </trkpt>
      <trkpt lat="44.50559" lon="6.14818">
        <ele>876</ele>
        <time>2020-12-04T13:00:26.218Z</time>
      </trkpt>
      <trkpt lat="44.5056" lon="6.14822">
        <ele>875.40002441406</ele>
        <time>2020-12-04T13:00:29.670Z</time>
      </trkpt>
      <trkpt lat="44.50567" lon="6.14898">
        <ele>867</ele>
        <time>2020-12-04T13:00:33.139Z</time>
      </trkpt>
      <trkpt lat="44.50569" lon="6.14904">
        <ele>866.40002441406</ele>
        <time>2020-12-04T13:00:36.610Z</time>
      </trkpt>
      <trkpt lat="44.50574" lon="6.14916">
        <ele>865.40002441406</ele>
        <time>2020-12-04T13:00:40.084Z</time>
      </trkpt>
      <trkpt lat="44.50579" lon="6.14923">
        <ele>864.79998779297</ele>
        <time>2020-12-04T13:00:43.560Z</time>
      </trkpt>
      <trkpt lat="44.50584" lon="6.14927">
        <ele>864.20001220703</ele>
        <time>2020-12-04T13:00:47.037Z</time>
      </trkpt>
      <trkpt lat="44.50591" lon="6.14931">
        <ele>863.20001220703</ele>
        <time>2020-12-04T13:00:50.517Z</time>
      </trkpt>
      <trkpt lat="44.50593" lon="6.14932">
        <ele>863</ele>
        <time>2020-12-04T13:00:53.998Z</time>
      </trkpt>
      <trkpt lat="44.50596" lon="6.14934">
        <ele>862.79998779297</ele>
        <time>2020-12-04T13:00:57.479Z</time>
      </trkpt>
      <trkpt lat="44.50604" lon="6.14939">
        <ele>861.79998779297</ele>
        <time>2020-12-04T13:01:00.963Z</time>
      </trkpt>
      <trkpt lat="44.50613" lon="6.14944">
        <ele>860.59997558594</ele>
        <time>2020-12-04T13:01:04.450Z</time>
      </trkpt>
      <trkpt lat="44.50615" lon="6.14946">
        <ele>860.20001220703</ele>
        <time>2020-12-04T13:01:07.938Z</time>
      </trkpt>
      <trkpt lat="44.5062" lon="6.14949">
        <ele>859.40002441406</ele>
        <time>2020-12-04T13:01:11.427Z</time>
      </trkpt>
      <trkpt lat="44.50627" lon="6.14954">
        <ele>858</ele>
        <time>2020-12-04T13:01:14.919Z</time>
      </trkpt>
      <trkpt lat="44.5063" lon="6.14955">
        <ele>857.40002441406</ele>
        <time>2020-12-04T13:01:18.412Z</time>
      </trkpt>
      <trkpt lat="44.50633" lon="6.14958">
        <ele>856.20001220703</ele>
        <time>2020-12-04T13:01:21.906Z</time>
      </trkpt>
      <trkpt lat="44.50636" lon="6.1496">
        <ele>855.20001220703</ele>
        <time>2020-12-04T13:01:25.401Z</time>
      </trkpt>
      <trkpt lat="44.50644" lon="6.14964">
        <ele>853.20001220703</ele>
        <time>2020-12-04T13:01:28.898Z</time>
      </trkpt>
      <trkpt lat="44.50647" lon="6.14966">
        <ele>852.20001220703</ele>
        <time>2020-12-04T13:01:32.396Z</time>
      </trkpt>
      <trkpt lat="44.5065" lon="6.14967">
        <ele>851.20001220703</ele>
        <time>2020-12-04T13:01:35.895Z</time>
      </trkpt>
      <trkpt lat="44.50653" lon="6.14969">
        <ele>850</ele>
        <time>2020-12-04T13:01:39.395Z</time>
      </trkpt>
      <trkpt lat="44.50655" lon="6.14976">
        <ele>848.20001220703</ele>
        <time>2020-12-04T13:01:42.897Z</time>
      </trkpt>
      <trkpt lat="44.50654" lon="6.14984">
        <ele>846.59997558594</ele>
        <time>2020-12-04T13:01:46.401Z</time>
      </trkpt>
      <trkpt lat="44.50652" lon="6.14992">
        <ele>844.20001220703</ele>
        <time>2020-12-04T13:01:49.907Z</time>
      </trkpt>
      <trkpt lat="44.50651" lon="6.14996">
        <ele>843.20001220703</ele>
        <time>2020-12-04T13:01:53.413Z</time>
      </trkpt>
      <trkpt lat="44.50648" lon="6.15001">
        <ele>841.20001220703</ele>
        <time>2020-12-04T13:01:56.921Z</time>
      </trkpt>
      <trkpt lat="44.50647" lon="6.15005">
        <ele>840.20001220703</ele>
        <time>2020-12-04T13:02:00.430Z</time>
      </trkpt>
      <trkpt lat="44.50645" lon="6.15011">
        <ele>838.20001220703</ele>
        <time>2020-12-04T13:02:03.940Z</time>
      </trkpt>
      <trkpt lat="44.50644" lon="6.15015">
        <ele>837.40002441406</ele>
        <time>2020-12-04T13:02:07.451Z</time>
      </trkpt>
      <trkpt lat="44.50642" lon="6.15019">
        <ele>835.79998779297</ele>
        <time>2020-12-04T13:02:10.963Z</time>
      </trkpt>
      <trkpt lat="44.50642" lon="6.15022">
        <ele>834.79998779297</ele>
        <time>2020-12-04T13:02:14.476Z</time>
      </trkpt>
      <trkpt lat="44.50642" lon="6.15025">
        <ele>834</ele>
        <time>2020-12-04T13:02:17.990Z</time>
      </trkpt>
      <trkpt lat="44.50642" lon="6.15028">
        <ele>833</ele>
        <time>2020-12-04T13:02:21.504Z</time>
      </trkpt>
      <trkpt lat="44.50644" lon="6.1503">
        <ele>832.20001220703</ele>
        <time>2020-12-04T13:02:25.019Z</time>
      </trkpt>
      <trkpt lat="44.50646" lon="6.15033">
        <ele>831.40002441406</ele>
        <time>2020-12-04T13:02:28.535Z</time>
      </trkpt>
      <trkpt lat="44.50648" lon="6.15039">
        <ele>829.59997558594</ele>
        <time>2020-12-04T13:02:32.052Z</time>
      </trkpt>
      <trkpt lat="44.50647" lon="6.15041">
        <ele>828.40002441406</ele>
        <time>2020-12-04T13:02:35.570Z</time>
      </trkpt>
      <trkpt lat="44.50646" lon="6.15045">
        <ele>827.59997558594</ele>
        <time>2020-12-04T13:02:39.089Z</time>
      </trkpt>
      <trkpt lat="44.50645" lon="6.15046">
        <ele>826.79998779297</ele>
        <time>2020-12-04T13:02:42.608Z</time>
      </trkpt>
      <trkpt lat="44.50642" lon="6.1505">
        <ele>825</ele>
        <time>2020-12-04T13:02:46.128Z</time>
      </trkpt>
      <trkpt lat="44.50641" lon="6.15053">
        <ele>824</ele>
        <time>2020-12-04T13:02:49.649Z</time>
      </trkpt>
      <trkpt lat="44.5064" lon="6.15059">
        <ele>822.20001220703</ele>
        <time>2020-12-04T13:02:53.171Z</time>
      </trkpt>
      <trkpt lat="44.50642" lon="6.15063">
        <ele>821</ele>
        <time>2020-12-04T13:02:56.694Z</time>
      </trkpt>
      <trkpt lat="44.50643" lon="6.15067">
        <ele>820.20001220703</ele>
        <time>2020-12-04T13:03:00.218Z</time>
      </trkpt>
      <trkpt lat="44.50644" lon="6.15071">
        <ele>819.20001220703</ele>
        <time>2020-12-04T13:03:03.743Z</time>
      </trkpt>
      <trkpt lat="44.50646" lon="6.15072">
        <ele>818</ele>
        <time>2020-12-04T13:03:07.269Z</time>
      </trkpt>
      <trkpt lat="44.50649" lon="6.15077">
        <ele>816.40002441406</ele>
        <time>2020-12-04T13:03:10.796Z</time>
      </trkpt>
      <trkpt lat="44.50652" lon="6.15081">
        <ele>814.40002441406</ele>
        <time>2020-12-04T13:03:14.324Z</time>
      </trkpt>
      <trkpt lat="44.50654" lon="6.15084">
        <ele>812.79998779297</ele>
        <time>2020-12-04T13:03:17.853Z</time>
      </trkpt>
      <trkpt lat="44.50655" lon="6.15086">
        <ele>811.59997558594</ele>
        <time>2020-12-04T13:03:21.383Z</time>
      </trkpt>
      <trkpt lat="44.50656" lon="6.15089">
        <ele>810.59997558594</ele>
        <time>2020-12-04T13:03:24.913Z</time>
      </trkpt>
      <trkpt lat="44.50656" lon="6.15092">
        <ele>809</ele>
        <time>2020-12-04T13:03:28.444Z</time>
      </trkpt>
      <trkpt lat="44.50655" lon="6.15095">
        <ele>807.59997558594</ele>
        <time>2020-12-04T13:03:31.976Z</time>
      </trkpt>
      <trkpt lat="44.50654" lon="6.15096">
        <ele>806.59997558594</ele>
        <time>2020-12-04T13:03:35.508Z</time>
      </trkpt>
      <trkpt lat="44.50653" lon="6.15098">
        <ele>805.79998779297</ele>
        <time>2020-12-04T13:03:39.041Z</time>
      </trkpt>
      <trkpt lat="44.50651" lon="6.15101">
        <ele>804.40002441406</ele>
        <time>2020-12-04T13:03:42.575Z</time>
      </trkpt>
      <trkpt lat="44.50648" lon="6.15106">
        <ele>803.20001220703</ele>
        <time>2020-12-04T13:03:46.110Z</time>
      </trkpt>
      <trkpt lat="44.50647" lon="6.15109">
        <ele>802.20001220703</ele>
        <time>2020-12-04T13:03:49.646Z</time>
      </trkpt>
      <trkpt lat="44.50647" lon="6.15112">
        <ele>801.20001220703</ele>
        <time>2020-12-04T13:03:53.182Z</time>
      </trkpt>
      <trkpt lat="44.50647" lon="6.15114">
        <ele>800.40002441406</ele>
        <time>2020-12-04T13:03:56.719Z</time>
      </trkpt>
      <trkpt lat="44.50649" lon="6.1512">
        <ele>798.59997558594</ele>
        <time>2020-12-04T13:04:00.257Z</time>
      </trkpt>
      <trkpt lat="44.50652" lon="6.15124">
        <ele>797.20001220703</ele>
        <time>2020-12-04T13:04:03.796Z</time>
      </trkpt>
      <trkpt lat="44.50657" lon="6.15127">
        <ele>796.20001220703</ele>
        <time>2020-12-04T13:04:07.337Z</time>
      </trkpt>
      <trkpt lat="44.50661" lon="6.15136">
        <ele>795</ele>
        <time>2020-12-04T13:04:10.880Z</time>
      </trkpt>
      <trkpt lat="44.50664" lon="6.15139">
        <ele>793.79998779297</ele>
        <time>2020-12-04T13:04:14.424Z</time>
      </trkpt>
      <trkpt lat="44.50666" lon="6.15143">
        <ele>793.20001220703</ele>
        <time>2020-12-04T13:04:17.969Z</time>
      </trkpt>
      <trkpt lat="44.50668" lon="6.15146">
        <ele>792</ele>
        <time>2020-12-04T13:04:21.515Z</time>
      </trkpt>
      <trkpt lat="44.50672" lon="6.15148">
        <ele>790.59997558594</ele>
        <time>2020-12-04T13:04:25.063Z</time>
      </trkpt>
      <trkpt lat="44.50674" lon="6.15151">
        <ele>790</ele>
        <time>2020-12-04T13:04:28.611Z</time>
      </trkpt>
      <trkpt lat="44.50675" lon="6.15154">
        <ele>789.40002441406</ele>
        <time>2020-12-04T13:04:32.160Z</time>
      </trkpt>
      <trkpt lat="44.50679" lon="6.15159">
        <ele>787.59997558594</ele>
        <time>2020-12-04T13:04:35.711Z</time>
      </trkpt>
      <trkpt lat="44.50683" lon="6.15166">
        <ele>786</ele>
        <time>2020-12-04T13:04:39.264Z</time>
      </trkpt>
      <trkpt lat="44.50687" lon="6.15171">
        <ele>784.40002441406</ele>
        <time>2020-12-04T13:04:42.818Z</time>
      </trkpt>
      <trkpt lat="44.50693" lon="6.15178">
        <ele>782.79998779297</ele>
        <time>2020-12-04T13:04:46.375Z</time>
      </trkpt>
      <trkpt lat="44.50696" lon="6.15183">
        <ele>781.20001220703</ele>
        <time>2020-12-04T13:04:49.933Z</time>
      </trkpt>
      <trkpt lat="44.50698" lon="6.15185">
        <ele>779.79998779297</ele>
        <time>2020-12-04T13:04:53.492Z</time>
      </trkpt>
      <trkpt lat="44.50699" lon="6.15186">
        <ele>778.59997558594</ele>
        <time>2020-12-04T13:04:57.051Z</time>
      </trkpt>
      <trkpt lat="44.50699" lon="6.15186">
        <ele>778</ele>
        <time>2020-12-04T13:05:00.610Z</time>
      </trkpt>
      <trkpt lat="44.507" lon="6.15184">
        <ele>777.40002441406</ele>
        <time>2020-12-04T13:05:04.170Z</time>
      </trkpt>
      <trkpt lat="44.50701" lon="6.15184">
        <ele>777.40002441406</ele>
        <time>2020-12-04T13:05:07.730Z</time>
      </trkpt>
      <trkpt lat="44.50707" lon="6.15193">
        <ele>777.79998779297</ele>
        <time>2020-12-04T13:05:11.293Z</time>
      </trkpt>
      <trkpt lat="44.50705" lon="6.15196">
        <ele>777.20001220703</ele>
        <time>2020-12-04T13:05:14.856Z</time>
      </trkpt>
      <trkpt lat="44.50702" lon="6.152">
        <ele>775.59997558594</ele>
        <time>2020-12-04T13:05:18.421Z</time>
      </trkpt>
      <trkpt lat="44.50701" lon="6.15201">
        <ele>774.59997558594</ele>
        <time>2020-12-04T13:05:21.986Z</time>
      </trkpt>
      <trkpt lat="44.507" lon="6.15203">
        <ele>773.59997558594</ele>
        <time>2020-12-04T13:05:25.552Z</time>
      </trkpt>
      <trkpt lat="44.507" lon="6.15205">
        <ele>772.59997558594</ele>
        <time>2020-12-04T13:05:29.118Z</time>
      </trkpt>
      <trkpt lat="44.50699" lon="6.1521">
        <ele>770.40002441406</ele>
        <time>2020-12-04T13:05:32.685Z</time>
      </trkpt>
      <trkpt lat="44.507" lon="6.15214">
        <ele>769.40002441406</ele>
        <time>2020-12-04T13:05:36.253Z</time>
      </trkpt>
      <trkpt lat="44.507" lon="6.15217">
        <ele>768.40002441406</ele>
        <time>2020-12-04T13:05:39.822Z</time>
      </trkpt>
      <trkpt lat="44.50701" lon="6.1522">
        <ele>767.59997558594</ele>
        <time>2020-12-04T13:05:43.392Z</time>
      </trkpt>
      <trkpt lat="44.50702" lon="6.15225">
        <ele>766.40002441406</ele>
        <time>2020-12-04T13:05:46.963Z</time>
      </trkpt>
      <trkpt lat="44.50699" lon="6.15236">
        <ele>762</ele>
        <time>2020-12-04T13:05:50.536Z</time>
      </trkpt>
      <trkpt lat="44.50698" lon="6.15239">
        <ele>760.79998779297</ele>
        <time>2020-12-04T13:05:54.110Z</time>
      </trkpt>
      <trkpt lat="44.50697" lon="6.1524">
        <ele>760.20001220703</ele>
        <time>2020-12-04T13:05:57.684Z</time>
      </trkpt>
      <trkpt lat="44.50696" lon="6.15244">
        <ele>759.40002441406</ele>
        <time>2020-12-04T13:06:01.259Z</time>
      </trkpt>
      <trkpt lat="44.50695" lon="6.15279">
        <ele>753.40002441406</ele>
        <time>2020-12-04T13:06:04.842Z</time>
      </trkpt>
      <trkpt lat="44.50698" lon="6.15285">
        <ele>752.79998779297</ele>
        <time>2020-12-04T13:06:08.426Z</time>
      </trkpt>
      <trkpt lat="44.50699" lon="6.15287">
        <ele>752.59997558594</ele>
        <time>2020-12-04T13:06:12.011Z</time>
      </trkpt>
      <trkpt lat="44.50699" lon="6.15292">
        <ele>752.40002441406</ele>
        <time>2020-12-04T13:06:15.597Z</time>
      </trkpt>
      <trkpt lat="44.50699" lon="6.15295">
        <ele>752.20001220703</ele>
        <time>2020-12-04T13:06:19.183Z</time>
      </trkpt>
      <trkpt lat="44.50701" lon="6.15307">
        <ele>751</ele>
        <time>2020-12-04T13:06:22.772Z</time>
      </trkpt>
      <trkpt lat="44.50708" lon="6.15326">
        <ele>749.59997558594</ele>
        <time>2020-12-04T13:06:26.366Z</time>
      </trkpt>
      <trkpt lat="44.50715" lon="6.1533">
        <ele>748.20001220703</ele>
        <time>2020-12-04T13:06:29.962Z</time>
      </trkpt>
      <trkpt lat="44.50725" lon="6.15333">
        <ele>748.20001220703</ele>
        <time>2020-12-04T13:06:33.561Z</time>
      </trkpt>
      <trkpt lat="44.50741" lon="6.15339">
        <ele>748.59997558594</ele>
        <time>2020-12-04T13:06:37.165Z</time>
      </trkpt>
      <trkpt lat="44.50745" lon="6.15341">
        <ele>748.79998779297</ele>
        <time>2020-12-04T13:06:40.771Z</time>
      </trkpt>
      <trkpt lat="44.5075" lon="6.15342">
        <ele>748.79998779297</ele>
        <time>2020-12-04T13:06:44.378Z</time>
      </trkpt>
      <trkpt lat="44.5076" lon="6.15347">
        <ele>749</ele>
        <time>2020-12-04T13:06:47.988Z</time>
      </trkpt>
      <trkpt lat="44.50763" lon="6.15349">
        <ele>749</ele>
        <time>2020-12-04T13:06:51.599Z</time>
      </trkpt>
      <trkpt lat="44.50765" lon="6.15352">
        <ele>749</ele>
        <time>2020-12-04T13:06:55.211Z</time>
      </trkpt>
      <trkpt lat="44.50767" lon="6.1536">
        <ele>748.59997558594</ele>
        <time>2020-12-04T13:06:58.825Z</time>
      </trkpt>
      <trkpt lat="44.50765" lon="6.15375">
        <ele>747.79998779297</ele>
        <time>2020-12-04T13:07:02.442Z</time>
      </trkpt>
      <trkpt lat="44.50764" lon="6.15379">
        <ele>747.20001220703</ele>
        <time>2020-12-04T13:07:06.060Z</time>
      </trkpt>
      <trkpt lat="44.50759" lon="6.15407">
        <ele>746.20001220703</ele>
        <time>2020-12-04T13:07:09.685Z</time>
      </trkpt>
      <trkpt lat="44.50758" lon="6.15413">
        <ele>746</ele>
        <time>2020-12-04T13:07:13.311Z</time>
      </trkpt>
      <trkpt lat="44.50757" lon="6.15432">
        <ele>744.59997558594</ele>
        <time>2020-12-04T13:07:16.941Z</time>
      </trkpt>
      <trkpt lat="44.50758" lon="6.15447">
        <ele>744.20001220703</ele>
        <time>2020-12-04T13:07:20.574Z</time>
      </trkpt>
      <trkpt lat="44.50763" lon="6.15469">
        <ele>743.59997558594</ele>
        <time>2020-12-04T13:07:24.212Z</time>
      </trkpt>
      <trkpt lat="44.50764" lon="6.15477">
        <ele>743.40002441406</ele>
        <time>2020-12-04T13:07:27.852Z</time>
      </trkpt>
      <trkpt lat="44.50768" lon="6.15499">
        <ele>742.40002441406</ele>
        <time>2020-12-04T13:07:31.497Z</time>
      </trkpt>
      <trkpt lat="44.50769" lon="6.15518">
        <ele>741.20001220703</ele>
        <time>2020-12-04T13:07:35.146Z</time>
      </trkpt>
      <trkpt lat="44.50766" lon="6.15535">
        <ele>740.20001220703</ele>
        <time>2020-12-04T13:07:38.799Z</time>
      </trkpt>
      <trkpt lat="44.50763" lon="6.15545">
        <ele>739.40002441406</ele>
        <time>2020-12-04T13:07:42.454Z</time>
      </trkpt>
      <trkpt lat="44.50759" lon="6.15551">
        <ele>739.20001220703</ele>
        <time>2020-12-04T13:07:46.111Z</time>
      </trkpt>
      <trkpt lat="44.50752" lon="6.15561">
        <ele>738.79998779297</ele>
        <time>2020-12-04T13:07:49.771Z</time>
      </trkpt>
      <trkpt lat="44.50748" lon="6.15566">
        <ele>738.40002441406</ele>
        <time>2020-12-04T13:07:53.433Z</time>
      </trkpt>
      <trkpt lat="44.50744" lon="6.15569">
        <ele>738.20001220703</ele>
        <time>2020-12-04T13:07:57.096Z</time>
      </trkpt>
      <trkpt lat="44.50739" lon="6.15572">
        <ele>738</ele>
        <time>2020-12-04T13:08:00.761Z</time>
      </trkpt>
      <trkpt lat="44.50735" lon="6.15573">
        <ele>737.59997558594</ele>
        <time>2020-12-04T13:08:04.427Z</time>
      </trkpt>
      <trkpt lat="44.50725" lon="6.15576">
        <ele>737</ele>
        <time>2020-12-04T13:08:08.096Z</time>
      </trkpt>
      <trkpt lat="44.50721" lon="6.15577">
        <ele>737</ele>
        <time>2020-12-04T13:08:11.766Z</time>
      </trkpt>
      <trkpt lat="44.50714" lon="6.15583">
        <ele>736.59997558594</ele>
        <time>2020-12-04T13:08:15.439Z</time>
      </trkpt>
      <trkpt lat="44.50707" lon="6.15592">
        <ele>736.40002441406</ele>
        <time>2020-12-04T13:08:19.115Z</time>
      </trkpt>
      <trkpt lat="44.507" lon="6.15601">
        <ele>736</ele>
        <time>2020-12-04T13:08:22.794Z</time>
      </trkpt>
      <trkpt lat="44.5069" lon="6.15607">
        <ele>735.20001220703</ele>
        <time>2020-12-04T13:08:26.476Z</time>
      </trkpt>
      <trkpt lat="44.50685" lon="6.15609">
        <ele>734.79998779297</ele>
        <time>2020-12-04T13:08:30.160Z</time>
      </trkpt>
      <trkpt lat="44.50679" lon="6.1561">
        <ele>734.59997558594</ele>
        <time>2020-12-04T13:08:33.845Z</time>
      </trkpt>
      <trkpt lat="44.5067" lon="6.15609">
        <ele>733.59997558594</ele>
        <time>2020-12-04T13:08:37.533Z</time>
      </trkpt>
      <trkpt lat="44.50665" lon="6.15608">
        <ele>733.20001220703</ele>
        <time>2020-12-04T13:08:41.223Z</time>
      </trkpt>
      <trkpt lat="44.50661" lon="6.15606">
        <ele>733</ele>
        <time>2020-12-04T13:08:44.914Z</time>
      </trkpt>
      <trkpt lat="44.50649" lon="6.15606">
        <ele>732.59997558594</ele>
        <time>2020-12-04T13:08:48.608Z</time>
      </trkpt>
      <trkpt lat="44.50646" lon="6.15609">
        <ele>732.59997558594</ele>
        <time>2020-12-04T13:08:52.304Z</time>
      </trkpt>
      <trkpt lat="44.50638" lon="6.15617">
        <ele>732.40002441406</ele>
        <time>2020-12-04T13:08:56.003Z</time>
      </trkpt>
      <trkpt lat="44.50634" lon="6.15622">
        <ele>732.40002441406</ele>
        <time>2020-12-04T13:08:59.703Z</time>
      </trkpt>
      <trkpt lat="44.50627" lon="6.15631">
        <ele>732</ele>
        <time>2020-12-04T13:09:03.406Z</time>
      </trkpt>
      <trkpt lat="44.50622" lon="6.15634">
        <ele>731.59997558594</ele>
        <time>2020-12-04T13:09:07.111Z</time>
      </trkpt>
      <trkpt lat="44.50613" lon="6.15637">
        <ele>731</ele>
        <time>2020-12-04T13:09:10.819Z</time>
      </trkpt>
      <trkpt lat="44.50609" lon="6.15637">
        <ele>730.59997558594</ele>
        <time>2020-12-04T13:09:14.528Z</time>
      </trkpt>
      <trkpt lat="44.50601" lon="6.15634">
        <ele>729.40002441406</ele>
        <time>2020-12-04T13:09:18.239Z</time>
      </trkpt>
      <trkpt lat="44.50596" lon="6.15632">
        <ele>729</ele>
        <time>2020-12-04T13:09:21.952Z</time>
      </trkpt>
      <trkpt lat="44.50571" lon="6.15615">
        <ele>728.40002441406</ele>
        <time>2020-12-04T13:09:25.673Z</time>
      </trkpt>
      <trkpt lat="44.50566" lon="6.15611">
        <ele>728.20001220703</ele>
        <time>2020-12-04T13:09:29.396Z</time>
      </trkpt>
      <trkpt lat="44.50537" lon="6.15591">
        <ele>727.59997558594</ele>
        <time>2020-12-04T13:09:33.129Z</time>
      </trkpt>
      <trkpt lat="44.50519" lon="6.15581">
        <ele>727.20001220703</ele>
        <time>2020-12-04T13:09:36.868Z</time>
      </trkpt>
      <trkpt lat="44.50509" lon="6.15574">
        <ele>726.40002441406</ele>
        <time>2020-12-04T13:09:40.610Z</time>
      </trkpt>
      <trkpt lat="44.50494" lon="6.15563">
        <ele>726</ele>
        <time>2020-12-04T13:09:44.357Z</time>
      </trkpt>
      <trkpt lat="44.50483" lon="6.15555">
        <ele>725.40002441406</ele>
        <time>2020-12-04T13:09:48.108Z</time>
      </trkpt>
      <trkpt lat="44.50466" lon="6.15541">
        <ele>724.40002441406</ele>
        <time>2020-12-04T13:09:51.865Z</time>
      </trkpt>
      <trkpt lat="44.50456" lon="6.1553">
        <ele>724.20001220703</ele>
        <time>2020-12-04T13:09:55.626Z</time>
      </trkpt>
      <trkpt lat="44.5044" lon="6.15512">
        <ele>723.40002441406</ele>
        <time>2020-12-04T13:09:59.393Z</time>
      </trkpt>
      <trkpt lat="44.50422" lon="6.15486">
        <ele>722.59997558594</ele>
        <time>2020-12-04T13:10:03.168Z</time>
      </trkpt>
      <trkpt lat="44.50416" lon="6.15476">
        <ele>722.59997558594</ele>
        <time>2020-12-04T13:10:06.946Z</time>
      </trkpt>
      <trkpt lat="44.5041" lon="6.15465">
        <ele>722.20001220703</ele>
        <time>2020-12-04T13:10:10.727Z</time>
      </trkpt>
      <trkpt lat="44.50395" lon="6.15436">
        <ele>721.59997558594</ele>
        <time>2020-12-04T13:10:14.516Z</time>
      </trkpt>
      <trkpt lat="44.50387" lon="6.1542">
        <ele>721.20001220703</ele>
        <time>2020-12-04T13:10:18.309Z</time>
      </trkpt>
      <trkpt lat="44.50374" lon="6.15393">
        <ele>720.40002441406</ele>
        <time>2020-12-04T13:10:22.109Z</time>
      </trkpt>
      <trkpt lat="44.50356" lon="6.15361">
        <ele>719.79998779297</ele>
        <time>2020-12-04T13:10:25.918Z</time>
      </trkpt>
      <trkpt lat="44.50345" lon="6.15347">
        <ele>719.20001220703</ele>
        <time>2020-12-04T13:10:29.731Z</time>
      </trkpt>
      <trkpt lat="44.50326" lon="6.15328">
        <ele>718.59997558594</ele>
        <time>2020-12-04T13:10:33.551Z</time>
      </trkpt>
      <trkpt lat="44.50314" lon="6.15316">
        <ele>718.40002441406</ele>
        <time>2020-12-04T13:10:37.376Z</time>
      </trkpt>
      <trkpt lat="44.50297" lon="6.15298">
        <ele>718.20001220703</ele>
        <time>2020-12-04T13:10:41.207Z</time>
      </trkpt>
      <trkpt lat="44.50292" lon="6.15291">
        <ele>718.20001220703</ele>
        <time>2020-12-04T13:10:45.041Z</time>
      </trkpt>
      <trkpt lat="44.50269" lon="6.15255">
        <ele>717.79998779297</ele>
        <time>2020-12-04T13:10:48.885Z</time>
      </trkpt>
      <trkpt lat="44.50261" lon="6.15241">
        <ele>717.79998779297</ele>
        <time>2020-12-04T13:10:52.733Z</time>
      </trkpt>
      <trkpt lat="44.50252" lon="6.1523">
        <ele>718</ele>
        <time>2020-12-04T13:10:56.584Z</time>
      </trkpt>
      <trkpt lat="44.50247" lon="6.15225">
        <ele>718.20001220703</ele>
        <time>2020-12-04T13:11:00.437Z</time>
      </trkpt>
      <trkpt lat="44.50229" lon="6.15206">
        <ele>718</ele>
        <time>2020-12-04T13:11:04.297Z</time>
      </trkpt>
      <trkpt lat="44.5022" lon="6.15196">
        <ele>717.59997558594</ele>
        <time>2020-12-04T13:11:08.161Z</time>
      </trkpt>
      <trkpt lat="44.50214" lon="6.15193">
        <ele>717.40002441406</ele>
        <time>2020-12-04T13:11:12.027Z</time>
      </trkpt>
      <trkpt lat="44.50207" lon="6.15193">
        <ele>717.20001220703</ele>
        <time>2020-12-04T13:11:15.895Z</time>
      </trkpt>
      <trkpt lat="44.50184" lon="6.15178">
        <ele>716.79998779297</ele>
        <time>2020-12-04T13:11:19.770Z</time>
      </trkpt>
      <trkpt lat="44.50173" lon="6.15147">
        <ele>716.79998779297</ele>
        <time>2020-12-04T13:11:23.653Z</time>
      </trkpt>
      <trkpt lat="44.50172" lon="6.15139">
        <ele>716.79998779297</ele>
        <time>2020-12-04T13:11:27.538Z</time>
      </trkpt>
      <trkpt lat="44.50169" lon="6.15116">
        <ele>716.59997558594</ele>
        <time>2020-12-04T13:11:31.428Z</time>
      </trkpt>
      <trkpt lat="44.50168" lon="6.15109">
        <ele>716.59997558594</ele>
        <time>2020-12-04T13:11:35.319Z</time>
      </trkpt>
      <trkpt lat="44.50163" lon="6.15088">
        <ele>716.40002441406</ele>
        <time>2020-12-04T13:11:39.215Z</time>
      </trkpt>
      <trkpt lat="44.50159" lon="6.15073">
        <ele>716.40002441406</ele>
        <time>2020-12-04T13:11:43.114Z</time>
      </trkpt>
      <trkpt lat="44.50153" lon="6.15059">
        <ele>716.79998779297</ele>
        <time>2020-12-04T13:11:47.017Z</time>
      </trkpt>
      <trkpt lat="44.50145" lon="6.15048">
        <ele>716.79998779297</ele>
        <time>2020-12-04T13:11:50.923Z</time>
      </trkpt>
      <trkpt lat="44.50141" lon="6.15042">
        <ele>716.79998779297</ele>
        <time>2020-12-04T13:11:54.831Z</time>
      </trkpt>
      <trkpt lat="44.50136" lon="6.15038">
        <ele>716.79998779297</ele>
        <time>2020-12-04T13:11:58.741Z</time>
      </trkpt>
      <trkpt lat="44.50126" lon="6.15029">
        <ele>716.59997558594</ele>
        <time>2020-12-04T13:12:02.655Z</time>
      </trkpt>
      <trkpt lat="44.5012" lon="6.15026">
        <ele>716.59997558594</ele>
        <time>2020-12-04T13:12:06.570Z</time>
      </trkpt>
      <trkpt lat="44.50094" lon="6.15011">
        <ele>716.40002441406</ele>
        <time>2020-12-04T13:12:10.494Z</time>
      </trkpt>
      <trkpt lat="44.5007" lon="6.14995">
        <ele>716.59997558594</ele>
        <time>2020-12-04T13:12:14.426Z</time>
      </trkpt>
      <trkpt lat="44.50038" lon="6.14966">
        <ele>717</ele>
        <time>2020-12-04T13:12:18.370Z</time>
      </trkpt>
      <trkpt lat="44.50033" lon="6.14963">
        <ele>716.79998779297</ele>
        <time>2020-12-04T13:12:22.315Z</time>
      </trkpt>
      <trkpt lat="44.50015" lon="6.14953">
        <ele>716.40002441406</ele>
        <time>2020-12-04T13:12:26.266Z</time>
      </trkpt>
      <trkpt lat="44.5001" lon="6.1495">
        <ele>716.40002441406</ele>
        <time>2020-12-04T13:12:30.219Z</time>
      </trkpt>
      <trkpt lat="44.49994" lon="6.14931">
        <ele>716</ele>
        <time>2020-12-04T13:12:34.178Z</time>
      </trkpt>
      <trkpt lat="44.4999" lon="6.14926">
        <ele>715.79998779297</ele>
        <time>2020-12-04T13:12:38.139Z</time>
      </trkpt>
      <trkpt lat="44.49975" lon="6.14904">
        <ele>715.40002441406</ele>
        <time>2020-12-04T13:12:42.106Z</time>
      </trkpt>
      <trkpt lat="44.49971" lon="6.14898">
        <ele>715.59997558594</ele>
        <time>2020-12-04T13:12:46.075Z</time>
      </trkpt>
      <trkpt lat="44.49955" lon="6.14878">
        <ele>715.59997558594</ele>
        <time>2020-12-04T13:12:50.051Z</time>
      </trkpt>
      <trkpt lat="44.49951" lon="6.14871">
        <ele>715.59997558594</ele>
        <time>2020-12-04T13:12:54.029Z</time>
      </trkpt>
      <trkpt lat="44.49935" lon="6.14851">
        <ele>715.40002441406</ele>
        <time>2020-12-04T13:12:58.013Z</time>
      </trkpt>
      <trkpt lat="44.49931" lon="6.14847">
        <ele>715.40002441406</ele>
        <time>2020-12-04T13:13:01.999Z</time>
      </trkpt>
      <trkpt lat="44.49915" lon="6.14828">
        <ele>715.40002441406</ele>
        <time>2020-12-04T13:13:05.991Z</time>
      </trkpt>
      <trkpt lat="44.4991" lon="6.14824">
        <ele>715.20001220703</ele>
        <time>2020-12-04T13:13:09.985Z</time>
      </trkpt>
      <trkpt lat="44.4989" lon="6.14799">
        <ele>715</ele>
        <time>2020-12-04T13:13:13.987Z</time>
      </trkpt>
      <trkpt lat="44.49878" lon="6.14783">
        <ele>714.59997558594</ele>
        <time>2020-12-04T13:13:17.994Z</time>
      </trkpt>
      <trkpt lat="44.4987" lon="6.14775">
        <ele>714.40002441406</ele>
        <time>2020-12-04T13:13:22.004Z</time>
      </trkpt>
      <trkpt lat="44.49867" lon="6.14771">
        <ele>714.40002441406</ele>
        <time>2020-12-04T13:13:26.015Z</time>
      </trkpt>
      <trkpt lat="44.49863" lon="6.14767">
        <ele>714.40002441406</ele>
        <time>2020-12-04T13:13:30.028Z</time>
      </trkpt>
      <trkpt lat="44.49852" lon="6.14756">
        <ele>714.59997558594</ele>
        <time>2020-12-04T13:13:34.045Z</time>
      </trkpt>
      <trkpt lat="44.49835" lon="6.14749">
        <ele>714.59997558594</ele>
        <time>2020-12-04T13:13:38.067Z</time>
      </trkpt>
      <trkpt lat="44.49828" lon="6.14742">
        <ele>714.59997558594</ele>
        <time>2020-12-04T13:13:42.092Z</time>
      </trkpt>
      <trkpt lat="44.49818" lon="6.14727">
        <ele>714.79998779297</ele>
        <time>2020-12-04T13:13:46.121Z</time>
      </trkpt>
      <trkpt lat="44.49811" lon="6.14711">
        <ele>715</ele>
        <time>2020-12-04T13:13:50.154Z</time>
      </trkpt>
      <trkpt lat="44.49808" lon="6.14705">
        <ele>715</ele>
        <time>2020-12-04T13:13:54.189Z</time>
      </trkpt>
      <trkpt lat="44.49804" lon="6.14701">
        <ele>715</ele>
        <time>2020-12-04T13:13:58.225Z</time>
      </trkpt>
      <trkpt lat="44.49793" lon="6.14693">
        <ele>714.79998779297</ele>
        <time>2020-12-04T13:14:02.265Z</time>
      </trkpt>
      <trkpt lat="44.49785" lon="6.14688">
        <ele>714.79998779297</ele>
        <time>2020-12-04T13:14:06.308Z</time>
      </trkpt>
      <trkpt lat="44.49778" lon="6.1468">
        <ele>715</ele>
        <time>2020-12-04T13:14:10.354Z</time>
      </trkpt>
      <trkpt lat="44.4977" lon="6.14667">
        <ele>714.79998779297</ele>
        <time>2020-12-04T13:14:14.403Z</time>
      </trkpt>
      <trkpt lat="44.49762" lon="6.14655">
        <ele>714.79998779297</ele>
        <time>2020-12-04T13:14:18.456Z</time>
      </trkpt>
      <trkpt lat="44.49749" lon="6.14638">
        <ele>715.59997558594</ele>
        <time>2020-12-04T13:14:22.514Z</time>
      </trkpt>
      <trkpt lat="44.49743" lon="6.14634">
        <ele>715.79998779297</ele>
        <time>2020-12-04T13:14:26.574Z</time>
      </trkpt>
      <trkpt lat="44.49733" lon="6.14629">
        <ele>716</ele>
        <time>2020-12-04T13:14:30.637Z</time>
      </trkpt>
      <trkpt lat="44.49727" lon="6.14624">
        <ele>715.59997558594</ele>
        <time>2020-12-04T13:14:34.703Z</time>
      </trkpt>
      <trkpt lat="44.49722" lon="6.14622">
        <ele>715.59997558594</ele>
        <time>2020-12-04T13:14:38.770Z</time>
      </trkpt>
      <trkpt lat="44.49707" lon="6.14618">
        <ele>715.20001220703</ele>
        <time>2020-12-04T13:14:42.842Z</time>
      </trkpt>
      <trkpt lat="44.49703" lon="6.14615">
        <ele>715.20001220703</ele>
        <time>2020-12-04T13:14:46.915Z</time>
      </trkpt>
      <trkpt lat="44.49693" lon="6.14607">
        <ele>715</ele>
        <time>2020-12-04T13:14:50.992Z</time>
      </trkpt>
      <trkpt lat="44.49686" lon="6.146">
        <ele>714.79998779297</ele>
        <time>2020-12-04T13:14:55.071Z</time>
      </trkpt>
      <trkpt lat="44.49678" lon="6.14592">
        <ele>714.79998779297</ele>
        <time>2020-12-04T13:14:59.153Z</time>
      </trkpt>
      <trkpt lat="44.49668" lon="6.1458">
        <ele>715</ele>
        <time>2020-12-04T13:15:03.239Z</time>
      </trkpt>
      <trkpt lat="44.4966" lon="6.14561">
        <ele>715.79998779297</ele>
        <time>2020-12-04T13:15:07.330Z</time>
      </trkpt>
      <trkpt lat="44.49658" lon="6.14556">
        <ele>716</ele>
        <time>2020-12-04T13:15:11.422Z</time>
      </trkpt>
      <trkpt lat="44.49648" lon="6.14541">
        <ele>716.79998779297</ele>
        <time>2020-12-04T13:15:15.519Z</time>
      </trkpt>
      <trkpt lat="44.49645" lon="6.14538">
        <ele>717.20001220703</ele>
        <time>2020-12-04T13:15:19.617Z</time>
      </trkpt>
      <trkpt lat="44.49636" lon="6.1452">
        <ele>717.79998779297</ele>
        <time>2020-12-04T13:15:23.720Z</time>
      </trkpt>
      <trkpt lat="44.49633" lon="6.14517">
        <ele>718.20001220703</ele>
        <time>2020-12-04T13:15:27.824Z</time>
      </trkpt>
      <trkpt lat="44.49628" lon="6.14509">
        <ele>718.59997558594</ele>
        <time>2020-12-04T13:15:31.930Z</time>
      </trkpt>
      <trkpt lat="44.49625" lon="6.14505">
        <ele>719</ele>
        <time>2020-12-04T13:15:36.037Z</time>
      </trkpt>
      <trkpt lat="44.49614" lon="6.14487">
        <ele>719.20001220703</ele>
        <time>2020-12-04T13:15:40.149Z</time>
      </trkpt>
      <trkpt lat="44.49604" lon="6.14467">
        <ele>718.79998779297</ele>
        <time>2020-12-04T13:15:44.267Z</time>
      </trkpt>
      <trkpt lat="44.49601" lon="6.14456">
        <ele>718.79998779297</ele>
        <time>2020-12-04T13:15:48.387Z</time>
      </trkpt>
      <trkpt lat="44.49599" lon="6.14451">
        <ele>718.79998779297</ele>
        <time>2020-12-04T13:15:52.509Z</time>
      </trkpt>
      <trkpt lat="44.49594" lon="6.14429">
        <ele>718.59997558594</ele>
        <time>2020-12-04T13:15:56.635Z</time>
      </trkpt>
      <trkpt lat="44.49589" lon="6.14405">
        <ele>719.20001220703</ele>
        <time>2020-12-04T13:16:00.767Z</time>
      </trkpt>
      <trkpt lat="44.49587" lon="6.14395">
        <ele>719.40002441406</ele>
        <time>2020-12-04T13:16:04.901Z</time>
      </trkpt>
      <trkpt lat="44.49587" lon="6.1438">
        <ele>719.79998779297</ele>
        <time>2020-12-04T13:16:09.038Z</time>
      </trkpt>
      <trkpt lat="44.49587" lon="6.14356">
        <ele>720</ele>
        <time>2020-12-04T13:16:13.181Z</time>
      </trkpt>
      <trkpt lat="44.49586" lon="6.14351">
        <ele>720</ele>
        <time>2020-12-04T13:16:17.325Z</time>
      </trkpt>
      <trkpt lat="44.49586" lon="6.14327">
        <ele>720</ele>
        <time>2020-12-04T13:16:21.474Z</time>
      </trkpt>
      <trkpt lat="44.49586" lon="6.1432">
        <ele>720</ele>
        <time>2020-12-04T13:16:25.624Z</time>
      </trkpt>
      <trkpt lat="44.49585" lon="6.14314">
        <ele>720</ele>
        <time>2020-12-04T13:16:29.776Z</time>
      </trkpt>
      <trkpt lat="44.4958" lon="6.14289">
        <ele>719.79998779297</ele>
        <time>2020-12-04T13:16:33.933Z</time>
      </trkpt>
      <trkpt lat="44.49576" lon="6.14266">
        <ele>719</ele>
        <time>2020-12-04T13:16:38.095Z</time>
      </trkpt>
      <trkpt lat="44.49574" lon="6.14256">
        <ele>719</ele>
        <time>2020-12-04T13:16:42.260Z</time>
      </trkpt>
      <trkpt lat="44.4957" lon="6.14236">
        <ele>719.20001220703</ele>
        <time>2020-12-04T13:16:46.429Z</time>
      </trkpt>
      <trkpt lat="44.49568" lon="6.14207">
        <ele>719.59997558594</ele>
        <time>2020-12-04T13:16:50.605Z</time>
      </trkpt>
      <trkpt lat="44.49568" lon="6.14201">
        <ele>719.59997558594</ele>
        <time>2020-12-04T13:16:54.782Z</time>
      </trkpt>
      <trkpt lat="44.49569" lon="6.14185">
        <ele>720</ele>
        <time>2020-12-04T13:16:58.962Z</time>
      </trkpt>
      <trkpt lat="44.4957" lon="6.1416">
        <ele>720.20001220703</ele>
        <time>2020-12-04T13:17:03.148Z</time>
      </trkpt>
      <trkpt lat="44.4957" lon="6.14154">
        <ele>720.40002441406</ele>
        <time>2020-12-04T13:17:07.335Z</time>
      </trkpt>
      <trkpt lat="44.49569" lon="6.14139">
        <ele>720.79998779297</ele>
        <time>2020-12-04T13:17:11.525Z</time>
      </trkpt>
      <trkpt lat="44.49569" lon="6.14127">
        <ele>720.79998779297</ele>
        <time>2020-12-04T13:17:15.718Z</time>
      </trkpt>
      <trkpt lat="44.49568" lon="6.14106">
        <ele>720.79998779297</ele>
        <time>2020-12-04T13:17:19.916Z</time>
      </trkpt>
      <trkpt lat="44.49567" lon="6.14082">
        <ele>720.40002441406</ele>
        <time>2020-12-04T13:17:24.119Z</time>
      </trkpt>
      <trkpt lat="44.49568" lon="6.14076">
        <ele>720.40002441406</ele>
        <time>2020-12-04T13:17:28.323Z</time>
      </trkpt>
      <trkpt lat="44.49568" lon="6.14069">
        <ele>720.40002441406</ele>
        <time>2020-12-04T13:17:32.529Z</time>
      </trkpt>
      <trkpt lat="44.49567" lon="6.14053">
        <ele>720.79998779297</ele>
        <time>2020-12-04T13:17:36.738Z</time>
      </trkpt>
      <trkpt lat="44.49567" lon="6.14047">
        <ele>720.79998779297</ele>
        <time>2020-12-04T13:17:40.948Z</time>
      </trkpt>
      <trkpt lat="44.49562" lon="6.14024">
        <ele>721.20001220703</ele>
        <time>2020-12-04T13:17:45.164Z</time>
      </trkpt>
      <trkpt lat="44.49556" lon="6.13993">
        <ele>720.59997558594</ele>
        <time>2020-12-04T13:17:49.387Z</time>
      </trkpt>
      <trkpt lat="44.49554" lon="6.13987">
        <ele>720.40002441406</ele>
        <time>2020-12-04T13:17:53.611Z</time>
      </trkpt>
      <trkpt lat="44.49551" lon="6.13972">
        <ele>719.79998779297</ele>
        <time>2020-12-04T13:17:57.838Z</time>
      </trkpt>
      <trkpt lat="44.49549" lon="6.13964">
        <ele>719.20001220703</ele>
        <time>2020-12-04T13:18:02.067Z</time>
      </trkpt>
      <trkpt lat="44.49545" lon="6.13956">
        <ele>718.79998779297</ele>
        <time>2020-12-04T13:18:06.298Z</time>
      </trkpt>
      <trkpt lat="44.49541" lon="6.13948">
        <ele>718.20001220703</ele>
        <time>2020-12-04T13:18:10.531Z</time>
      </trkpt>
      <trkpt lat="44.49538" lon="6.13941">
        <ele>717.59997558594</ele>
        <time>2020-12-04T13:18:14.766Z</time>
      </trkpt>
      <trkpt lat="44.49532" lon="6.13931">
        <ele>716.79998779297</ele>
        <time>2020-12-04T13:18:19.004Z</time>
      </trkpt>
      <trkpt lat="44.49529" lon="6.13922">
        <ele>716.20001220703</ele>
        <time>2020-12-04T13:18:23.244Z</time>
      </trkpt>
      <trkpt lat="44.49525" lon="6.13915">
        <ele>716</ele>
        <time>2020-12-04T13:18:27.486Z</time>
      </trkpt>
      <trkpt lat="44.49524" lon="6.13906">
        <ele>715.59997558594</ele>
        <time>2020-12-04T13:18:31.730Z</time>
      </trkpt>
      <trkpt lat="44.49521" lon="6.13887">
        <ele>714.20001220703</ele>
        <time>2020-12-04T13:18:35.978Z</time>
      </trkpt>
      <trkpt lat="44.49518" lon="6.13858">
        <ele>713</ele>
        <time>2020-12-04T13:18:40.233Z</time>
      </trkpt>
      <trkpt lat="44.49517" lon="6.13849">
        <ele>712.59997558594</ele>
        <time>2020-12-04T13:18:44.490Z</time>
      </trkpt>
      <trkpt lat="44.49517" lon="6.13841">
        <ele>712.59997558594</ele>
        <time>2020-12-04T13:18:48.748Z</time>
      </trkpt>
      <trkpt lat="44.49516" lon="6.13833">
        <ele>712.40002441406</ele>
        <time>2020-12-04T13:18:53.008Z</time>
      </trkpt>
      <trkpt lat="44.49515" lon="6.13825">
        <ele>712.40002441406</ele>
        <time>2020-12-04T13:18:57.270Z</time>
      </trkpt>
      <trkpt lat="44.49511" lon="6.13803">
        <ele>712.20001220703</ele>
        <time>2020-12-04T13:19:01.537Z</time>
      </trkpt>
      <trkpt lat="44.4951" lon="6.13788">
        <ele>712.40002441406</ele>
        <time>2020-12-04T13:19:05.807Z</time>
      </trkpt>
      <trkpt lat="44.49508" lon="6.13759">
        <ele>712.59997558594</ele>
        <time>2020-12-04T13:19:10.083Z</time>
      </trkpt>
      <trkpt lat="44.49505" lon="6.13722">
        <ele>712.20001220703</ele>
        <time>2020-12-04T13:19:14.368Z</time>
      </trkpt>
      <trkpt lat="44.49503" lon="6.13708">
        <ele>712.20001220703</ele>
        <time>2020-12-04T13:19:18.656Z</time>
      </trkpt>
      <trkpt lat="44.49501" lon="6.13694">
        <ele>712</ele>
        <time>2020-12-04T13:19:22.947Z</time>
      </trkpt>
      <trkpt lat="44.495" lon="6.1368">
        <ele>712.20001220703</ele>
        <time>2020-12-04T13:19:27.241Z</time>
      </trkpt>
      <trkpt lat="44.495" lon="6.13674">
        <ele>712.20001220703</ele>
        <time>2020-12-04T13:19:31.536Z</time>
      </trkpt>
      <trkpt lat="44.49499" lon="6.13654">
        <ele>712.59997558594</ele>
        <time>2020-12-04T13:19:35.835Z</time>
      </trkpt>
      <trkpt lat="44.49499" lon="6.13648">
        <ele>712.40002441406</ele>
        <time>2020-12-04T13:19:40.136Z</time>
      </trkpt>
      <trkpt lat="44.49497" lon="6.13634">
        <ele>712</ele>
        <time>2020-12-04T13:19:44.440Z</time>
      </trkpt>
      <trkpt lat="44.49495" lon="6.13621">
        <ele>711.79998779297</ele>
        <time>2020-12-04T13:19:48.747Z</time>
      </trkpt>
      <trkpt lat="44.49496" lon="6.13589">
        <ele>712</ele>
        <time>2020-12-04T13:19:53.061Z</time>
      </trkpt>
      <trkpt lat="44.49497" lon="6.13582">
        <ele>712</ele>
        <time>2020-12-04T13:19:57.376Z</time>
      </trkpt>
      <trkpt lat="44.49501" lon="6.13559">
        <ele>712.20001220703</ele>
        <time>2020-12-04T13:20:01.696Z</time>
      </trkpt>
      <trkpt lat="44.49503" lon="6.13548">
        <ele>712.79998779297</ele>
        <time>2020-12-04T13:20:06.019Z</time>
      </trkpt>
      <trkpt lat="44.49504" lon="6.13541">
        <ele>713</ele>
        <time>2020-12-04T13:20:10.343Z</time>
      </trkpt>
      <trkpt lat="44.49504" lon="6.13527">
        <ele>713</ele>
        <time>2020-12-04T13:20:14.670Z</time>
      </trkpt>
      <trkpt lat="44.49504" lon="6.1352">
        <ele>713</ele>
        <time>2020-12-04T13:20:18.999Z</time>
      </trkpt>
      <trkpt lat="44.49504" lon="6.13506">
        <ele>712.79998779297</ele>
        <time>2020-12-04T13:20:23.331Z</time>
      </trkpt>
      <trkpt lat="44.49502" lon="6.13486">
        <ele>713</ele>
        <time>2020-12-04T13:20:27.667Z</time>
      </trkpt>
      <trkpt lat="44.495" lon="6.13466">
        <ele>712.40002441406</ele>
        <time>2020-12-04T13:20:32.008Z</time>
      </trkpt>
      <trkpt lat="44.495" lon="6.13454">
        <ele>712</ele>
        <time>2020-12-04T13:20:36.351Z</time>
      </trkpt>
      <trkpt lat="44.495" lon="6.13443">
        <ele>712</ele>
        <time>2020-12-04T13:20:40.697Z</time>
      </trkpt>
      <trkpt lat="44.49499" lon="6.13432">
        <ele>712.20001220703</ele>
        <time>2020-12-04T13:20:45.045Z</time>
      </trkpt>
      <trkpt lat="44.49498" lon="6.13413">
        <ele>712.40002441406</ele>
        <time>2020-12-04T13:20:49.397Z</time>
      </trkpt>
      <trkpt lat="44.49498" lon="6.13407">
        <ele>712.40002441406</ele>
        <time>2020-12-04T13:20:53.751Z</time>
      </trkpt>
      <trkpt lat="44.49503" lon="6.1339">
        <ele>712.59997558594</ele>
        <time>2020-12-04T13:20:58.109Z</time>
      </trkpt>
      <trkpt lat="44.49506" lon="6.13384">
        <ele>712.59997558594</ele>
        <time>2020-12-04T13:21:02.468Z</time>
      </trkpt>
      <trkpt lat="44.4951" lon="6.13375">
        <ele>713.20001220703</ele>
        <time>2020-12-04T13:21:06.829Z</time>
      </trkpt>
      <trkpt lat="44.49517" lon="6.13366">
        <ele>713.59997558594</ele>
        <time>2020-12-04T13:21:11.193Z</time>
      </trkpt>
      <trkpt lat="44.49527" lon="6.13358">
        <ele>714.40002441406</ele>
        <time>2020-12-04T13:21:15.561Z</time>
      </trkpt>
      <trkpt lat="44.4953" lon="6.13354">
        <ele>714.40002441406</ele>
        <time>2020-12-04T13:21:19.930Z</time>
      </trkpt>
      <trkpt lat="44.49533" lon="6.13349">
        <ele>714.59997558594</ele>
        <time>2020-12-04T13:21:24.301Z</time>
      </trkpt>
      <trkpt lat="44.49537" lon="6.1334">
        <ele>714.40002441406</ele>
        <time>2020-12-04T13:21:28.674Z</time>
      </trkpt>
      <trkpt lat="44.49537" lon="6.13336">
        <ele>714.40002441406</ele>
        <time>2020-12-04T13:21:33.048Z</time>
      </trkpt>
      <trkpt lat="44.49538" lon="6.13336">
        <ele>714.20001220703</ele>
        <time>2020-12-04T13:21:37.422Z</time>
      </trkpt>
      <trkpt lat="44.49538" lon="6.13335">
        <ele>714</ele>
        <time>2020-12-04T13:21:41.796Z</time>
      </trkpt>
      <trkpt lat="44.4954" lon="6.13323">
        <ele>713.59997558594</ele>
        <time>2020-12-04T13:21:46.173Z</time>
      </trkpt>
      <trkpt lat="44.4954" lon="6.13319">
        <ele>713.59997558594</ele>
        <time>2020-12-04T13:21:50.551Z</time>
      </trkpt>
      <trkpt lat="44.49544" lon="6.13299">
        <ele>713.59997558594</ele>
        <time>2020-12-04T13:21:54.933Z</time>
      </trkpt>
      <trkpt lat="44.49543" lon="6.13283">
        <ele>713.59997558594</ele>
        <time>2020-12-04T13:21:59.318Z</time>
      </trkpt>
      <trkpt lat="44.4954" lon="6.13269">
        <ele>713.59997558594</ele>
        <time>2020-12-04T13:22:03.707Z</time>
      </trkpt>
      <trkpt lat="44.49545" lon="6.1326">
        <ele>713.59997558594</ele>
        <time>2020-12-04T13:22:08.098Z</time>
      </trkpt>
      <trkpt lat="44.49547" lon="6.13255">
        <ele>713.40002441406</ele>
        <time>2020-12-04T13:22:12.490Z</time>
      </trkpt>
      <trkpt lat="44.4956" lon="6.13217">
        <ele>713</ele>
        <time>2020-12-04T13:22:16.891Z</time>
      </trkpt>
      <trkpt lat="44.49564" lon="6.13198">
        <ele>712.79998779297</ele>
        <time>2020-12-04T13:22:21.297Z</time>
      </trkpt>
      <trkpt lat="44.49568" lon="6.13179">
        <ele>713</ele>
        <time>2020-12-04T13:22:25.707Z</time>
      </trkpt>
      <trkpt lat="44.49572" lon="6.13161">
        <ele>712.79998779297</ele>
        <time>2020-12-04T13:22:30.121Z</time>
      </trkpt>
      <trkpt lat="44.49573" lon="6.13155">
        <ele>712.79998779297</ele>
        <time>2020-12-04T13:22:34.536Z</time>
      </trkpt>
      <trkpt lat="44.49574" lon="6.13143">
        <ele>712.59997558594</ele>
        <time>2020-12-04T13:22:38.954Z</time>
      </trkpt>
      <trkpt lat="44.49571" lon="6.13105">
        <ele>712.20001220703</ele>
        <time>2020-12-04T13:22:43.380Z</time>
      </trkpt>
      <trkpt lat="44.49571" lon="6.13099">
        <ele>712.20001220703</ele>
        <time>2020-12-04T13:22:47.808Z</time>
      </trkpt>
      <trkpt lat="44.49569" lon="6.1308">
        <ele>712.40002441406</ele>
        <time>2020-12-04T13:22:52.240Z</time>
      </trkpt>
      <trkpt lat="44.49568" lon="6.13068">
        <ele>712.59997558594</ele>
        <time>2020-12-04T13:22:56.675Z</time>
      </trkpt>
      <trkpt lat="44.49568" lon="6.13049">
        <ele>712.40002441406</ele>
        <time>2020-12-04T13:23:01.114Z</time>
      </trkpt>
      <trkpt lat="44.49569" lon="6.13027">
        <ele>712.40002441406</ele>
        <time>2020-12-04T13:23:05.557Z</time>
      </trkpt>
      <trkpt lat="44.49569" lon="6.13022">
        <ele>712.59997558594</ele>
        <time>2020-12-04T13:23:10.002Z</time>
      </trkpt>
      <trkpt lat="44.49569" lon="6.13003">
        <ele>712.79998779297</ele>
        <time>2020-12-04T13:23:14.451Z</time>
      </trkpt>
      <trkpt lat="44.49568" lon="6.12989">
        <ele>712.40002441406</ele>
        <time>2020-12-04T13:23:18.903Z</time>
      </trkpt>
      <trkpt lat="44.49565" lon="6.12969">
        <ele>712.40002441406</ele>
        <time>2020-12-04T13:23:23.359Z</time>
      </trkpt>
      <trkpt lat="44.49561" lon="6.1295">
        <ele>712.40002441406</ele>
        <time>2020-12-04T13:23:27.819Z</time>
      </trkpt>
      <trkpt lat="44.49559" lon="6.1294">
        <ele>712.20001220703</ele>
        <time>2020-12-04T13:23:32.282Z</time>
      </trkpt>
      <trkpt lat="44.49557" lon="6.12935">
        <ele>712</ele>
        <time>2020-12-04T13:23:36.746Z</time>
      </trkpt>
      <trkpt lat="44.49548" lon="6.1292">
        <ele>711.59997558594</ele>
        <time>2020-12-04T13:23:41.214Z</time>
      </trkpt>
      <trkpt lat="44.49542" lon="6.12912">
        <ele>711.59997558594</ele>
        <time>2020-12-04T13:23:45.685Z</time>
      </trkpt>
      <trkpt lat="44.49525" lon="6.12895">
        <ele>711.59997558594</ele>
        <time>2020-12-04T13:23:50.162Z</time>
      </trkpt>
      <trkpt lat="44.49521" lon="6.12891">
        <ele>711.40002441406</ele>
        <time>2020-12-04T13:23:54.641Z</time>
      </trkpt>
      <trkpt lat="44.49502" lon="6.12874">
        <ele>711.59997558594</ele>
        <time>2020-12-04T13:23:59.126Z</time>
      </trkpt>
      <trkpt lat="44.49494" lon="6.12869">
        <ele>711.79998779297</ele>
        <time>2020-12-04T13:24:03.614Z</time>
      </trkpt>
      <trkpt lat="44.49484" lon="6.12863">
        <ele>711.79998779297</ele>
        <time>2020-12-04T13:24:08.105Z</time>
      </trkpt>
      <trkpt lat="44.49469" lon="6.12854">
        <ele>711.79998779297</ele>
        <time>2020-12-04T13:24:12.601Z</time>
      </trkpt>
      <trkpt lat="44.49465" lon="6.12853">
        <ele>711.59997558594</ele>
        <time>2020-12-04T13:24:17.099Z</time>
      </trkpt>
      <trkpt lat="44.49444" lon="6.12844">
        <ele>711.59997558594</ele>
        <time>2020-12-04T13:24:21.603Z</time>
      </trkpt>
      <trkpt lat="44.49439" lon="6.12842">
        <ele>711.59997558594</ele>
        <time>2020-12-04T13:24:26.109Z</time>
      </trkpt>
      <trkpt lat="44.49428" lon="6.12834">
        <ele>711.59997558594</ele>
        <time>2020-12-04T13:24:30.619Z</time>
      </trkpt>
      <trkpt lat="44.4942" lon="6.12829">
        <ele>711.40002441406</ele>
        <time>2020-12-04T13:24:35.131Z</time>
      </trkpt>
      <trkpt lat="44.49416" lon="6.12826">
        <ele>711.59997558594</ele>
        <time>2020-12-04T13:24:39.645Z</time>
      </trkpt>
      <trkpt lat="44.49392" lon="6.12806">
        <ele>711.59997558594</ele>
        <time>2020-12-04T13:24:44.167Z</time>
      </trkpt>
      <trkpt lat="44.49388" lon="6.12803">
        <ele>711.59997558594</ele>
        <time>2020-12-04T13:24:48.690Z</time>
      </trkpt>
      <trkpt lat="44.49377" lon="6.12795">
        <ele>711.59997558594</ele>
        <time>2020-12-04T13:24:53.217Z</time>
      </trkpt>
      <trkpt lat="44.49371" lon="6.12789">
        <ele>711.59997558594</ele>
        <time>2020-12-04T13:24:57.747Z</time>
      </trkpt>
      <trkpt lat="44.49363" lon="6.12779">
        <ele>711.59997558594</ele>
        <time>2020-12-04T13:25:02.280Z</time>
      </trkpt>
      <trkpt lat="44.4935" lon="6.12765">
        <ele>711.59997558594</ele>
        <time>2020-12-04T13:25:06.818Z</time>
      </trkpt>
      <trkpt lat="44.49331" lon="6.12742">
        <ele>711.40002441406</ele>
        <time>2020-12-04T13:25:11.363Z</time>
      </trkpt>
      <trkpt lat="44.49324" lon="6.12733">
        <ele>711.59997558594</ele>
        <time>2020-12-04T13:25:15.911Z</time>
      </trkpt>
      <trkpt lat="44.49314" lon="6.12718">
        <ele>711.59997558594</ele>
        <time>2020-12-04T13:25:20.464Z</time>
      </trkpt>
      <trkpt lat="44.4931" lon="6.12699">
        <ele>711.20001220703</ele>
        <time>2020-12-04T13:25:25.021Z</time>
      </trkpt>
      <trkpt lat="44.4931" lon="6.12693">
        <ele>711.40002441406</ele>
        <time>2020-12-04T13:25:29.579Z</time>
      </trkpt>
      <trkpt lat="44.49309" lon="6.12669">
        <ele>711.59997558594</ele>
        <time>2020-12-04T13:25:34.143Z</time>
      </trkpt>
      <trkpt lat="44.49309" lon="6.12662">
        <ele>711.59997558594</ele>
        <time>2020-12-04T13:25:38.708Z</time>
      </trkpt>
      <trkpt lat="44.49308" lon="6.12649">
        <ele>711.59997558594</ele>
        <time>2020-12-04T13:25:43.276Z</time>
      </trkpt>
      <trkpt lat="44.49308" lon="6.12624">
        <ele>712.59997558594</ele>
        <time>2020-12-04T13:25:47.849Z</time>
      </trkpt>
      <trkpt lat="44.49309" lon="6.12607">
        <ele>713</ele>
        <time>2020-12-04T13:25:52.426Z</time>
      </trkpt>
      <trkpt lat="44.49309" lon="6.12591">
        <ele>713.79998779297</ele>
        <time>2020-12-04T13:25:57.006Z</time>
      </trkpt>
      <trkpt lat="44.49319" lon="6.12574">
        <ele>714</ele>
        <time>2020-12-04T13:26:01.591Z</time>
      </trkpt>
      <trkpt lat="44.49323" lon="6.12571">
        <ele>714.20001220703</ele>
        <time>2020-12-04T13:26:06.177Z</time>
      </trkpt>
      <trkpt lat="44.49327" lon="6.12568">
        <ele>714.20001220703</ele>
        <time>2020-12-04T13:26:10.765Z</time>
      </trkpt>
      <trkpt lat="44.49339" lon="6.12561">
        <ele>714.20001220703</ele>
        <time>2020-12-04T13:26:15.357Z</time>
      </trkpt>
      <trkpt lat="44.49358" lon="6.1255">
        <ele>714.20001220703</ele>
        <time>2020-12-04T13:26:19.955Z</time>
      </trkpt>
      <trkpt lat="44.49369" lon="6.12535">
        <ele>713.59997558594</ele>
        <time>2020-12-04T13:26:24.558Z</time>
      </trkpt>
      <trkpt lat="44.49382" lon="6.12526">
        <ele>713.59997558594</ele>
        <time>2020-12-04T13:26:29.165Z</time>
      </trkpt>
      <trkpt lat="44.49387" lon="6.12521">
        <ele>714.20001220703</ele>
        <time>2020-12-04T13:26:33.774Z</time>
      </trkpt>
      <trkpt lat="44.49387" lon="6.12519">
        <ele>714.40002441406</ele>
        <time>2020-12-04T13:26:38.383Z</time>
      </trkpt>
      <trkpt lat="44.49392" lon="6.12513">
        <ele>713.79998779297</ele>
        <time>2020-12-04T13:26:42.994Z</time>
      </trkpt>
      <trkpt lat="44.49405" lon="6.12506">
        <ele>713.20001220703</ele>
        <time>2020-12-04T13:26:47.609Z</time>
      </trkpt>
      <trkpt lat="44.49408" lon="6.12504">
        <ele>713</ele>
        <time>2020-12-04T13:26:52.226Z</time>
      </trkpt>
      <trkpt lat="44.49419" lon="6.12497">
        <ele>712.59997558594</ele>
        <time>2020-12-04T13:26:56.846Z</time>
      </trkpt>
      <trkpt lat="44.4942" lon="6.12494">
        <ele>712.40002441406</ele>
        <time>2020-12-04T13:27:01.467Z</time>
      </trkpt>
      <trkpt lat="44.4942" lon="6.12477">
        <ele>712.59997558594</ele>
        <time>2020-12-04T13:27:06.091Z</time>
      </trkpt>
      <trkpt lat="44.49426" lon="6.12465">
        <ele>712.59997558594</ele>
        <time>2020-12-04T13:27:10.719Z</time>
      </trkpt>
      <trkpt lat="44.4943" lon="6.12463">
        <ele>713</ele>
        <time>2020-12-04T13:27:15.348Z</time>
      </trkpt>
      <trkpt lat="44.49433" lon="6.12462">
        <ele>713.40002441406</ele>
        <time>2020-12-04T13:27:19.978Z</time>
      </trkpt>
      <trkpt lat="44.49442" lon="6.12464">
        <ele>714.40002441406</ele>
        <time>2020-12-04T13:27:24.611Z</time>
      </trkpt>
      <trkpt lat="44.49445" lon="6.12464">
        <ele>714.40002441406</ele>
        <time>2020-12-04T13:27:29.245Z</time>
      </trkpt>
      <trkpt lat="44.49459" lon="6.12462">
        <ele>715.20001220703</ele>
        <time>2020-12-04T13:27:33.883Z</time>
      </trkpt>
      <trkpt lat="44.49462" lon="6.12461">
        <ele>715.40002441406</ele>
        <time>2020-12-04T13:27:38.522Z</time>
      </trkpt>
      <trkpt lat="44.49474" lon="6.12457">
        <ele>716.59997558594</ele>
        <time>2020-12-04T13:27:43.164Z</time>
      </trkpt>
      <trkpt lat="44.49477" lon="6.12456">
        <ele>717</ele>
        <time>2020-12-04T13:27:47.807Z</time>
      </trkpt>
      <trkpt lat="44.49488" lon="6.12453">
        <ele>718.20001220703</ele>
        <time>2020-12-04T13:27:52.454Z</time>
      </trkpt>
      <trkpt lat="44.49492" lon="6.12451">
        <ele>719.20001220703</ele>
        <time>2020-12-04T13:27:57.102Z</time>
      </trkpt>
      <trkpt lat="44.49495" lon="6.12449">
        <ele>719.59997558594</ele>
        <time>2020-12-04T13:28:01.751Z</time>
      </trkpt>
      <trkpt lat="44.495" lon="6.12446">
        <ele>720.79998779297</ele>
        <time>2020-12-04T13:28:06.402Z</time>
      </trkpt>
      <trkpt lat="44.49502" lon="6.12445">
        <ele>720.79998779297</ele>
        <time>2020-12-04T13:28:11.054Z</time>
      </trkpt>
      <trkpt lat="44.49511" lon="6.12433">
        <ele>721.20001220703</ele>
        <time>2020-12-04T13:28:15.709Z</time>
      </trkpt>
      <trkpt lat="44.49516" lon="6.1243">
        <ele>721.79998779297</ele>
        <time>2020-12-04T13:28:20.366Z</time>
      </trkpt>
      <trkpt lat="44.4952" lon="6.12427">
        <ele>722</ele>
        <time>2020-12-04T13:28:25.024Z</time>
      </trkpt>
      <trkpt lat="44.49524" lon="6.12424">
        <ele>722.79998779297</ele>
        <time>2020-12-04T13:28:29.684Z</time>
      </trkpt>
      <trkpt lat="44.49537" lon="6.12416">
        <ele>723.79998779297</ele>
        <time>2020-12-04T13:28:34.348Z</time>
      </trkpt>
      <trkpt lat="44.49539" lon="6.12414">
        <ele>724</ele>
        <time>2020-12-04T13:28:39.013Z</time>
      </trkpt>
      <trkpt lat="44.49545" lon="6.12409">
        <ele>725</ele>
        <time>2020-12-04T13:28:43.680Z</time>
      </trkpt>
      <trkpt lat="44.49548" lon="6.12408">
        <ele>725.20001220703</ele>
        <time>2020-12-04T13:28:48.348Z</time>
      </trkpt>
      <trkpt lat="44.49554" lon="6.12405">
        <ele>725.59997558594</ele>
        <time>2020-12-04T13:28:53.018Z</time>
      </trkpt>
      <trkpt lat="44.49556" lon="6.12403">
        <ele>725.79998779297</ele>
        <time>2020-12-04T13:28:57.688Z</time>
      </trkpt>
      <trkpt lat="44.49558" lon="6.12402">
        <ele>726.20001220703</ele>
        <time>2020-12-04T13:29:02.359Z</time>
      </trkpt>
      <trkpt lat="44.49569" lon="6.12396">
        <ele>727.40002441406</ele>
        <time>2020-12-04T13:29:07.034Z</time>
      </trkpt>
      <trkpt lat="44.49571" lon="6.12395">
        <ele>727.40002441406</ele>
        <time>2020-12-04T13:29:11.709Z</time>
      </trkpt>
      <trkpt lat="44.49583" lon="6.12386">
        <ele>728.20001220703</ele>
        <time>2020-12-04T13:29:16.389Z</time>
      </trkpt>
      <trkpt lat="44.49584" lon="6.12384">
        <ele>728.59997558594</ele>
        <time>2020-12-04T13:29:21.069Z</time>
      </trkpt>
      <trkpt lat="44.49585" lon="6.12379">
        <ele>729</ele>
        <time>2020-12-04T13:29:25.750Z</time>
      </trkpt>
      <trkpt lat="44.49584" lon="6.12374">
        <ele>729.40002441406</ele>
        <time>2020-12-04T13:29:30.432Z</time>
      </trkpt>
      <trkpt lat="44.49583" lon="6.12372">
        <ele>729.79998779297</ele>
        <time>2020-12-04T13:29:35.115Z</time>
      </trkpt>
      <trkpt lat="44.49581" lon="6.12363">
        <ele>731</ele>
        <time>2020-12-04T13:29:39.800Z</time>
      </trkpt>
      <trkpt lat="44.49579" lon="6.12361">
        <ele>731</ele>
        <time>2020-12-04T13:29:44.486Z</time>
      </trkpt>
      <trkpt lat="44.49577" lon="6.12359">
        <ele>731.20001220703</ele>
        <time>2020-12-04T13:29:49.172Z</time>
      </trkpt>
      <trkpt lat="44.4957" lon="6.12352">
        <ele>732</ele>
        <time>2020-12-04T13:29:53.861Z</time>
      </trkpt>
      <trkpt lat="44.49564" lon="6.12349">
        <ele>732.40002441406</ele>
        <time>2020-12-04T13:29:58.552Z</time>
      </trkpt>
      <trkpt lat="44.49552" lon="6.12342">
        <ele>733</ele>
        <time>2020-12-04T13:30:03.247Z</time>
      </trkpt>
      <trkpt lat="44.4955" lon="6.1234">
        <ele>733.20001220703</ele>
        <time>2020-12-04T13:30:07.943Z</time>
      </trkpt>
      <trkpt lat="44.49549" lon="6.12338">
        <ele>733.20001220703</ele>
        <time>2020-12-04T13:30:12.639Z</time>
      </trkpt>
      <trkpt lat="44.49538" lon="6.12325">
        <ele>734</ele>
        <time>2020-12-04T13:30:17.340Z</time>
      </trkpt>
      <trkpt lat="44.49534" lon="6.12322">
        <ele>734.20001220703</ele>
        <time>2020-12-04T13:30:22.042Z</time>
      </trkpt>
      <trkpt lat="44.49531" lon="6.12318">
        <ele>734.40002441406</ele>
        <time>2020-12-04T13:30:26.745Z</time>
      </trkpt>
      <trkpt lat="44.49523" lon="6.12314">
        <ele>735.59997558594</ele>
        <time>2020-12-04T13:30:31.451Z</time>
      </trkpt>
      <trkpt lat="44.49521" lon="6.12312">
        <ele>735.79998779297</ele>
        <time>2020-12-04T13:30:36.157Z</time>
      </trkpt>
      <trkpt lat="44.49515" lon="6.12304">
        <ele>736.79998779297</ele>
        <time>2020-12-04T13:30:40.866Z</time>
      </trkpt>
      <trkpt lat="44.4951" lon="6.12296">
        <ele>737.40002441406</ele>
        <time>2020-12-04T13:30:45.577Z</time>
      </trkpt>
      <trkpt lat="44.49508" lon="6.12293">
        <ele>737.59997558594</ele>
        <time>2020-12-04T13:30:50.289Z</time>
      </trkpt>
      <trkpt lat="44.49503" lon="6.12284">
        <ele>737.79998779297</ele>
        <time>2020-12-04T13:30:55.004Z</time>
      </trkpt>
      <trkpt lat="44.495" lon="6.12278">
        <ele>738</ele>
        <time>2020-12-04T13:30:59.720Z</time>
      </trkpt>
      <trkpt lat="44.49498" lon="6.12273">
        <ele>738.59997558594</ele>
        <time>2020-12-04T13:31:04.437Z</time>
      </trkpt>
      <trkpt lat="44.49497" lon="6.1227">
        <ele>739</ele>
        <time>2020-12-04T13:31:09.155Z</time>
      </trkpt>
      <trkpt lat="44.49496" lon="6.12268">
        <ele>739</ele>
        <time>2020-12-04T13:31:13.874Z</time>
      </trkpt>
      <trkpt lat="44.49491" lon="6.12258">
        <ele>740</ele>
        <time>2020-12-04T13:31:18.595Z</time>
      </trkpt>
      <trkpt lat="44.4949" lon="6.12256">
        <ele>740.59997558594</ele>
        <time>2020-12-04T13:31:23.317Z</time>
      </trkpt>
      <trkpt lat="44.49485" lon="6.12249">
        <ele>741.20001220703</ele>
        <time>2020-12-04T13:31:28.041Z</time>
      </trkpt>
      <trkpt lat="44.49479" lon="6.1224">
        <ele>741.59997558594</ele>
        <time>2020-12-04T13:31:32.768Z</time>
      </trkpt>
      <trkpt lat="44.49474" lon="6.12231">
        <ele>742.20001220703</ele>
        <time>2020-12-04T13:31:37.497Z</time>
      </trkpt>
      <trkpt lat="44.49473" lon="6.12228">
        <ele>742.40002441406</ele>
        <time>2020-12-04T13:31:42.227Z</time>
      </trkpt>
      <trkpt lat="44.49467" lon="6.12214">
        <ele>743.59997558594</ele>
        <time>2020-12-04T13:31:46.960Z</time>
      </trkpt>
      <trkpt lat="44.49462" lon="6.12204">
        <ele>744.79998779297</ele>
        <time>2020-12-04T13:31:51.696Z</time>
      </trkpt>
      <trkpt lat="44.4946" lon="6.12202">
        <ele>745</ele>
        <time>2020-12-04T13:31:56.433Z</time>
      </trkpt>
      <trkpt lat="44.4945" lon="6.12186">
        <ele>745.59997558594</ele>
        <time>2020-12-04T13:32:01.174Z</time>
      </trkpt>
      <trkpt lat="44.49444" lon="6.12177">
        <ele>746.20001220703</ele>
        <time>2020-12-04T13:32:05.918Z</time>
      </trkpt>
      <trkpt lat="44.49441" lon="6.12172">
        <ele>747</ele>
        <time>2020-12-04T13:32:10.664Z</time>
      </trkpt>
      <trkpt lat="44.49439" lon="6.12169">
        <ele>747.20001220703</ele>
        <time>2020-12-04T13:32:15.410Z</time>
      </trkpt>
      <trkpt lat="44.49432" lon="6.1216">
        <ele>747.79998779297</ele>
        <time>2020-12-04T13:32:20.159Z</time>
      </trkpt>
      <trkpt lat="44.49427" lon="6.12153">
        <ele>748.20001220703</ele>
        <time>2020-12-04T13:32:24.910Z</time>
      </trkpt>
      <trkpt lat="44.49423" lon="6.1215">
        <ele>749</ele>
        <time>2020-12-04T13:32:29.663Z</time>
      </trkpt>
      <trkpt lat="44.4942" lon="6.12145">
        <ele>749.59997558594</ele>
        <time>2020-12-04T13:32:34.417Z</time>
      </trkpt>
      <trkpt lat="44.49412" lon="6.12135">
        <ele>750.20001220703</ele>
        <time>2020-12-04T13:32:39.174Z</time>
      </trkpt>
      <trkpt lat="44.49403" lon="6.12125">
        <ele>750.79998779297</ele>
        <time>2020-12-04T13:32:43.935Z</time>
      </trkpt>
      <trkpt lat="44.49402" lon="6.12123">
        <ele>750.79998779297</ele>
        <time>2020-12-04T13:32:48.696Z</time>
      </trkpt>
      <trkpt lat="44.49395" lon="6.12105">
        <ele>751</ele>
        <time>2020-12-04T13:32:53.462Z</time>
      </trkpt>
      <trkpt lat="44.49394" lon="6.12087">
        <ele>752.20001220703</ele>
        <time>2020-12-04T13:32:58.232Z</time>
      </trkpt>
      <trkpt lat="44.49391" lon="6.12077">
        <ele>753</ele>
        <time>2020-12-04T13:33:03.004Z</time>
      </trkpt>
      <trkpt lat="44.4939" lon="6.12074">
        <ele>753.20001220703</ele>
        <time>2020-12-04T13:33:07.777Z</time>
      </trkpt>
      <trkpt lat="44.49386" lon="6.12063">
        <ele>753.79998779297</ele>
        <time>2020-12-04T13:33:12.553Z</time>
      </trkpt>
      <trkpt lat="44.49385" lon="6.12057">
        <ele>754.59997558594</ele>
        <time>2020-12-04T13:33:17.330Z</time>
      </trkpt>
      <trkpt lat="44.49381" lon="6.1205">
        <ele>755</ele>
        <time>2020-12-04T13:33:22.109Z</time>
      </trkpt>
      <trkpt lat="44.49376" lon="6.12041">
        <ele>755.79998779297</ele>
        <time>2020-12-04T13:33:26.890Z</time>
      </trkpt>
      <trkpt lat="44.49372" lon="6.12037">
        <ele>756</ele>
        <time>2020-12-04T13:33:31.673Z</time>
      </trkpt>
      <trkpt lat="44.49362" lon="6.1202">
        <ele>757</ele>
        <time>2020-12-04T13:33:36.461Z</time>
      </trkpt>
      <trkpt lat="44.4936" lon="6.12017">
        <ele>757.20001220703</ele>
        <time>2020-12-04T13:33:41.249Z</time>
      </trkpt>
      <trkpt lat="44.49356" lon="6.12">
        <ele>758</ele>
        <time>2020-12-04T13:33:46.041Z</time>
      </trkpt>
      <trkpt lat="44.49354" lon="6.11997">
        <ele>758.20001220703</ele>
        <time>2020-12-04T13:33:50.834Z</time>
      </trkpt>
      <trkpt lat="44.4935" lon="6.11983">
        <ele>759.40002441406</ele>
        <time>2020-12-04T13:33:55.630Z</time>
      </trkpt>
      <trkpt lat="44.49348" lon="6.1198">
        <ele>759.59997558594</ele>
        <time>2020-12-04T13:34:00.427Z</time>
      </trkpt>
      <trkpt lat="44.49343" lon="6.11967">
        <ele>760.59997558594</ele>
        <time>2020-12-04T13:34:05.228Z</time>
      </trkpt>
      <trkpt lat="44.49335" lon="6.11947">
        <ele>762</ele>
        <time>2020-12-04T13:34:10.033Z</time>
      </trkpt>
      <trkpt lat="44.49328" lon="6.11937">
        <ele>762.79998779297</ele>
        <time>2020-12-04T13:34:14.842Z</time>
      </trkpt>
      <trkpt lat="44.49323" lon="6.11928">
        <ele>763.40002441406</ele>
        <time>2020-12-04T13:34:19.653Z</time>
      </trkpt>
      <trkpt lat="44.49322" lon="6.11926">
        <ele>763.59997558594</ele>
        <time>2020-12-04T13:34:24.465Z</time>
      </trkpt>
      <trkpt lat="44.49317" lon="6.1191">
        <ele>764.59997558594</ele>
        <time>2020-12-04T13:34:29.280Z</time>
      </trkpt>
      <trkpt lat="44.49315" lon="6.11903">
        <ele>764.79998779297</ele>
        <time>2020-12-04T13:34:34.097Z</time>
      </trkpt>
      <trkpt lat="44.49312" lon="6.11891">
        <ele>765</ele>
        <time>2020-12-04T13:34:38.917Z</time>
      </trkpt>
      <trkpt lat="44.49308" lon="6.1188">
        <ele>765.79998779297</ele>
        <time>2020-12-04T13:34:43.739Z</time>
      </trkpt>
      <trkpt lat="44.49307" lon="6.11872">
        <ele>766.20001220703</ele>
        <time>2020-12-04T13:34:48.563Z</time>
      </trkpt>
      <trkpt lat="44.49304" lon="6.11862">
        <ele>767</ele>
        <time>2020-12-04T13:34:53.390Z</time>
      </trkpt>
      <trkpt lat="44.49302" lon="6.11855">
        <ele>767.40002441406</ele>
        <time>2020-12-04T13:34:58.218Z</time>
      </trkpt>
      <trkpt lat="44.49297" lon="6.11838">
        <ele>768.20001220703</ele>
        <time>2020-12-04T13:35:03.050Z</time>
      </trkpt>
      <trkpt lat="44.49296" lon="6.11834">
        <ele>768.40002441406</ele>
        <time>2020-12-04T13:35:07.883Z</time>
      </trkpt>
      <trkpt lat="44.49296" lon="6.11821">
        <ele>769</ele>
        <time>2020-12-04T13:35:12.719Z</time>
      </trkpt>
      <trkpt lat="44.49293" lon="6.1181">
        <ele>769.40002441406</ele>
        <time>2020-12-04T13:35:17.557Z</time>
      </trkpt>
      <trkpt lat="44.49292" lon="6.11806">
        <ele>769.59997558594</ele>
        <time>2020-12-04T13:35:22.396Z</time>
      </trkpt>
      <trkpt lat="44.49291" lon="6.11802">
        <ele>769.79998779297</ele>
        <time>2020-12-04T13:35:27.236Z</time>
      </trkpt>
      <trkpt lat="44.49291" lon="6.11794">
        <ele>770.40002441406</ele>
        <time>2020-12-04T13:35:32.078Z</time>
      </trkpt>
      <trkpt lat="44.4929" lon="6.11792">
        <ele>770.79998779297</ele>
        <time>2020-12-04T13:35:36.920Z</time>
      </trkpt>
      <trkpt lat="44.49293" lon="6.11781">
        <ele>771.59997558594</ele>
        <time>2020-12-04T13:35:41.765Z</time>
      </trkpt>
      <trkpt lat="44.49291" lon="6.11778">
        <ele>771.79998779297</ele>
        <time>2020-12-04T13:35:46.611Z</time>
      </trkpt>
      <trkpt lat="44.49288" lon="6.11771">
        <ele>772.59997558594</ele>
        <time>2020-12-04T13:35:51.458Z</time>
      </trkpt>
      <trkpt lat="44.49287" lon="6.11768">
        <ele>773</ele>
        <time>2020-12-04T13:35:56.306Z</time>
      </trkpt>
      <trkpt lat="44.49286" lon="6.11766">
        <ele>773</ele>
        <time>2020-12-04T13:36:01.155Z</time>
      </trkpt>
      <trkpt lat="44.49276" lon="6.11757">
        <ele>773</ele>
        <time>2020-12-04T13:36:06.007Z</time>
      </trkpt>
      <trkpt lat="44.49267" lon="6.11748">
        <ele>773</ele>
        <time>2020-12-04T13:36:10.863Z</time>
      </trkpt>
      <trkpt lat="44.49261" lon="6.11738">
        <ele>773.20001220703</ele>
        <time>2020-12-04T13:36:15.721Z</time>
      </trkpt>
      <trkpt lat="44.4926" lon="6.11733">
        <ele>773.40002441406</ele>
        <time>2020-12-04T13:36:20.581Z</time>
      </trkpt>
      <trkpt lat="44.49255" lon="6.11721">
        <ele>774</ele>
        <time>2020-12-04T13:36:25.444Z</time>
      </trkpt>
      <trkpt lat="44.49251" lon="6.11709">
        <ele>774.40002441406</ele>
        <time>2020-12-04T13:36:30.310Z</time>
      </trkpt>
      <trkpt lat="44.49244" lon="6.1169">
        <ele>775</ele>
        <time>2020-12-04T13:36:35.180Z</time>
      </trkpt>
      <trkpt lat="44.49239" lon="6.11669">
        <ele>776</ele>
        <time>2020-12-04T13:36:40.055Z</time>
      </trkpt>
      <trkpt lat="44.49238" lon="6.11665">
        <ele>776</ele>
        <time>2020-12-04T13:36:44.931Z</time>
      </trkpt>
      <trkpt lat="44.49235" lon="6.11654">
        <ele>776.79998779297</ele>
        <time>2020-12-04T13:36:49.809Z</time>
      </trkpt>
      <trkpt lat="44.49233" lon="6.11648">
        <ele>777</ele>
        <time>2020-12-04T13:36:54.689Z</time>
      </trkpt>
      <trkpt lat="44.49228" lon="6.11635">
        <ele>777.59997558594</ele>
        <time>2020-12-04T13:36:59.572Z</time>
      </trkpt>
      <trkpt lat="44.49228" lon="6.11632">
        <ele>778</ele>
        <time>2020-12-04T13:37:04.456Z</time>
      </trkpt>
      <trkpt lat="44.49227" lon="6.1162">
        <ele>779.40002441406</ele>
        <time>2020-12-04T13:37:09.342Z</time>
      </trkpt>
      <trkpt lat="44.49222" lon="6.11607">
        <ele>780.20001220703</ele>
        <time>2020-12-04T13:37:14.231Z</time>
      </trkpt>
      <trkpt lat="44.49216" lon="6.11598">
        <ele>781</ele>
        <time>2020-12-04T13:37:19.123Z</time>
      </trkpt>
      <trkpt lat="44.49214" lon="6.11596">
        <ele>781.20001220703</ele>
        <time>2020-12-04T13:37:24.016Z</time>
      </trkpt>
      <trkpt lat="44.49213" lon="6.11594">
        <ele>781.40002441406</ele>
        <time>2020-12-04T13:37:28.909Z</time>
      </trkpt>
      <trkpt lat="44.49209" lon="6.11589">
        <ele>781.59997558594</ele>
        <time>2020-12-04T13:37:33.804Z</time>
      </trkpt>
      <trkpt lat="44.49208" lon="6.11586">
        <ele>781.59997558594</ele>
        <time>2020-12-04T13:37:38.700Z</time>
      </trkpt>
      <trkpt lat="44.49207" lon="6.11581">
        <ele>781.79998779297</ele>
        <time>2020-12-04T13:37:43.597Z</time>
      </trkpt>
      <trkpt lat="44.49203" lon="6.1157">
        <ele>782.59997558594</ele>
        <time>2020-12-04T13:37:48.496Z</time>
      </trkpt>
      <trkpt lat="44.49202" lon="6.11567">
        <ele>783.40002441406</ele>
        <time>2020-12-04T13:37:53.396Z</time>
      </trkpt>
      <trkpt lat="44.49198" lon="6.11561">
        <ele>783.79998779297</ele>
        <time>2020-12-04T13:37:58.298Z</time>
      </trkpt>
      <trkpt lat="44.4919" lon="6.11549">
        <ele>784.40002441406</ele>
        <time>2020-12-04T13:38:03.203Z</time>
      </trkpt>
      <trkpt lat="44.49187" lon="6.11543">
        <ele>784.79998779297</ele>
        <time>2020-12-04T13:38:08.110Z</time>
      </trkpt>
      <trkpt lat="44.49182" lon="6.11535">
        <ele>784.59997558594</ele>
        <time>2020-12-04T13:38:13.020Z</time>
      </trkpt>
      <trkpt lat="44.4918" lon="6.11531">
        <ele>784.79998779297</ele>
        <time>2020-12-04T13:38:17.931Z</time>
      </trkpt>
      <trkpt lat="44.49178" lon="6.11527">
        <ele>785.40002441406</ele>
        <time>2020-12-04T13:38:22.843Z</time>
      </trkpt>
      <trkpt lat="44.49176" lon="6.11521">
        <ele>786</ele>
        <time>2020-12-04T13:38:27.756Z</time>
      </trkpt>
      <trkpt lat="44.49175" lon="6.11519">
        <ele>786.20001220703</ele>
        <time>2020-12-04T13:38:32.669Z</time>
      </trkpt>
      <trkpt lat="44.49174" lon="6.11519">
        <ele>786.40002441406</ele>
        <time>2020-12-04T13:38:37.583Z</time>
      </trkpt>
      <trkpt lat="44.49178" lon="6.11512">
        <ele>788.79998779297</ele>
        <time>2020-12-04T13:38:42.499Z</time>
      </trkpt>
      <trkpt lat="44.49177" lon="6.11509">
        <ele>788.79998779297</ele>
        <time>2020-12-04T13:38:47.415Z</time>
      </trkpt>
      <trkpt lat="44.49175" lon="6.11496">
        <ele>789.20001220703</ele>
        <time>2020-12-04T13:38:52.334Z</time>
      </trkpt>
      <trkpt lat="44.49175" lon="6.11493">
        <ele>789.40002441406</ele>
        <time>2020-12-04T13:38:57.254Z</time>
      </trkpt>
      <trkpt lat="44.49176" lon="6.11487">
        <ele>789.79998779297</ele>
        <time>2020-12-04T13:39:02.175Z</time>
      </trkpt>
      <trkpt lat="44.49177" lon="6.11484">
        <ele>790.40002441406</ele>
        <time>2020-12-04T13:39:07.097Z</time>
      </trkpt>
      <trkpt lat="44.49177" lon="6.1148">
        <ele>790.79998779297</ele>
        <time>2020-12-04T13:39:12.020Z</time>
      </trkpt>
      <trkpt lat="44.49177" lon="6.11472">
        <ele>791.40002441406</ele>
        <time>2020-12-04T13:39:16.944Z</time>
      </trkpt>
      <trkpt lat="44.49179" lon="6.11461">
        <ele>792</ele>
        <time>2020-12-04T13:39:21.871Z</time>
      </trkpt>
      <trkpt lat="44.49179" lon="6.11459">
        <ele>792.20001220703</ele>
        <time>2020-12-04T13:39:26.798Z</time>
      </trkpt>
      <trkpt lat="44.49179" lon="6.11457">
        <ele>792.20001220703</ele>
        <time>2020-12-04T13:39:31.726Z</time>
      </trkpt>
      <trkpt lat="44.4918" lon="6.11452">
        <ele>792.59997558594</ele>
        <time>2020-12-04T13:39:36.655Z</time>
      </trkpt>
      <trkpt lat="44.4918" lon="6.11451">
        <ele>792.79998779297</ele>
        <time>2020-12-04T13:39:41.584Z</time>
      </trkpt>
      <trkpt lat="44.4918" lon="6.11449">
        <ele>792.40002441406</ele>
        <time>2020-12-04T13:39:46.514Z</time>
      </trkpt>
      <trkpt lat="44.49183" lon="6.11441">
        <ele>792.79998779297</ele>
        <time>2020-12-04T13:39:51.446Z</time>
      </trkpt>
      <trkpt lat="44.49186" lon="6.11438">
        <ele>793.20001220703</ele>
        <time>2020-12-04T13:39:56.379Z</time>
      </trkpt>
      <trkpt lat="44.49186" lon="6.11438">
        <ele>793.20001220703</ele>
        <time>2020-12-04T13:40:01.312Z</time>
      </trkpt>
      <trkpt lat="44.49187" lon="6.11443">
        <ele>793.40002441406</ele>
        <time>2020-12-04T13:40:06.246Z</time>
      </trkpt>
      <trkpt lat="44.49188" lon="6.11445">
        <ele>793.59997558594</ele>
        <time>2020-12-04T13:40:11.181Z</time>
      </trkpt>
      <trkpt lat="44.49189" lon="6.1145">
        <ele>794</ele>
        <time>2020-12-04T13:40:16.117Z</time>
      </trkpt>
      <trkpt lat="44.4919" lon="6.11455">
        <ele>794.79998779297</ele>
        <time>2020-12-04T13:40:21.054Z</time>
      </trkpt>
      <trkpt lat="44.49192" lon="6.11458">
        <ele>795</ele>
        <time>2020-12-04T13:40:25.992Z</time>
      </trkpt>
      <trkpt lat="44.49194" lon="6.11462">
        <ele>795.59997558594</ele>
        <time>2020-12-04T13:40:30.931Z</time>
      </trkpt>
      <trkpt lat="44.49195" lon="6.11465">
        <ele>796.20001220703</ele>
        <time>2020-12-04T13:40:35.870Z</time>
      </trkpt>
      <trkpt lat="44.49197" lon="6.11469">
        <ele>797.20001220703</ele>
        <time>2020-12-04T13:40:40.810Z</time>
      </trkpt>
      <trkpt lat="44.49197" lon="6.11474">
        <ele>797.59997558594</ele>
        <time>2020-12-04T13:40:45.751Z</time>
      </trkpt>
      <trkpt lat="44.49198" lon="6.11477">
        <ele>798</ele>
        <time>2020-12-04T13:40:50.693Z</time>
      </trkpt>
      <trkpt lat="44.49199" lon="6.11483">
        <ele>798.20001220703</ele>
        <time>2020-12-04T13:40:55.637Z</time>
      </trkpt>
      <trkpt lat="44.49201" lon="6.11487">
        <ele>798.40002441406</ele>
        <time>2020-12-04T13:41:00.582Z</time>
      </trkpt>
      <trkpt lat="44.49203" lon="6.1149">
        <ele>799</ele>
        <time>2020-12-04T13:41:05.528Z</time>
      </trkpt>
      <trkpt lat="44.49204" lon="6.11492">
        <ele>799.20001220703</ele>
        <time>2020-12-04T13:41:10.474Z</time>
      </trkpt>
      <trkpt lat="44.49205" lon="6.11493">
        <ele>799.59997558594</ele>
        <time>2020-12-04T13:41:15.420Z</time>
      </trkpt>
      <trkpt lat="44.49209" lon="6.11497">
        <ele>799.59997558594</ele>
        <time>2020-12-04T13:41:20.368Z</time>
      </trkpt>
      <trkpt lat="44.49215" lon="6.115">
        <ele>799.59997558594</ele>
        <time>2020-12-04T13:41:25.318Z</time>
      </trkpt>
      <trkpt lat="44.49219" lon="6.115">
        <ele>800</ele>
        <time>2020-12-04T13:41:30.269Z</time>
      </trkpt>
      <trkpt lat="44.49221" lon="6.115">
        <ele>800.40002441406</ele>
        <time>2020-12-04T13:41:35.221Z</time>
      </trkpt>
      <trkpt lat="44.49225" lon="6.11501">
        <ele>801.59997558594</ele>
        <time>2020-12-04T13:41:40.174Z</time>
      </trkpt>
      <trkpt lat="44.49231" lon="6.1151">
        <ele>802.79998779297</ele>
        <time>2020-12-04T13:41:45.129Z</time>
      </trkpt>
      <trkpt lat="44.49234" lon="6.11511">
        <ele>803.59997558594</ele>
        <time>2020-12-04T13:41:50.085Z</time>
      </trkpt>
      <trkpt lat="44.49235" lon="6.11512">
        <ele>804</ele>
        <time>2020-12-04T13:41:55.042Z</time>
      </trkpt>
      <trkpt lat="44.49243" lon="6.11517">
        <ele>805.20001220703</ele>
        <time>2020-12-04T13:42:00.001Z</time>
      </trkpt>
      <trkpt lat="44.49249" lon="6.1152">
        <ele>806.59997558594</ele>
        <time>2020-12-04T13:42:04.962Z</time>
      </trkpt>
      <trkpt lat="44.49252" lon="6.11522">
        <ele>807.20001220703</ele>
        <time>2020-12-04T13:42:09.924Z</time>
      </trkpt>
      <trkpt lat="44.49254" lon="6.11523">
        <ele>807.79998779297</ele>
        <time>2020-12-04T13:42:14.887Z</time>
      </trkpt>
      <trkpt lat="44.49259" lon="6.11525">
        <ele>809</ele>
        <time>2020-12-04T13:42:19.852Z</time>
      </trkpt>
      <trkpt lat="44.49262" lon="6.11526">
        <ele>809.79998779297</ele>
        <time>2020-12-04T13:42:24.817Z</time>
      </trkpt>
      <trkpt lat="44.49263" lon="6.11526">
        <ele>810.20001220703</ele>
        <time>2020-12-04T13:42:29.783Z</time>
      </trkpt>
      <trkpt lat="44.49267" lon="6.11526">
        <ele>810.79998779297</ele>
        <time>2020-12-04T13:42:34.750Z</time>
      </trkpt>
      <trkpt lat="44.49269" lon="6.11533">
        <ele>811.20001220703</ele>
        <time>2020-12-04T13:42:39.719Z</time>
      </trkpt>
      <trkpt lat="44.4927" lon="6.11535">
        <ele>811.59997558594</ele>
        <time>2020-12-04T13:42:44.688Z</time>
      </trkpt>
      <trkpt lat="44.49271" lon="6.11537">
        <ele>811.79998779297</ele>
        <time>2020-12-04T13:42:49.658Z</time>
      </trkpt>
      <trkpt lat="44.49273" lon="6.1154">
        <ele>812</ele>
        <time>2020-12-04T13:42:54.629Z</time>
      </trkpt>
      <trkpt lat="44.49278" lon="6.11543">
        <ele>812.40002441406</ele>
        <time>2020-12-04T13:42:59.601Z</time>
      </trkpt>
      <trkpt lat="44.49279" lon="6.11544">
        <ele>812.59997558594</ele>
        <time>2020-12-04T13:43:04.574Z</time>
      </trkpt>
      <trkpt lat="44.4928" lon="6.11545">
        <ele>813</ele>
        <time>2020-12-04T13:43:09.547Z</time>
      </trkpt>
      <trkpt lat="44.49286" lon="6.1155">
        <ele>813.20001220703</ele>
        <time>2020-12-04T13:43:14.522Z</time>
      </trkpt>
      <trkpt lat="44.49291" lon="6.11553">
        <ele>814</ele>
        <time>2020-12-04T13:43:19.499Z</time>
      </trkpt>
      <trkpt lat="44.49295" lon="6.11559">
        <ele>815</ele>
        <time>2020-12-04T13:43:24.478Z</time>
      </trkpt>
      <trkpt lat="44.49298" lon="6.11561">
        <ele>815.20001220703</ele>
        <time>2020-12-04T13:43:29.458Z</time>
      </trkpt>
      <trkpt lat="44.49301" lon="6.11562">
        <ele>815.59997558594</ele>
        <time>2020-12-04T13:43:34.439Z</time>
      </trkpt>
      <trkpt lat="44.49303" lon="6.11562">
        <ele>815.79998779297</ele>
        <time>2020-12-04T13:43:39.420Z</time>
      </trkpt>
      <trkpt lat="44.49304" lon="6.11561">
        <ele>816.20001220703</ele>
        <time>2020-12-04T13:43:44.402Z</time>
      </trkpt>
      <trkpt lat="44.49305" lon="6.11562">
        <ele>817.59997558594</ele>
        <time>2020-12-04T13:43:49.384Z</time>
      </trkpt>
      <trkpt lat="44.49316" lon="6.11599">
        <ele>820.40002441406</ele>
        <time>2020-12-04T13:43:54.374Z</time>
      </trkpt>
      <trkpt lat="44.49317" lon="6.11604">
        <ele>821</ele>
        <time>2020-12-04T13:43:59.366Z</time>
      </trkpt>
      <trkpt lat="44.4932" lon="6.11616">
        <ele>821.40002441406</ele>
        <time>2020-12-04T13:44:04.360Z</time>
      </trkpt>
      <trkpt lat="44.49321" lon="6.11619">
        <ele>821.40002441406</ele>
        <time>2020-12-04T13:44:09.355Z</time>
      </trkpt>
      <trkpt lat="44.49324" lon="6.11628">
        <ele>822.40002441406</ele>
        <time>2020-12-04T13:44:14.352Z</time>
      </trkpt>
      <trkpt lat="44.49325" lon="6.11632">
        <ele>822.59997558594</ele>
        <time>2020-12-04T13:44:19.350Z</time>
      </trkpt>
      <trkpt lat="44.49326" lon="6.11634">
        <ele>823</ele>
        <time>2020-12-04T13:44:24.349Z</time>
      </trkpt>
      <trkpt lat="44.49327" lon="6.11639">
        <ele>823.79998779297</ele>
        <time>2020-12-04T13:44:29.349Z</time>
      </trkpt>
      <trkpt lat="44.49325" lon="6.11645">
        <ele>824.59997558594</ele>
        <time>2020-12-04T13:44:34.350Z</time>
      </trkpt>
      <trkpt lat="44.49324" lon="6.11647">
        <ele>825.20001220703</ele>
        <time>2020-12-04T13:44:39.352Z</time>
      </trkpt>
      <trkpt lat="44.49323" lon="6.11649">
        <ele>825.40002441406</ele>
        <time>2020-12-04T13:44:44.354Z</time>
      </trkpt>
      <trkpt lat="44.49321" lon="6.11651">
        <ele>825.59997558594</ele>
        <time>2020-12-04T13:44:49.357Z</time>
      </trkpt>
      <trkpt lat="44.49321" lon="6.11649">
        <ele>826.40002441406</ele>
        <time>2020-12-04T13:44:54.361Z</time>
      </trkpt>
      <trkpt lat="44.49327" lon="6.11644">
        <ele>827.40002441406</ele>
        <time>2020-12-04T13:44:59.367Z</time>
      </trkpt>
      <trkpt lat="44.49329" lon="6.11643">
        <ele>827.40002441406</ele>
        <time>2020-12-04T13:45:04.373Z</time>
      </trkpt>
      <trkpt lat="44.49331" lon="6.11642">
        <ele>827.59997558594</ele>
        <time>2020-12-04T13:45:09.380Z</time>
      </trkpt>
      <trkpt lat="44.49333" lon="6.11639">
        <ele>828.20001220703</ele>
        <time>2020-12-04T13:45:14.388Z</time>
      </trkpt>
      <trkpt lat="44.49334" lon="6.11637">
        <ele>828.59997558594</ele>
        <time>2020-12-04T13:45:19.396Z</time>
      </trkpt>
      <trkpt lat="44.49336" lon="6.11633">
        <ele>829.20001220703</ele>
        <time>2020-12-04T13:45:24.405Z</time>
      </trkpt>
      <trkpt lat="44.49336" lon="6.11631">
        <ele>829.40002441406</ele>
        <time>2020-12-04T13:45:29.415Z</time>
      </trkpt>
      <trkpt lat="44.49337" lon="6.11628">
        <ele>829.59997558594</ele>
        <time>2020-12-04T13:45:34.425Z</time>
      </trkpt>
      <trkpt lat="44.49338" lon="6.1162">
        <ele>830.79998779297</ele>
        <time>2020-12-04T13:45:39.437Z</time>
      </trkpt>
      <trkpt lat="44.49338" lon="6.11613">
        <ele>832</ele>
        <time>2020-12-04T13:45:44.451Z</time>
      </trkpt>
      <trkpt lat="44.49339" lon="6.11606">
        <ele>832.20001220703</ele>
        <time>2020-12-04T13:45:49.466Z</time>
      </trkpt>
      <trkpt lat="44.49341" lon="6.11597">
        <ele>833.20001220703</ele>
        <time>2020-12-04T13:45:54.483Z</time>
      </trkpt>
      <trkpt lat="44.49342" lon="6.11592">
        <ele>833.40002441406</ele>
        <time>2020-12-04T13:45:59.502Z</time>
      </trkpt>
      <trkpt lat="44.49343" lon="6.11579">
        <ele>834</ele>
        <time>2020-12-04T13:46:04.523Z</time>
      </trkpt>
      <trkpt lat="44.49342" lon="6.11568">
        <ele>834.40002441406</ele>
        <time>2020-12-04T13:46:09.547Z</time>
      </trkpt>
      <trkpt lat="44.49342" lon="6.11568">
        <ele>834.40002441406</ele>
        <time>2020-12-04T13:46:14.571Z</time>
      </trkpt>
      <trkpt lat="44.49342" lon="6.11568">
        <ele>834.40002441406</ele>
        <time>2020-12-04T13:46:19.595Z</time>
      </trkpt>
      <trkpt lat="44.4935" lon="6.11566">
        <ele>834.79998779297</ele>
        <time>2020-12-04T13:46:24.621Z</time>
      </trkpt>
      <trkpt lat="44.49353" lon="6.11568">
        <ele>835</ele>
        <time>2020-12-04T13:46:29.649Z</time>
      </trkpt>
      <trkpt lat="44.49358" lon="6.1157">
        <ele>835.79998779297</ele>
        <time>2020-12-04T13:46:34.678Z</time>
      </trkpt>
      <trkpt lat="44.4936" lon="6.11571">
        <ele>836.59997558594</ele>
        <time>2020-12-04T13:46:39.708Z</time>
      </trkpt>
      <trkpt lat="44.49361" lon="6.11572">
        <ele>837</ele>
        <time>2020-12-04T13:46:44.738Z</time>
      </trkpt>
      <trkpt lat="44.49363" lon="6.11573">
        <ele>837.59997558594</ele>
        <time>2020-12-04T13:46:49.769Z</time>
      </trkpt>
      <trkpt lat="44.49365" lon="6.11573">
        <ele>838.59997558594</ele>
        <time>2020-12-04T13:46:54.800Z</time>
      </trkpt>
      <trkpt lat="44.49367" lon="6.11574">
        <ele>839</ele>
        <time>2020-12-04T13:46:59.832Z</time>
      </trkpt>
      <trkpt lat="44.49368" lon="6.11575">
        <ele>839.40002441406</ele>
        <time>2020-12-04T13:47:04.864Z</time>
      </trkpt>
      <trkpt lat="44.49379" lon="6.11584">
        <ele>840.59997558594</ele>
        <time>2020-12-04T13:47:09.900Z</time>
      </trkpt>
      <trkpt lat="44.49385" lon="6.11587">
        <ele>840.79998779297</ele>
        <time>2020-12-04T13:47:14.938Z</time>
      </trkpt>
      <trkpt lat="44.49392" lon="6.11588">
        <ele>841</ele>
        <time>2020-12-04T13:47:19.978Z</time>
      </trkpt>
      <trkpt lat="44.49398" lon="6.11586">
        <ele>841.20001220703</ele>
        <time>2020-12-04T13:47:25.020Z</time>
      </trkpt>
      <trkpt lat="44.49403" lon="6.11583">
        <ele>841.40002441406</ele>
        <time>2020-12-04T13:47:30.064Z</time>
      </trkpt>
      <trkpt lat="44.4941" lon="6.11575">
        <ele>841.79998779297</ele>
        <time>2020-12-04T13:47:35.110Z</time>
      </trkpt>
      <trkpt lat="44.49413" lon="6.11569">
        <ele>842</ele>
        <time>2020-12-04T13:47:40.158Z</time>
      </trkpt>
      <trkpt lat="44.49418" lon="6.11557">
        <ele>842.20001220703</ele>
        <time>2020-12-04T13:47:45.209Z</time>
      </trkpt>
      <trkpt lat="44.49423" lon="6.11535">
        <ele>842.59997558594</ele>
        <time>2020-12-04T13:47:50.265Z</time>
      </trkpt>
      <trkpt lat="44.49428" lon="6.11527">
        <ele>842.79998779297</ele>
        <time>2020-12-04T13:47:55.324Z</time>
      </trkpt>
      <trkpt lat="44.49432" lon="6.11522">
        <ele>843</ele>
        <time>2020-12-04T13:48:00.384Z</time>
      </trkpt>
      <trkpt lat="44.49434" lon="6.1152">
        <ele>843.40002441406</ele>
        <time>2020-12-04T13:48:05.445Z</time>
      </trkpt>
      <trkpt lat="44.49437" lon="6.11514">
        <ele>844.20001220703</ele>
        <time>2020-12-04T13:48:10.507Z</time>
      </trkpt>
      <trkpt lat="44.49437" lon="6.11507">
        <ele>844.59997558594</ele>
        <time>2020-12-04T13:48:15.571Z</time>
      </trkpt>
      <trkpt lat="44.49436" lon="6.11494">
        <ele>845.59997558594</ele>
        <time>2020-12-04T13:48:20.638Z</time>
      </trkpt>
      <trkpt lat="44.49436" lon="6.11491">
        <ele>846</ele>
        <time>2020-12-04T13:48:25.705Z</time>
      </trkpt>
      <trkpt lat="44.49437" lon="6.11481">
        <ele>846.59997558594</ele>
        <time>2020-12-04T13:48:30.775Z</time>
      </trkpt>
      <trkpt lat="44.49438" lon="6.11479">
        <ele>847</ele>
        <time>2020-12-04T13:48:35.845Z</time>
      </trkpt>
      <trkpt lat="44.49438" lon="6.11476">
        <ele>847.40002441406</ele>
        <time>2020-12-04T13:48:40.916Z</time>
      </trkpt>
      <trkpt lat="44.49439" lon="6.1147">
        <ele>848</ele>
        <time>2020-12-04T13:48:45.988Z</time>
      </trkpt>
      <trkpt lat="44.49441" lon="6.11457">
        <ele>849</ele>
        <time>2020-12-04T13:48:51.063Z</time>
      </trkpt>
      <trkpt lat="44.4944" lon="6.11448">
        <ele>850.20001220703</ele>
        <time>2020-12-04T13:48:56.140Z</time>
      </trkpt>
      <trkpt lat="44.4944" lon="6.11441">
        <ele>850.79998779297</ele>
        <time>2020-12-04T13:49:01.218Z</time>
      </trkpt>
      <trkpt lat="44.4944" lon="6.11438">
        <ele>851.20001220703</ele>
        <time>2020-12-04T13:49:06.297Z</time>
      </trkpt>
      <trkpt lat="44.49442" lon="6.11427">
        <ele>852.79998779297</ele>
        <time>2020-12-04T13:49:11.379Z</time>
      </trkpt>
      <trkpt lat="44.49443" lon="6.11425">
        <ele>853.59997558594</ele>
        <time>2020-12-04T13:49:16.461Z</time>
      </trkpt>
      <trkpt lat="44.49444" lon="6.11423">
        <ele>854</ele>
        <time>2020-12-04T13:49:21.544Z</time>
      </trkpt>
      <trkpt lat="44.49449" lon="6.11421">
        <ele>855.40002441406</ele>
        <time>2020-12-04T13:49:26.628Z</time>
      </trkpt>
      <trkpt lat="44.49454" lon="6.11421">
        <ele>856.79998779297</ele>
        <time>2020-12-04T13:49:31.714Z</time>
      </trkpt>
      <trkpt lat="44.49456" lon="6.11421">
        <ele>857</ele>
        <time>2020-12-04T13:49:36.800Z</time>
      </trkpt>
      <trkpt lat="44.49458" lon="6.11421">
        <ele>857.40002441406</ele>
        <time>2020-12-04T13:49:41.887Z</time>
      </trkpt>
      <trkpt lat="44.49462" lon="6.11421">
        <ele>857.79998779297</ele>
        <time>2020-12-04T13:49:46.975Z</time>
      </trkpt>
      <trkpt lat="44.49465" lon="6.11422">
        <ele>858.20001220703</ele>
        <time>2020-12-04T13:49:52.064Z</time>
      </trkpt>
      <trkpt lat="44.49467" lon="6.11424">
        <ele>858.40002441406</ele>
        <time>2020-12-04T13:49:57.154Z</time>
      </trkpt>
      <trkpt lat="44.4947" lon="6.11425">
        <ele>858.79998779297</ele>
        <time>2020-12-04T13:50:02.245Z</time>
      </trkpt>
      <trkpt lat="44.49472" lon="6.11427">
        <ele>859.59997558594</ele>
        <time>2020-12-04T13:50:07.337Z</time>
      </trkpt>
      <trkpt lat="44.49478" lon="6.11431">
        <ele>860.20001220703</ele>
        <time>2020-12-04T13:50:12.431Z</time>
      </trkpt>
      <trkpt lat="44.4948" lon="6.11431">
        <ele>860.40002441406</ele>
        <time>2020-12-04T13:50:17.525Z</time>
      </trkpt>
      <trkpt lat="44.49492" lon="6.11433">
        <ele>861.20001220703</ele>
        <time>2020-12-04T13:50:22.623Z</time>
      </trkpt>
      <trkpt lat="44.49501" lon="6.11438">
        <ele>861.79998779297</ele>
        <time>2020-12-04T13:50:27.724Z</time>
      </trkpt>
      <trkpt lat="44.49503" lon="6.11439">
        <ele>862</ele>
        <time>2020-12-04T13:50:32.825Z</time>
      </trkpt>
      <trkpt lat="44.49504" lon="6.1144">
        <ele>862.20001220703</ele>
        <time>2020-12-04T13:50:37.927Z</time>
      </trkpt>
      <trkpt lat="44.49511" lon="6.11448">
        <ele>863.20001220703</ele>
        <time>2020-12-04T13:50:43.032Z</time>
      </trkpt>
      <trkpt lat="44.49513" lon="6.1145">
        <ele>863.40002441406</ele>
        <time>2020-12-04T13:50:48.137Z</time>
      </trkpt>
      <trkpt lat="44.49519" lon="6.11459">
        <ele>864.59997558594</ele>
        <time>2020-12-04T13:50:53.245Z</time>
      </trkpt>
      <trkpt lat="44.4952" lon="6.11461">
        <ele>865</ele>
        <time>2020-12-04T13:50:58.354Z</time>
      </trkpt>
      <trkpt lat="44.4953" lon="6.11477">
        <ele>865.79998779297</ele>
        <time>2020-12-04T13:51:03.467Z</time>
      </trkpt>
      <trkpt lat="44.49531" lon="6.1148">
        <ele>865.79998779297</ele>
        <time>2020-12-04T13:51:08.581Z</time>
      </trkpt>
      <trkpt lat="44.49536" lon="6.11491">
        <ele>866.79998779297</ele>
        <time>2020-12-04T13:51:13.698Z</time>
      </trkpt>
      <trkpt lat="44.49538" lon="6.11497">
        <ele>867.20001220703</ele>
        <time>2020-12-04T13:51:18.816Z</time>
      </trkpt>
      <trkpt lat="44.49542" lon="6.11504">
        <ele>867.79998779297</ele>
        <time>2020-12-04T13:51:23.936Z</time>
      </trkpt>
      <trkpt lat="44.49545" lon="6.11512">
        <ele>868.59997558594</ele>
        <time>2020-12-04T13:51:29.058Z</time>
      </trkpt>
      <trkpt lat="44.49547" lon="6.11517">
        <ele>869.20001220703</ele>
        <time>2020-12-04T13:51:34.181Z</time>
      </trkpt>
      <trkpt lat="44.49553" lon="6.11531">
        <ele>870</ele>
        <time>2020-12-04T13:51:39.308Z</time>
      </trkpt>
      <trkpt lat="44.49554" lon="6.11535">
        <ele>870.20001220703</ele>
        <time>2020-12-04T13:51:44.436Z</time>
      </trkpt>
      <trkpt lat="44.4956" lon="6.11543">
        <ele>871.40002441406</ele>
        <time>2020-12-04T13:51:49.566Z</time>
      </trkpt>
      <trkpt lat="44.49567" lon="6.11559">
        <ele>872.20001220703</ele>
        <time>2020-12-04T13:51:54.700Z</time>
      </trkpt>
      <trkpt lat="44.49568" lon="6.11562">
        <ele>872.40002441406</ele>
        <time>2020-12-04T13:51:59.835Z</time>
      </trkpt>
      <trkpt lat="44.49573" lon="6.11572">
        <ele>873.59997558594</ele>
        <time>2020-12-04T13:52:04.973Z</time>
      </trkpt>
      <trkpt lat="44.49575" lon="6.11574">
        <ele>874</ele>
        <time>2020-12-04T13:52:10.111Z</time>
      </trkpt>
      <trkpt lat="44.4958" lon="6.11585">
        <ele>874.79998779297</ele>
        <time>2020-12-04T13:52:15.252Z</time>
      </trkpt>
      <trkpt lat="44.49582" lon="6.11587">
        <ele>875</ele>
        <time>2020-12-04T13:52:20.394Z</time>
      </trkpt>
      <trkpt lat="44.49586" lon="6.11594">
        <ele>876</ele>
        <time>2020-12-04T13:52:25.538Z</time>
      </trkpt>
      <trkpt lat="44.49589" lon="6.11598">
        <ele>876.79998779297</ele>
        <time>2020-12-04T13:52:30.683Z</time>
      </trkpt>
      <trkpt lat="44.49591" lon="6.11603">
        <ele>877.20001220703</ele>
        <time>2020-12-04T13:52:35.829Z</time>
      </trkpt>
      <trkpt lat="44.49597" lon="6.11611">
        <ele>878.20001220703</ele>
        <time>2020-12-04T13:52:40.978Z</time>
      </trkpt>
      <trkpt lat="44.49605" lon="6.11619">
        <ele>879.40002441406</ele>
        <time>2020-12-04T13:52:46.130Z</time>
      </trkpt>
      <trkpt lat="44.49612" lon="6.11626">
        <ele>880.59997558594</ele>
        <time>2020-12-04T13:52:51.284Z</time>
      </trkpt>
      <trkpt lat="44.49616" lon="6.11629">
        <ele>881.20001220703</ele>
        <time>2020-12-04T13:52:56.440Z</time>
      </trkpt>
      <trkpt lat="44.49623" lon="6.11632">
        <ele>881.59997558594</ele>
        <time>2020-12-04T13:53:01.598Z</time>
      </trkpt>
      <trkpt lat="44.49629" lon="6.11635">
        <ele>882</ele>
        <time>2020-12-04T13:53:06.758Z</time>
      </trkpt>
      <trkpt lat="44.49634" lon="6.11637">
        <ele>882.79998779297</ele>
        <time>2020-12-04T13:53:11.919Z</time>
      </trkpt>
      <trkpt lat="44.49641" lon="6.11639">
        <ele>883.20001220703</ele>
        <time>2020-12-04T13:53:17.083Z</time>
      </trkpt>
      <trkpt lat="44.49646" lon="6.1164">
        <ele>883.59997558594</ele>
        <time>2020-12-04T13:53:22.248Z</time>
      </trkpt>
      <trkpt lat="44.49652" lon="6.11642">
        <ele>884</ele>
        <time>2020-12-04T13:53:27.415Z</time>
      </trkpt>
      <trkpt lat="44.4966" lon="6.11644">
        <ele>884.59997558594</ele>
        <time>2020-12-04T13:53:32.584Z</time>
      </trkpt>
      <trkpt lat="44.49664" lon="6.11646">
        <ele>885</ele>
        <time>2020-12-04T13:53:37.755Z</time>
      </trkpt>
      <trkpt lat="44.49671" lon="6.11647">
        <ele>885.79998779297</ele>
        <time>2020-12-04T13:53:42.928Z</time>
      </trkpt>
      <trkpt lat="44.49675" lon="6.11647">
        <ele>886.20001220703</ele>
        <time>2020-12-04T13:53:48.102Z</time>
      </trkpt>
      <trkpt lat="44.49685" lon="6.11648">
        <ele>887</ele>
        <time>2020-12-04T13:53:53.279Z</time>
      </trkpt>
      <trkpt lat="44.49693" lon="6.11653">
        <ele>888</ele>
        <time>2020-12-04T13:53:58.459Z</time>
      </trkpt>
      <trkpt lat="44.49695" lon="6.11655">
        <ele>888.20001220703</ele>
        <time>2020-12-04T13:54:03.639Z</time>
      </trkpt>
      <trkpt lat="44.49697" lon="6.11657">
        <ele>888.20001220703</ele>
        <time>2020-12-04T13:54:08.820Z</time>
      </trkpt>
      <trkpt lat="44.49706" lon="6.11666">
        <ele>889.20001220703</ele>
        <time>2020-12-04T13:54:14.005Z</time>
      </trkpt>
      <trkpt lat="44.4971" lon="6.1167">
        <ele>889.40002441406</ele>
        <time>2020-12-04T13:54:19.191Z</time>
      </trkpt>
      <trkpt lat="44.49724" lon="6.11677">
        <ele>889.40002441406</ele>
        <time>2020-12-04T13:54:24.381Z</time>
      </trkpt>
      <trkpt lat="44.49735" lon="6.1168">
        <ele>889</ele>
        <time>2020-12-04T13:54:29.575Z</time>
      </trkpt>
      <trkpt lat="44.49747" lon="6.11677">
        <ele>889</ele>
        <time>2020-12-04T13:54:34.773Z</time>
      </trkpt>
      <trkpt lat="44.49759" lon="6.11671">
        <ele>889.79998779297</ele>
        <time>2020-12-04T13:54:39.975Z</time>
      </trkpt>
      <trkpt lat="44.49761" lon="6.1167">
        <ele>890.20001220703</ele>
        <time>2020-12-04T13:54:45.177Z</time>
      </trkpt>
      <trkpt lat="44.49763" lon="6.1167">
        <ele>890.59997558594</ele>
        <time>2020-12-04T13:54:50.380Z</time>
      </trkpt>
      <trkpt lat="44.49766" lon="6.1167">
        <ele>891.20001220703</ele>
        <time>2020-12-04T13:54:55.584Z</time>
      </trkpt>
      <trkpt lat="44.49768" lon="6.11671">
        <ele>891.59997558594</ele>
        <time>2020-12-04T13:55:00.788Z</time>
      </trkpt>
      <trkpt lat="44.49773" lon="6.11673">
        <ele>892.79998779297</ele>
        <time>2020-12-04T13:55:05.994Z</time>
      </trkpt>
      <trkpt lat="44.49775" lon="6.11675">
        <ele>893</ele>
        <time>2020-12-04T13:55:11.201Z</time>
      </trkpt>
      <trkpt lat="44.49781" lon="6.11678">
        <ele>894</ele>
        <time>2020-12-04T13:55:16.410Z</time>
      </trkpt>
      <trkpt lat="44.49787" lon="6.11679">
        <ele>894.79998779297</ele>
        <time>2020-12-04T13:55:21.620Z</time>
      </trkpt>
      <trkpt lat="44.49788" lon="6.1168">
        <ele>895.40002441406</ele>
        <time>2020-12-04T13:55:26.831Z</time>
      </trkpt>
      <trkpt lat="44.49795" lon="6.11681">
        <ele>896.59997558594</ele>
        <time>2020-12-04T13:55:32.044Z</time>
      </trkpt>
      <trkpt lat="44.49797" lon="6.11682">
        <ele>897</ele>
        <time>2020-12-04T13:55:37.258Z</time>
      </trkpt>
      <trkpt lat="44.49802" lon="6.11683">
        <ele>897.59997558594</ele>
        <time>2020-12-04T13:55:42.473Z</time>
      </trkpt>
      <trkpt lat="44.49808" lon="6.11685">
        <ele>898.20001220703</ele>
        <time>2020-12-04T13:55:47.690Z</time>
      </trkpt>
      <trkpt lat="44.49815" lon="6.11687">
        <ele>898.79998779297</ele>
        <time>2020-12-04T13:55:52.909Z</time>
      </trkpt>
      <trkpt lat="44.49819" lon="6.11688">
        <ele>899.40002441406</ele>
        <time>2020-12-04T13:55:58.129Z</time>
      </trkpt>
      <trkpt lat="44.49823" lon="6.11689">
        <ele>900</ele>
        <time>2020-12-04T13:56:03.351Z</time>
      </trkpt>
      <trkpt lat="44.49827" lon="6.11689">
        <ele>901</ele>
        <time>2020-12-04T13:56:08.574Z</time>
      </trkpt>
      <trkpt lat="44.49829" lon="6.11689">
        <ele>901.59997558594</ele>
        <time>2020-12-04T13:56:13.798Z</time>
      </trkpt>
      <trkpt lat="44.49833" lon="6.11688">
        <ele>902.20001220703</ele>
        <time>2020-12-04T13:56:19.023Z</time>
      </trkpt>
      <trkpt lat="44.49837" lon="6.11687">
        <ele>903.40002441406</ele>
        <time>2020-12-04T13:56:24.249Z</time>
      </trkpt>
      <trkpt lat="44.49839" lon="6.11686">
        <ele>904</ele>
        <time>2020-12-04T13:56:29.475Z</time>
      </trkpt>
      <trkpt lat="44.4984" lon="6.11685">
        <ele>904.59997558594</ele>
        <time>2020-12-04T13:56:34.702Z</time>
      </trkpt>
      <trkpt lat="44.49841" lon="6.11683">
        <ele>904.79998779297</ele>
        <time>2020-12-04T13:56:39.929Z</time>
      </trkpt>
      <trkpt lat="44.49845" lon="6.11678">
        <ele>905.79998779297</ele>
        <time>2020-12-04T13:56:45.158Z</time>
      </trkpt>
      <trkpt lat="44.49849" lon="6.11672">
        <ele>906.79998779297</ele>
        <time>2020-12-04T13:56:50.389Z</time>
      </trkpt>
      <trkpt lat="44.49851" lon="6.11672">
        <ele>907.20001220703</ele>
        <time>2020-12-04T13:56:55.620Z</time>
      </trkpt>
      <trkpt lat="44.49858" lon="6.1167">
        <ele>908</ele>
        <time>2020-12-04T13:57:00.854Z</time>
      </trkpt>
      <trkpt lat="44.49861" lon="6.11668">
        <ele>908.20001220703</ele>
        <time>2020-12-04T13:57:06.088Z</time>
      </trkpt>
      <trkpt lat="44.49866" lon="6.11667">
        <ele>908.40002441406</ele>
        <time>2020-12-04T13:57:11.324Z</time>
      </trkpt>
      <trkpt lat="44.49868" lon="6.11666">
        <ele>908.79998779297</ele>
        <time>2020-12-04T13:57:16.561Z</time>
      </trkpt>
      <trkpt lat="44.49869" lon="6.11666">
        <ele>909.20001220703</ele>
        <time>2020-12-04T13:57:21.798Z</time>
      </trkpt>
      <trkpt lat="44.49873" lon="6.11664">
        <ele>910</ele>
        <time>2020-12-04T13:57:27.036Z</time>
      </trkpt>
      <trkpt lat="44.49875" lon="6.11663">
        <ele>910.40002441406</ele>
        <time>2020-12-04T13:57:32.275Z</time>
      </trkpt>
      <trkpt lat="44.49879" lon="6.11661">
        <ele>911.40002441406</ele>
        <time>2020-12-04T13:57:37.515Z</time>
      </trkpt>
      <trkpt lat="44.49882" lon="6.1166">
        <ele>912.20001220703</ele>
        <time>2020-12-04T13:57:42.756Z</time>
      </trkpt>
      <trkpt lat="44.49884" lon="6.1166">
        <ele>912.79998779297</ele>
        <time>2020-12-04T13:57:47.998Z</time>
      </trkpt>
      <trkpt lat="44.49886" lon="6.11659">
        <ele>913.40002441406</ele>
        <time>2020-12-04T13:57:53.241Z</time>
      </trkpt>
      <trkpt lat="44.49891" lon="6.11659">
        <ele>914.40002441406</ele>
        <time>2020-12-04T13:57:58.485Z</time>
      </trkpt>
      <trkpt lat="44.49896" lon="6.11658">
        <ele>915.59997558594</ele>
        <time>2020-12-04T13:58:03.730Z</time>
      </trkpt>
      <trkpt lat="44.499" lon="6.11658">
        <ele>917.20001220703</ele>
        <time>2020-12-04T13:58:08.977Z</time>
      </trkpt>
      <trkpt lat="44.49904" lon="6.11657">
        <ele>918.59997558594</ele>
        <time>2020-12-04T13:58:14.225Z</time>
      </trkpt>
      <trkpt lat="44.49908" lon="6.11656">
        <ele>919.79998779297</ele>
        <time>2020-12-04T13:58:19.474Z</time>
      </trkpt>
      <trkpt lat="44.49915" lon="6.11652">
        <ele>921.20001220703</ele>
        <time>2020-12-04T13:58:24.725Z</time>
      </trkpt>
      <trkpt lat="44.49919" lon="6.11649">
        <ele>922.59997558594</ele>
        <time>2020-12-04T13:58:29.978Z</time>
      </trkpt>
      <trkpt lat="44.49921" lon="6.11646">
        <ele>923</ele>
        <time>2020-12-04T13:58:35.232Z</time>
      </trkpt>
      <trkpt lat="44.49924" lon="6.11643">
        <ele>924</ele>
        <time>2020-12-04T13:58:40.487Z</time>
      </trkpt>
      <trkpt lat="44.49928" lon="6.11639">
        <ele>925.20001220703</ele>
        <time>2020-12-04T13:58:45.743Z</time>
      </trkpt>
      <trkpt lat="44.49931" lon="6.11636">
        <ele>926.40002441406</ele>
        <time>2020-12-04T13:58:51.000Z</time>
      </trkpt>
      <trkpt lat="44.49934" lon="6.11632">
        <ele>927.40002441406</ele>
        <time>2020-12-04T13:58:56.258Z</time>
      </trkpt>
      <trkpt lat="44.49935" lon="6.11631">
        <ele>927.79998779297</ele>
        <time>2020-12-04T13:59:01.517Z</time>
      </trkpt>
      <trkpt lat="44.49935" lon="6.11629">
        <ele>928</ele>
        <time>2020-12-04T13:59:06.776Z</time>
      </trkpt>
      <trkpt lat="44.49937" lon="6.11623">
        <ele>928</ele>
        <time>2020-12-04T13:59:12.037Z</time>
      </trkpt>
      <trkpt lat="44.49938" lon="6.11623">
        <ele>928</ele>
        <time>2020-12-04T13:59:17.298Z</time>
      </trkpt>
      <trkpt lat="44.49946" lon="6.11623">
        <ele>927.20001220703</ele>
        <time>2020-12-04T13:59:22.562Z</time>
      </trkpt>
      <trkpt lat="44.49948" lon="6.11622">
        <ele>927.20001220703</ele>
        <time>2020-12-04T13:59:27.826Z</time>
      </trkpt>
      <trkpt lat="44.49956" lon="6.11621">
        <ele>928.20001220703</ele>
        <time>2020-12-04T13:59:33.093Z</time>
      </trkpt>
      <trkpt lat="44.49962" lon="6.1162">
        <ele>928.79998779297</ele>
        <time>2020-12-04T13:59:38.361Z</time>
      </trkpt>
      <trkpt lat="44.49967" lon="6.11622">
        <ele>930</ele>
        <time>2020-12-04T13:59:43.631Z</time>
      </trkpt>
      <trkpt lat="44.49971" lon="6.1162">
        <ele>931</ele>
        <time>2020-12-04T13:59:48.902Z</time>
      </trkpt>
      <trkpt lat="44.49974" lon="6.11619">
        <ele>932.20001220703</ele>
        <time>2020-12-04T13:59:54.174Z</time>
      </trkpt>
      <trkpt lat="44.49976" lon="6.11619">
        <ele>932.59997558594</ele>
        <time>2020-12-04T13:59:59.447Z</time>
      </trkpt>
      <trkpt lat="44.49979" lon="6.11618">
        <ele>933.20001220703</ele>
        <time>2020-12-04T14:00:04.721Z</time>
      </trkpt>
      <trkpt lat="44.49985" lon="6.11618">
        <ele>934.40002441406</ele>
        <time>2020-12-04T14:00:09.997Z</time>
      </trkpt>
      <trkpt lat="44.49993" lon="6.11618">
        <ele>936.20001220703</ele>
        <time>2020-12-04T14:00:15.275Z</time>
      </trkpt>
      <trkpt lat="44.49999" lon="6.11617">
        <ele>937.79998779297</ele>
        <time>2020-12-04T14:00:20.555Z</time>
      </trkpt>
      <trkpt lat="44.50003" lon="6.11617">
        <ele>939</ele>
        <time>2020-12-04T14:00:25.836Z</time>
      </trkpt>
      <trkpt lat="44.50007" lon="6.11617">
        <ele>940.40002441406</ele>
        <time>2020-12-04T14:00:31.118Z</time>
      </trkpt>
      <trkpt lat="44.5001" lon="6.11617">
        <ele>941.40002441406</ele>
        <time>2020-12-04T14:00:36.401Z</time>
      </trkpt>
      <trkpt lat="44.50012" lon="6.11618">
        <ele>942.20001220703</ele>
        <time>2020-12-04T14:00:41.685Z</time>
      </trkpt>
      <trkpt lat="44.50016" lon="6.11618">
        <ele>943.59997558594</ele>
        <time>2020-12-04T14:00:46.970Z</time>
      </trkpt>
      <trkpt lat="44.5002" lon="6.11618">
        <ele>945.40002441406</ele>
        <time>2020-12-04T14:00:52.256Z</time>
      </trkpt>
      <trkpt lat="44.50022" lon="6.11617">
        <ele>946.40002441406</ele>
        <time>2020-12-04T14:00:57.543Z</time>
      </trkpt>
      <trkpt lat="44.50024" lon="6.11617">
        <ele>947.20001220703</ele>
        <time>2020-12-04T14:01:02.830Z</time>
      </trkpt>
      <trkpt lat="44.50026" lon="6.11617">
        <ele>948.20001220703</ele>
        <time>2020-12-04T14:01:08.118Z</time>
      </trkpt>
      <trkpt lat="44.5003" lon="6.11616">
        <ele>949.79998779297</ele>
        <time>2020-12-04T14:01:13.407Z</time>
      </trkpt>
      <trkpt lat="44.50035" lon="6.11615">
        <ele>951.59997558594</ele>
        <time>2020-12-04T14:01:18.698Z</time>
      </trkpt>
      <trkpt lat="44.50039" lon="6.11615">
        <ele>952.79998779297</ele>
        <time>2020-12-04T14:01:23.990Z</time>
      </trkpt>
      <trkpt lat="44.50043" lon="6.11615">
        <ele>954.20001220703</ele>
        <time>2020-12-04T14:01:29.283Z</time>
      </trkpt>
      <trkpt lat="44.50047" lon="6.11614">
        <ele>955.20001220703</ele>
        <time>2020-12-04T14:01:34.577Z</time>
      </trkpt>
      <trkpt lat="44.50052" lon="6.11613">
        <ele>956.40002441406</ele>
        <time>2020-12-04T14:01:39.873Z</time>
      </trkpt>
      <trkpt lat="44.50057" lon="6.11611">
        <ele>957.79998779297</ele>
        <time>2020-12-04T14:01:45.170Z</time>
      </trkpt>
      <trkpt lat="44.50062" lon="6.11611">
        <ele>958.40002441406</ele>
        <time>2020-12-04T14:01:50.469Z</time>
      </trkpt>
      <trkpt lat="44.50066" lon="6.11609">
        <ele>959.40002441406</ele>
        <time>2020-12-04T14:01:55.769Z</time>
      </trkpt>
      <trkpt lat="44.50069" lon="6.1161">
        <ele>960.59997558594</ele>
        <time>2020-12-04T14:02:01.070Z</time>
      </trkpt>
      <trkpt lat="44.50069" lon="6.1161">
        <ele>960.79998779297</ele>
        <time>2020-12-04T14:02:06.371Z</time>
      </trkpt>
      <trkpt lat="44.50076" lon="6.11608">
        <ele>961.79998779297</ele>
        <time>2020-12-04T14:02:11.674Z</time>
      </trkpt>
      <trkpt lat="44.50079" lon="6.11607">
        <ele>962.40002441406</ele>
        <time>2020-12-04T14:02:16.978Z</time>
      </trkpt>
      <trkpt lat="44.50081" lon="6.11605">
        <ele>962.79998779297</ele>
        <time>2020-12-04T14:02:22.283Z</time>
      </trkpt>
      <trkpt lat="44.501" lon="6.11607">
        <ele>962</ele>
        <time>2020-12-04T14:02:27.594Z</time>
      </trkpt>
      <trkpt lat="44.50112" lon="6.11604">
        <ele>961.40002441406</ele>
        <time>2020-12-04T14:02:32.908Z</time>
      </trkpt>
      <trkpt lat="44.50115" lon="6.11603">
        <ele>961</ele>
        <time>2020-12-04T14:02:38.223Z</time>
      </trkpt>
      <trkpt lat="44.50119" lon="6.11603">
        <ele>960.59997558594</ele>
        <time>2020-12-04T14:02:43.540Z</time>
      </trkpt>
      <trkpt lat="44.50124" lon="6.11602">
        <ele>960</ele>
        <time>2020-12-04T14:02:48.858Z</time>
      </trkpt>
      <trkpt lat="44.50127" lon="6.11602">
        <ele>959.79998779297</ele>
        <time>2020-12-04T14:02:54.177Z</time>
      </trkpt>
      <trkpt lat="44.5013" lon="6.11602">
        <ele>959.59997558594</ele>
        <time>2020-12-04T14:02:59.497Z</time>
      </trkpt>
      <trkpt lat="44.50134" lon="6.11602">
        <ele>959</ele>
        <time>2020-12-04T14:03:04.818Z</time>
      </trkpt>
      <trkpt lat="44.50136" lon="6.11602">
        <ele>958.79998779297</ele>
        <time>2020-12-04T14:03:10.140Z</time>
      </trkpt>
      <trkpt lat="44.50141" lon="6.11601">
        <ele>958</ele>
        <time>2020-12-04T14:03:15.463Z</time>
      </trkpt>
      <trkpt lat="44.50144" lon="6.116">
        <ele>957.59997558594</ele>
        <time>2020-12-04T14:03:20.787Z</time>
      </trkpt>
      <trkpt lat="44.50149" lon="6.11597">
        <ele>956.79998779297</ele>
        <time>2020-12-04T14:03:26.113Z</time>
      </trkpt>
      <trkpt lat="44.50153" lon="6.11595">
        <ele>955.40002441406</ele>
        <time>2020-12-04T14:03:31.440Z</time>
      </trkpt>
      <trkpt lat="44.50155" lon="6.11594">
        <ele>954.20001220703</ele>
        <time>2020-12-04T14:03:36.768Z</time>
      </trkpt>
      <trkpt lat="44.50156" lon="6.11592">
        <ele>953.59997558594</ele>
        <time>2020-12-04T14:03:42.096Z</time>
      </trkpt>
      <trkpt lat="44.50157" lon="6.1159">
        <ele>953</ele>
        <time>2020-12-04T14:03:47.425Z</time>
      </trkpt>
      <trkpt lat="44.50157" lon="6.1159">
        <ele>953</ele>
        <time>2020-12-04T14:03:52.754Z</time>
      </trkpt>
      <trkpt lat="44.50152" lon="6.11568">
        <ele>953</ele>
        <time>2020-12-04T14:03:58.088Z</time>
      </trkpt>
      <trkpt lat="44.50152" lon="6.11562">
        <ele>952.40002441406</ele>
        <time>2020-12-04T14:04:03.423Z</time>
      </trkpt>
      <trkpt lat="44.50151" lon="6.11561">
        <ele>951.79998779297</ele>
        <time>2020-12-04T14:04:08.758Z</time>
      </trkpt>
      <trkpt lat="44.50151" lon="6.11561">
        <ele>951.20001220703</ele>
        <time>2020-12-04T14:04:14.093Z</time>
      </trkpt>
      <trkpt lat="44.50151" lon="6.11561">
        <ele>950.79998779297</ele>
        <time>2020-12-04T14:04:19.429Z</time>
      </trkpt>
      <trkpt lat="44.50148" lon="6.11563">
        <ele>949.40002441406</ele>
        <time>2020-12-04T14:04:24.765Z</time>
      </trkpt>
      <trkpt lat="44.50147" lon="6.11562">
        <ele>949</ele>
        <time>2020-12-04T14:04:30.102Z</time>
      </trkpt>
      <trkpt lat="44.50144" lon="6.11558">
        <ele>948.20001220703</ele>
        <time>2020-12-04T14:04:35.440Z</time>
      </trkpt>
      <trkpt lat="44.50145" lon="6.11537">
        <ele>944.59997558594</ele>
        <time>2020-12-04T14:04:40.783Z</time>
      </trkpt>
      <trkpt lat="44.50148" lon="6.11528">
        <ele>943.59997558594</ele>
        <time>2020-12-04T14:04:46.128Z</time>
      </trkpt>
      <trkpt lat="44.50153" lon="6.11518">
        <ele>942.79998779297</ele>
        <time>2020-12-04T14:04:51.476Z</time>
      </trkpt>
      <trkpt lat="44.50156" lon="6.11515">
        <ele>942.40002441406</ele>
        <time>2020-12-04T14:04:56.825Z</time>
      </trkpt>
      <trkpt lat="44.50165" lon="6.11509">
        <ele>942.20001220703</ele>
        <time>2020-12-04T14:05:02.177Z</time>
      </trkpt>
      <trkpt lat="44.50175" lon="6.11505">
        <ele>943.40002441406</ele>
        <time>2020-12-04T14:05:07.532Z</time>
      </trkpt>
      <trkpt lat="44.50179" lon="6.11504">
        <ele>944</ele>
        <time>2020-12-04T14:05:12.888Z</time>
      </trkpt>
      <trkpt lat="44.50182" lon="6.1149">
        <ele>945</ele>
        <time>2020-12-04T14:05:18.247Z</time>
      </trkpt>
      <trkpt lat="44.50172" lon="6.1145">
        <ele>946.20001220703</ele>
        <time>2020-12-04T14:05:23.616Z</time>
      </trkpt>
      <trkpt lat="44.50169" lon="6.11421">
        <ele>946.59997558594</ele>
        <time>2020-12-04T14:05:28.991Z</time>
      </trkpt>
      <trkpt lat="44.50166" lon="6.11411">
        <ele>947</ele>
        <time>2020-12-04T14:05:34.368Z</time>
      </trkpt>
      <trkpt lat="44.50165" lon="6.11405">
        <ele>947.59997558594</ele>
        <time>2020-12-04T14:05:39.747Z</time>
      </trkpt>
      <trkpt lat="44.50161" lon="6.11377">
        <ele>948.40002441406</ele>
        <time>2020-12-04T14:05:45.132Z</time>
      </trkpt>
      <trkpt lat="44.5016" lon="6.11371">
        <ele>949.20001220703</ele>
        <time>2020-12-04T14:05:50.518Z</time>
      </trkpt>
      <trkpt lat="44.50161" lon="6.11364">
        <ele>949.79998779297</ele>
        <time>2020-12-04T14:05:55.906Z</time>
      </trkpt>
      <trkpt lat="44.50163" lon="6.11361">
        <ele>950.40002441406</ele>
        <time>2020-12-04T14:06:01.295Z</time>
      </trkpt>
      <trkpt lat="44.50163" lon="6.11344">
        <ele>951.40002441406</ele>
        <time>2020-12-04T14:06:06.687Z</time>
      </trkpt>
      <trkpt lat="44.50167" lon="6.1135">
        <ele>952</ele>
        <time>2020-12-04T14:06:12.081Z</time>
      </trkpt>
      <trkpt lat="44.50171" lon="6.11354">
        <ele>952.79998779297</ele>
        <time>2020-12-04T14:06:17.477Z</time>
      </trkpt>
      <trkpt lat="44.50184" lon="6.11377">
        <ele>954</ele>
        <time>2020-12-04T14:06:22.879Z</time>
      </trkpt>
      <trkpt lat="44.50188" lon="6.11385">
        <ele>954.40002441406</ele>
        <time>2020-12-04T14:06:28.283Z</time>
      </trkpt>
      <trkpt lat="44.50196" lon="6.11388">
        <ele>955.40002441406</ele>
        <time>2020-12-04T14:06:33.689Z</time>
      </trkpt>
      <trkpt lat="44.50205" lon="6.11395">
        <ele>956.79998779297</ele>
        <time>2020-12-04T14:06:39.099Z</time>
      </trkpt>
      <trkpt lat="44.50219" lon="6.11417">
        <ele>958</ele>
        <time>2020-12-04T14:06:44.515Z</time>
      </trkpt>
      <trkpt lat="44.50228" lon="6.11422">
        <ele>958.40002441406</ele>
        <time>2020-12-04T14:06:49.934Z</time>
      </trkpt>
      <trkpt lat="44.50232" lon="6.11417">
        <ele>959.59997558594</ele>
        <time>2020-12-04T14:06:55.355Z</time>
      </trkpt>
      <trkpt lat="44.50246" lon="6.11419">
        <ele>960.79998779297</ele>
        <time>2020-12-04T14:07:00.780Z</time>
      </trkpt>
      <trkpt lat="44.50259" lon="6.11429">
        <ele>962</ele>
        <time>2020-12-04T14:07:06.210Z</time>
      </trkpt>
      <trkpt lat="44.50272" lon="6.11432">
        <ele>963.40002441406</ele>
        <time>2020-12-04T14:07:11.643Z</time>
      </trkpt>
      <trkpt lat="44.50273" lon="6.11433">
        <ele>963.79998779297</ele>
        <time>2020-12-04T14:07:17.077Z</time>
      </trkpt>
      <trkpt lat="44.50282" lon="6.11436">
        <ele>964.59997558594</ele>
        <time>2020-12-04T14:07:22.514Z</time>
      </trkpt>
      <trkpt lat="44.50284" lon="6.11435">
        <ele>964.79998779297</ele>
        <time>2020-12-04T14:07:27.951Z</time>
      </trkpt>
      <trkpt lat="44.50285" lon="6.11429">
        <ele>965</ele>
        <time>2020-12-04T14:07:33.390Z</time>
      </trkpt>
      <trkpt lat="44.5029" lon="6.1143">
        <ele>965.40002441406</ele>
        <time>2020-12-04T14:07:38.830Z</time>
      </trkpt>
      <trkpt lat="44.50297" lon="6.11429">
        <ele>966</ele>
        <time>2020-12-04T14:07:44.272Z</time>
      </trkpt>
      <trkpt lat="44.50299" lon="6.1143">
        <ele>966.40002441406</ele>
        <time>2020-12-04T14:07:49.715Z</time>
      </trkpt>
      <trkpt lat="44.50305" lon="6.11432">
        <ele>967.40002441406</ele>
        <time>2020-12-04T14:07:55.160Z</time>
      </trkpt>
      <trkpt lat="44.50308" lon="6.1143">
        <ele>967.59997558594</ele>
        <time>2020-12-04T14:08:00.606Z</time>
      </trkpt>
      <trkpt lat="44.50312" lon="6.11425">
        <ele>968.59997558594</ele>
        <time>2020-12-04T14:08:06.053Z</time>
      </trkpt>
      <trkpt lat="44.50317" lon="6.11419">
        <ele>969.59997558594</ele>
        <time>2020-12-04T14:08:11.502Z</time>
      </trkpt>
      <trkpt lat="44.5032" lon="6.11421">
        <ele>969.79998779297</ele>
        <time>2020-12-04T14:08:16.952Z</time>
      </trkpt>
      <trkpt lat="44.50321" lon="6.11421">
        <ele>970</ele>
        <time>2020-12-04T14:08:22.403Z</time>
      </trkpt>
      <trkpt lat="44.50326" lon="6.1142">
        <ele>970.59997558594</ele>
        <time>2020-12-04T14:08:27.855Z</time>
      </trkpt>
      <trkpt lat="44.50327" lon="6.11419">
        <ele>970.59997558594</ele>
        <time>2020-12-04T14:08:33.307Z</time>
      </trkpt>
      <trkpt lat="44.50329" lon="6.11416">
        <ele>970.79998779297</ele>
        <time>2020-12-04T14:08:38.761Z</time>
      </trkpt>
      <trkpt lat="44.50331" lon="6.11414">
        <ele>970.79998779297</ele>
        <time>2020-12-04T14:08:44.215Z</time>
      </trkpt>
      <trkpt lat="44.50332" lon="6.11414">
        <ele>970.79998779297</ele>
        <time>2020-12-04T14:08:49.670Z</time>
      </trkpt>
      <trkpt lat="44.50334" lon="6.11406">
        <ele>971.20001220703</ele>
        <time>2020-12-04T14:08:55.126Z</time>
      </trkpt>
      <trkpt lat="44.50336" lon="6.11402">
        <ele>971</ele>
        <time>2020-12-04T14:09:00.584Z</time>
      </trkpt>
      <trkpt lat="44.50339" lon="6.11398">
        <ele>970.79998779297</ele>
        <time>2020-12-04T14:09:06.043Z</time>
      </trkpt>
      <trkpt lat="44.50347" lon="6.11393">
        <ele>970.40002441406</ele>
        <time>2020-12-04T14:09:11.504Z</time>
      </trkpt>
      <trkpt lat="44.50352" lon="6.11388">
        <ele>970</ele>
        <time>2020-12-04T14:09:16.967Z</time>
      </trkpt>
      <trkpt lat="44.50357" lon="6.11385">
        <ele>970</ele>
        <time>2020-12-04T14:09:22.432Z</time>
      </trkpt>
      <trkpt lat="44.50359" lon="6.11381">
        <ele>970</ele>
        <time>2020-12-04T14:09:27.898Z</time>
      </trkpt>
      <trkpt lat="44.50366" lon="6.11377">
        <ele>970.40002441406</ele>
        <time>2020-12-04T14:09:33.366Z</time>
      </trkpt>
      <trkpt lat="44.50378" lon="6.11371">
        <ele>971</ele>
        <time>2020-12-04T14:09:38.838Z</time>
      </trkpt>
      <trkpt lat="44.50379" lon="6.11369">
        <ele>971.20001220703</ele>
        <time>2020-12-04T14:09:44.311Z</time>
      </trkpt>
      <trkpt lat="44.50384" lon="6.11367">
        <ele>972</ele>
        <time>2020-12-04T14:09:49.785Z</time>
      </trkpt>
      <trkpt lat="44.50387" lon="6.11365">
        <ele>972.20001220703</ele>
        <time>2020-12-04T14:09:55.260Z</time>
      </trkpt>
      <trkpt lat="44.50406" lon="6.11353">
        <ele>970.59997558594</ele>
        <time>2020-12-04T14:10:00.742Z</time>
      </trkpt>
      <trkpt lat="44.50414" lon="6.11348">
        <ele>970</ele>
        <time>2020-12-04T14:10:06.226Z</time>
      </trkpt>
      <trkpt lat="44.50422" lon="6.11343">
        <ele>969</ele>
        <time>2020-12-04T14:10:11.713Z</time>
      </trkpt>
      <trkpt lat="44.50428" lon="6.11335">
        <ele>968.59997558594</ele>
        <time>2020-12-04T14:10:17.202Z</time>
      </trkpt>
      <trkpt lat="44.50435" lon="6.11328">
        <ele>967.79998779297</ele>
        <time>2020-12-04T14:10:22.694Z</time>
      </trkpt>
      <trkpt lat="44.50446" lon="6.11326">
        <ele>967.20001220703</ele>
        <time>2020-12-04T14:10:28.189Z</time>
      </trkpt>
      <trkpt lat="44.50455" lon="6.11316">
        <ele>967.79998779297</ele>
        <time>2020-12-04T14:10:33.688Z</time>
      </trkpt>
      <trkpt lat="44.50463" lon="6.11311">
        <ele>969</ele>
        <time>2020-12-04T14:10:39.189Z</time>
      </trkpt>
      <trkpt lat="44.50468" lon="6.11306">
        <ele>969.59997558594</ele>
        <time>2020-12-04T14:10:44.692Z</time>
      </trkpt>
      <trkpt lat="44.50474" lon="6.11302">
        <ele>970.20001220703</ele>
        <time>2020-12-04T14:10:50.197Z</time>
      </trkpt>
      <trkpt lat="44.50481" lon="6.11294">
        <ele>970.79998779297</ele>
        <time>2020-12-04T14:10:55.705Z</time>
      </trkpt>
      <trkpt lat="44.50483" lon="6.11292">
        <ele>971.20001220703</ele>
        <time>2020-12-04T14:11:01.214Z</time>
      </trkpt>
      <trkpt lat="44.50489" lon="6.11283">
        <ele>972.20001220703</ele>
        <time>2020-12-04T14:11:06.726Z</time>
      </trkpt>
      <trkpt lat="44.50492" lon="6.11281">
        <ele>972.59997558594</ele>
        <time>2020-12-04T14:11:12.239Z</time>
      </trkpt>
      <trkpt lat="44.50497" lon="6.11278">
        <ele>973.40002441406</ele>
        <time>2020-12-04T14:11:17.753Z</time>
      </trkpt>
      <trkpt lat="44.50502" lon="6.11267">
        <ele>974.59997558594</ele>
        <time>2020-12-04T14:11:23.270Z</time>
      </trkpt>
      <trkpt lat="44.50503" lon="6.1126">
        <ele>974.79998779297</ele>
        <time>2020-12-04T14:11:28.789Z</time>
      </trkpt>
      <trkpt lat="44.50509" lon="6.11252">
        <ele>975.79998779297</ele>
        <time>2020-12-04T14:11:34.310Z</time>
      </trkpt>
      <trkpt lat="44.50514" lon="6.11246">
        <ele>976.20001220703</ele>
        <time>2020-12-04T14:11:39.833Z</time>
      </trkpt>
      <trkpt lat="44.50526" lon="6.11234">
        <ele>976.79998779297</ele>
        <time>2020-12-04T14:11:45.360Z</time>
      </trkpt>
      <trkpt lat="44.50529" lon="6.11233">
        <ele>977</ele>
        <time>2020-12-04T14:11:50.888Z</time>
      </trkpt>
      <trkpt lat="44.5054" lon="6.11221">
        <ele>977.79998779297</ele>
        <time>2020-12-04T14:11:56.421Z</time>
      </trkpt>
      <trkpt lat="44.50545" lon="6.11218">
        <ele>978.20001220703</ele>
        <time>2020-12-04T14:12:01.955Z</time>
      </trkpt>
      <trkpt lat="44.50551" lon="6.11217">
        <ele>978.79998779297</ele>
        <time>2020-12-04T14:12:07.491Z</time>
      </trkpt>
      <trkpt lat="44.5056" lon="6.11213">
        <ele>979.59997558594</ele>
        <time>2020-12-04T14:12:13.030Z</time>
      </trkpt>
      <trkpt lat="44.50565" lon="6.11209">
        <ele>980.20001220703</ele>
        <time>2020-12-04T14:12:18.571Z</time>
      </trkpt>
      <trkpt lat="44.50571" lon="6.11207">
        <ele>980.59997558594</ele>
        <time>2020-12-04T14:12:24.114Z</time>
      </trkpt>
      <trkpt lat="44.50576" lon="6.11205">
        <ele>981</ele>
        <time>2020-12-04T14:12:29.658Z</time>
      </trkpt>
      <trkpt lat="44.50584" lon="6.112">
        <ele>981.59997558594</ele>
        <time>2020-12-04T14:12:35.205Z</time>
      </trkpt>
      <trkpt lat="44.50589" lon="6.11195">
        <ele>982</ele>
        <time>2020-12-04T14:12:40.754Z</time>
      </trkpt>
      <trkpt lat="44.50605" lon="6.11195">
        <ele>982.40002441406</ele>
        <time>2020-12-04T14:12:46.307Z</time>
      </trkpt>
      <trkpt lat="44.50613" lon="6.11196">
        <ele>982.79998779297</ele>
        <time>2020-12-04T14:12:51.863Z</time>
      </trkpt>
      <trkpt lat="44.50615" lon="6.11195">
        <ele>982.79998779297</ele>
        <time>2020-12-04T14:12:57.420Z</time>
      </trkpt>
      <trkpt lat="44.50617" lon="6.11195">
        <ele>982.79998779297</ele>
        <time>2020-12-04T14:13:02.977Z</time>
      </trkpt>
      <trkpt lat="44.50618" lon="6.11196">
        <ele>982.59997558594</ele>
        <time>2020-12-04T14:13:08.535Z</time>
      </trkpt>
      <trkpt lat="44.50626" lon="6.11193">
        <ele>982.20001220703</ele>
        <time>2020-12-04T14:13:14.095Z</time>
      </trkpt>
      <trkpt lat="44.50628" lon="6.11193">
        <ele>982</ele>
        <time>2020-12-04T14:13:19.656Z</time>
      </trkpt>
      <trkpt lat="44.50629" lon="6.11191">
        <ele>981.59997558594</ele>
        <time>2020-12-04T14:13:25.217Z</time>
      </trkpt>
      <trkpt lat="44.5063" lon="6.1119">
        <ele>981.40002441406</ele>
        <time>2020-12-04T14:13:30.779Z</time>
      </trkpt>
      <trkpt lat="44.5064" lon="6.11192">
        <ele>979.20001220703</ele>
        <time>2020-12-04T14:13:36.344Z</time>
      </trkpt>
      <trkpt lat="44.50647" lon="6.11188">
        <ele>979</ele>
        <time>2020-12-04T14:13:41.911Z</time>
      </trkpt>
      <trkpt lat="44.5065" lon="6.11185">
        <ele>978.79998779297</ele>
        <time>2020-12-04T14:13:47.479Z</time>
      </trkpt>
      <trkpt lat="44.50659" lon="6.11179">
        <ele>977.79998779297</ele>
        <time>2020-12-04T14:13:53.050Z</time>
      </trkpt>
      <trkpt lat="44.50662" lon="6.11177">
        <ele>977.20001220703</ele>
        <time>2020-12-04T14:13:58.622Z</time>
      </trkpt>
      <trkpt lat="44.5067" lon="6.11172">
        <ele>976</ele>
        <time>2020-12-04T14:14:04.197Z</time>
      </trkpt>
      <trkpt lat="44.50677" lon="6.11164">
        <ele>974.79998779297</ele>
        <time>2020-12-04T14:14:09.775Z</time>
      </trkpt>
      <trkpt lat="44.50686" lon="6.11156">
        <ele>973.59997558594</ele>
        <time>2020-12-04T14:14:15.356Z</time>
      </trkpt>
      <trkpt lat="44.50693" lon="6.1115">
        <ele>971.79998779297</ele>
        <time>2020-12-04T14:14:20.940Z</time>
      </trkpt>
      <trkpt lat="44.50697" lon="6.1115">
        <ele>971.20001220703</ele>
        <time>2020-12-04T14:14:26.525Z</time>
      </trkpt>
      <trkpt lat="44.507" lon="6.11149">
        <ele>970.79998779297</ele>
        <time>2020-12-04T14:14:32.111Z</time>
      </trkpt>
      <trkpt lat="44.50702" lon="6.11144">
        <ele>970.40002441406</ele>
        <time>2020-12-04T14:14:37.698Z</time>
      </trkpt>
      <trkpt lat="44.50702" lon="6.11136">
        <ele>969.79998779297</ele>
        <time>2020-12-04T14:14:43.286Z</time>
      </trkpt>
      <trkpt lat="44.50701" lon="6.11132">
        <ele>969.40002441406</ele>
        <time>2020-12-04T14:14:48.875Z</time>
      </trkpt>
      <trkpt lat="44.50697" lon="6.11129">
        <ele>968.40002441406</ele>
        <time>2020-12-04T14:14:54.466Z</time>
      </trkpt>
      <trkpt lat="44.50687" lon="6.1112">
        <ele>967.20001220703</ele>
        <time>2020-12-04T14:15:00.060Z</time>
      </trkpt>
      <trkpt lat="44.5068" lon="6.11112">
        <ele>966.79998779297</ele>
        <time>2020-12-04T14:15:05.657Z</time>
      </trkpt>
      <trkpt lat="44.50666" lon="6.11099">
        <ele>966.20001220703</ele>
        <time>2020-12-04T14:15:11.259Z</time>
      </trkpt>
      <trkpt lat="44.50661" lon="6.11095">
        <ele>965.79998779297</ele>
        <time>2020-12-04T14:15:16.863Z</time>
      </trkpt>
      <trkpt lat="44.50655" lon="6.11089">
        <ele>965.40002441406</ele>
        <time>2020-12-04T14:15:22.469Z</time>
      </trkpt>
      <trkpt lat="44.5065" lon="6.11085">
        <ele>965</ele>
        <time>2020-12-04T14:15:28.077Z</time>
      </trkpt>
      <trkpt lat="44.50643" lon="6.11081">
        <ele>964.20001220703</ele>
        <time>2020-12-04T14:15:33.687Z</time>
      </trkpt>
      <trkpt lat="44.5064" lon="6.1108">
        <ele>963.59997558594</ele>
        <time>2020-12-04T14:15:39.298Z</time>
      </trkpt>
      <trkpt lat="44.50634" lon="6.11076">
        <ele>962.59997558594</ele>
        <time>2020-12-04T14:15:44.911Z</time>
      </trkpt>
      <trkpt lat="44.50624" lon="6.1107">
        <ele>961.40002441406</ele>
        <time>2020-12-04T14:15:50.528Z</time>
      </trkpt>
      <trkpt lat="44.50621" lon="6.11068">
        <ele>961</ele>
        <time>2020-12-04T14:15:56.146Z</time>
      </trkpt>
      <trkpt lat="44.50615" lon="6.11065">
        <ele>959.59997558594</ele>
        <time>2020-12-04T14:16:01.766Z</time>
      </trkpt>
      <trkpt lat="44.50611" lon="6.1106">
        <ele>959</ele>
        <time>2020-12-04T14:16:07.387Z</time>
      </trkpt>
      <trkpt lat="44.50611" lon="6.11058">
        <ele>958.59997558594</ele>
        <time>2020-12-04T14:16:13.009Z</time>
      </trkpt>
      <trkpt lat="44.50616" lon="6.11055">
        <ele>957.79998779297</ele>
        <time>2020-12-04T14:16:18.632Z</time>
      </trkpt>
      <trkpt lat="44.50618" lon="6.11054">
        <ele>957.59997558594</ele>
        <time>2020-12-04T14:16:24.256Z</time>
      </trkpt>
      <trkpt lat="44.50618" lon="6.11054">
        <ele>957.40002441406</ele>
        <time>2020-12-04T14:16:29.880Z</time>
      </trkpt>
      <trkpt lat="44.50641" lon="6.11048">
        <ele>957.20001220703</ele>
        <time>2020-12-04T14:16:35.511Z</time>
      </trkpt>
      <trkpt lat="44.50645" lon="6.11045">
        <ele>957</ele>
        <time>2020-12-04T14:16:41.144Z</time>
      </trkpt>
      <trkpt lat="44.50646" lon="6.11043">
        <ele>957</ele>
        <time>2020-12-04T14:16:46.777Z</time>
      </trkpt>
      <trkpt lat="44.50647" lon="6.11042">
        <ele>957</ele>
        <time>2020-12-04T14:16:52.411Z</time>
      </trkpt>
      <trkpt lat="44.50648" lon="6.11042">
        <ele>957</ele>
        <time>2020-12-04T14:16:58.045Z</time>
      </trkpt>
      <trkpt lat="44.50649" lon="6.11042">
        <ele>957</ele>
        <time>2020-12-04T14:17:03.679Z</time>
      </trkpt>
      <trkpt lat="44.50648" lon="6.1104">
        <ele>957</ele>
        <time>2020-12-04T14:17:09.314Z</time>
      </trkpt>
    </trkseg>
  </trk>
</gpx>